[[{"header":{"parameterUnit":"m.s-1","parameterCategory":1,"la1":31.0,"la2":29.5877,"lo1":-88.7671,"lo2":-86.6584,"dy":0.0162,"dx":0.0185,"nx":115,"ny":88,"refTime":"2023-05-11T12:00:00:Z","depth":0,"parameterNumber":2,"parameterNumberName":"U-component_of_WINDS"},"data":[0.0,0.0,0.0,0.0,0.0,0.0,0.0,0.0,0.0,0.0,0.0,0.0,0.0,0.0,0.0,0.0,0.0,0.0,0.0,0.0,0.0,0.0,0.0,0.0,0.0,0.0,0.0,0.0,0.0,0.0,0.0,0.0,0.0,0.0,0.0,0.0,0.0,0.0,0.0,0.0,0.0,0.0,0.0,0.0,0.0,0.0,0.0,0.0,0.0,0.0,0.0,0.0,0.0,0.0,0.0,0.0,0.0,0.0,0.0,0.0,0.0,0.0,0.0,0.0,0.0,0.0,0.0,0.0,0.0,0.0,0.0,0.0,0.0,0.0,0.0,0.0,0.0,0.0,0.0,0.0,0.0,0.0,0.0,0.0,0.0,0.0,0.0,0.0,0.0,0.0,0.0,0.0,0.0,0.0,0.0,0.0,0.0,0.0,0.0,0.0,0.0,0.0,0.0,0.0,0.0,0.0,0.0,0.0,0.0,0.0,0.0,0.0,0.0,0.0,0.0,0.0,0.0,0.0,0.0,0.0,0.0,0.0,0.0,0.0,0.0,0.0,0.0,0.0,0.0,0.0,0.0,0.0,0.0,0.0,0.0,0.0,0.0,0.0,0.0,0.0,0.0,0.0,0.0,0.0,0.0,0.0,0.0,0.0,0.0,0.0,0.0,0.0,0.0,0.0,0.0,0.0,0.0,0.0,0.0,0.0,0.0,0.0,0.0,0.0,0.0,0.0,0.0,0.0,0.0,0.0,0.0,0.0,0.0,0.0,0.0,0.0,0.0,0.0,0.0,0.0,0.0,0.0,0.0,0.0,0.0,0.0,0.0,0.0,0.0,0.0,0.0,0.0,0.0,0.0,0.0,0.0,0.0,0.0,0.0,0.0,0.0,0.0,0.0,0.0,0.0,0.0,0.0,0.0,0.0,0.0,0.0,0.0,0.0,0.0,0.0,0.0,0.0,0.0,0.0,0.0,0.0,0.0,0.0,0.0,0.0,0.0,0.0,0.0,0.0,0.0,0.0,0.0,0.0,0.0,0.0,0.0,0.0,0.0,0.0,0.0,0.0,0.0,0.0,0.0,0.0,0.0,0.0,0.0,0.0,0.0,0.0,0.0,0.0,0.0,0.0,0.0,0.0,0.0,0.0,0.0,0.0,0.0,0.0,0.0,0.0,0.0,0.0,0.0,0.0,0.0,0.0,0.0,0.0,0.0,0.0,0.0,0.0,0.0,0.0,0.0,0.0,0.0,0.0,0.0,0.0,0.0,0.0,0.0,0.0,0.0,0.0,0.0,0.0,0.0,0.0,0.0,0.0,0.0,0.0,0.0,0.0,0.0,0.0,0.0,0.0,0.0,0.0,0.0,0.0,0.0,0.0,0.0,0.0,0.0,0.0,0.0,0.0,0.0,0.0,0.0,0.0,0.0,0.0,0.0,0.0,0.0,0.0,0.0,0.0,0.0,0.0,0.0,0.0,0.0,0.0,0.0,0.0,0.0,0.0,0.0,0.0,0.0,0.0,0.0,0.0,0.0,0.0,0.0,0.0,0.0,0.0,0.0,0.0,0.0,0.0,0.0,0.0,0.0,0.0,0.0,0.0,0.0,0.0,0.0,0.0,0.0,0.0,0.0,0.0,0.0,0.0,0.0,0.0,0.0,0.0,0.0,0.0,0.0,0.0,0.0,0.0,0.0,0.0,0.0,0.0,0.0,0.0,0.0,0.0,0.0,0.0,0.0,0.0,0.0,0.0,0.0,0.0,0.0,0.0,0.0,0.0,0.0,0.0,0.0,0.0,0.0,0.0,0.0,0.0,0.0,0.0,0.0,0.0,0.0,0.0,0.0,0.0,0.0,0.0,0.0,0.0,0.0,0.0,0.0,0.0,0.0,0.0,0.0,0.0,0.0,0.0,0.0,0.0,0.0,0.0,0.0,0.0,0.0,0.0,0.0,0.0,0.0,0.0,0.0,0.0,0.0,0.0,0.0,0.0,0.0,0.0,0.0,0.0,0.0,0.0,0.0,0.0,0.0,0.0,0.0,0.0,0.0,0.0,0.0,0.0,0.0,0.0,0.0,0.0,0.0,0.0,0.0,0.0,0.0,0.0,0.0,0.0,0.0,0.0,0.0,0.0,0.0,0.0,0.0,0.0,0.0,0.0,0.0,0.0,0.0,0.0,0.0,0.0,0.0,0.0,0.0,0.0,0.0,0.0,0.0,0.0,0.0,0.0,0.0,0.0,0.0,0.0,0.0,0.0,0.0,0.0,0.0,0.0,0.0,0.0,0.0,0.0,0.0,0.0,0.0,0.0,0.0,0.0,0.0,0.0,0.0,0.0,0.0,0.0,0.0,0.0,0.0,0.0,0.0,0.0,0.0,0.0,0.0,0.0,0.0,0.0,0.0,0.0,0.0,0.0,0.0,0.0,0.0,0.0,0.0,0.0,0.0,0.0,0.0,0.0,0.0,0.0,0.0,0.0,0.0,0.0,0.0,0.0,0.0,0.0,0.0,0.0,0.0,0.0,0.0,0.0,0.0,0.0,0.0,0.0,0.0,0.0,0.0,0.0,0.0,0.0,0.0,0.0,0.0,0.0,0.0,0.0,0.0,0.0,0.0,0.0,0.0,0.0,0.0,0.0,0.0,0.0,0.0,0.0,0.0,0.0,0.0,0.0,0.0,0.0,0.0,0.0,0.0,0.0,0.0,0.0,0.0,0.0,0.0,0.0,0.0,0.0,0.0,0.0,0.0,0.0,0.0,0.0,0.0,0.0,0.0,0.0,0.0,0.0,0.0,0.0,0.0,0.0,0.0,0.0,0.0,0.0,0.0,0.0,0.0,0.0,0.0,0.0,0.0,0.0,0.0,0.0,0.0,0.0,0.0,0.0,0.0,0.0,0.0,0.0,0.0,0.0,0.0,0.0,0.0,0.0,0.0,0.0,0.0,0.0,0.0,0.0,0.0,0.0,0.0,0.0,0.0,0.0,0.0,0.0,0.0,0.0,0.0,0.0,0.0,0.0,0.0,0.0,0.0,0.0,0.0,0.0,0.0,0.0,0.0,0.0,0.0,0.0,0.0,0.0,0.0,0.0,0.0,0.0,0.0,0.0,0.0,0.0,0.0,0.0,0.0,0.0,0.0,0.0,0.0,0.0,0.0,0.0,0.0,0.0,0.0,0.0,0.0,0.0,0.0,0.0,0.0,0.0,0.0,0.0,0.0,0.0,0.0,0.0,0.0,0.0,0.0,0.0,0.0,0.0,0.0,0.0,0.0,0.0,0.0,0.0,0.0,0.0,0.0,0.0,0.0,0.0,0.0,0.0,0.0,0.0,0.0,0.0,0.0,0.0,0.0,0.0,0.0,0.0,0.0,0.0,0.0,0.0,0.0,0.0,0.0,0.0,0.0,0.0,0.0,0.0,0.0,0.0,0.0,0.0,0.0,0.0,0.0,0.0,0.0,0.0,0.0,0.0,0.0,0.0,0.0,0.0,0.0,0.0,0.0,0.0,0.0,0.0,0.0,0.0,0.0,0.0,0.0,0.0,0.0,0.0,0.0,0.0,0.0,0.0,0.0,0.0,0.0,0.0,0.0,0.0,0.0,0.0,0.0,0.0,0.0,0.0,0.0,0.0,0.0,0.0,0.0,0.0,0.0,0.0,0.0,0.0,0.0,0.0,0.0,0.0,0.0,0.0,0.0,0.0,0.0,0.0,0.0,0.0,0.0,0.0,0.0,0.0,0.0,0.0,0.0,0.0,0.0,0.0,0.0,0.0,0.0,0.0,0.0,0.0,0.0,0.0,0.0,0.0,0.0,0.0,0.0,0.0,0.0,0.0,0.0,0.0,0.0,0.0,0.0,0.0,0.0,0.0,0.0,0.0,0.0,0.0,0.0,0.0,0.0,0.0,0.0,0.0,0.0,0.0,0.0,0.0,0.0,0.0,0.0,0.0,0.0,0.0,0.0,0.0,0.0,0.0,0.0,0.0,0.0,0.0,0.0,0.0,0.0,0.0,0.0,0.0,0.0,0.0,0.0,0.0,0.0,0.0,0.0,0.0,0.0,0.0,0.0,0.0,0.0,0.0,0.0,0.0,0.0,0.0,0.0,0.0,0.0,0.0,0.0,0.0,0.0,0.0,0.0,0.0,0.0,0.0,0.0,0.0,0.0,0.0,0.0,0.0,0.0,0.0,0.0,0.0,0.0,0.0,0.0,0.0,0.0,0.0,0.0,0.0,0.0,0.0,0.0,0.0,0.0,0.0,0.0,-4.8856,0.0,0.0,0.0,-4.5748,0.0,0.0,0.0,0.0,0.0,0.0,0.0,0.0,0.0,0.0,0.0,0.0,0.0,0.0,0.0,0.0,0.0,0.0,0.0,0.0,0.0,0.0,0.0,0.0,0.0,0.0,0.0,0.0,0.0,0.0,0.0,0.0,0.0,0.0,0.0,0.0,0.0,0.0,0.0,0.0,0.0,0.0,0.0,0.0,0.0,0.0,0.0,0.0,0.0,0.0,0.0,0.0,0.0,0.0,0.0,0.0,0.0,0.0,0.0,0.0,0.0,0.0,0.0,0.0,0.0,0.0,0.0,0.0,0.0,0.0,0.0,0.0,0.0,0.0,0.0,0.0,0.0,0.0,0.0,0.0,0.0,0.0,0.0,0.0,0.0,0.0,0.0,0.0,0.0,0.0,0.0,0.0,0.0,0.0,0.0,0.0,0.0,0.0,0.0,0.0,0.0,0.0,0.0,0.0,0.0,0.0,0.0,0.0,0.0,0.0,-4.8817,-4.6432,-4.8779,-4.8894,-4.6432,0.0,0.0,0.0,0.0,0.0,0.0,0.0,0.0,0.0,0.0,0.0,0.0,0.0,0.0,0.0,0.0,0.0,0.0,0.0,0.0,0.0,0.0,0.0,0.0,0.0,0.0,0.0,0.0,0.0,0.0,0.0,0.0,0.0,0.0,0.0,0.0,0.0,0.0,0.0,0.0,0.0,0.0,0.0,0.0,0.0,0.0,0.0,0.0,0.0,0.0,0.0,0.0,0.0,0.0,0.0,0.0,0.0,0.0,0.0,0.0,0.0,0.0,0.0,0.0,0.0,0.0,0.0,0.0,0.0,0.0,0.0,0.0,0.0,0.0,0.0,0.0,0.0,0.0,0.0,0.0,0.0,0.0,0.0,0.0,0.0,0.0,0.0,0.0,0.0,0.0,0.0,0.0,0.0,0.0,0.0,0.0,0.0,0.0,0.0,0.0,0.0,0.0,0.0,0.0,0.0,0.0,0.0,0.0,0.0,0.0,0.0,0.0,-4.9673,-4.9702,-4.7538,0.0,0.0,0.0,0.0,0.0,0.0,0.0,0.0,0.0,0.0,0.0,0.0,0.0,0.0,0.0,0.0,0.0,0.0,0.0,0.0,0.0,0.0,0.0,0.0,0.0,0.0,0.0,0.0,0.0,0.0,0.0,0.0,0.0,0.0,0.0,0.0,0.0,0.0,0.0,0.0,0.0,0.0,0.0,0.0,0.0,0.0,0.0,0.0,0.0,0.0,0.0,0.0,0.0,0.0,0.0,0.0,0.0,0.0,0.0,0.0,0.0,0.0,0.0,0.0,0.0,0.0,0.0,0.0,0.0,0.0,0.0,0.0,0.0,0.0,0.0,0.0,0.0,0.0,0.0,0.0,0.0,0.0,0.0,0.0,0.0,0.0,0.0,0.0,0.0,0.0,0.0,0.0,0.0,0.0,0.0,0.0,0.0,0.0,0.0,0.0,0.0,0.0,0.0,0.0,0.0,0.0,0.0,0.0,0.0,0.0,-4.8163,-5.0279,-5.0596,0.0,-4.9163,0.0,0.0,0.0,0.0,0.0,0.0,0.0,0.0,0.0,0.0,0.0,0.0,0.0,0.0,0.0,0.0,0.0,0.0,0.0,0.0,0.0,0.0,0.0,0.0,0.0,0.0,0.0,0.0,0.0,0.0,0.0,0.0,0.0,0.0,0.0,0.0,0.0,0.0,0.0,0.0,0.0,0.0,0.0,0.0,0.0,0.0,0.0,0.0,0.0,0.0,0.0,0.0,0.0,0.0,0.0,0.0,0.0,0.0,0.0,0.0,0.0,0.0,0.0,0.0,0.0,0.0,0.0,0.0,0.0,0.0,0.0,0.0,0.0,0.0,0.0,0.0,0.0,0.0,0.0,0.0,0.0,0.0,0.0,0.0,0.0,0.0,0.0,0.0,0.0,0.0,0.0,0.0,0.0,0.0,0.0,0.0,0.0,0.0,0.0,0.0,0.0,0.0,0.0,0.0,0.0,0.0,0.0,0.0,0.0,0.0,-4.8586,-5.0664,-5.0702,-4.9817,0.0,0.0,0.0,0.0,0.0,0.0,0.0,0.0,0.0,0.0,0.0,0.0,0.0,0.0,0.0,0.0,0.0,0.0,0.0,0.0,0.0,0.0,0.0,0.0,0.0,0.0,0.0,0.0,0.0,0.0,0.0,0.0,0.0,0.0,0.0,0.0,0.0,0.0,0.0,0.0,0.0,0.0,0.0,0.0,0.0,0.0,0.0,0.0,0.0,0.0,0.0,0.0,0.0,0.0,0.0,0.0,0.0,0.0,0.0,0.0,0.0,0.0,0.0,0.0,0.0,0.0,0.0,0.0,0.0,0.0,0.0,0.0,0.0,0.0,0.0,0.0,0.0,0.0,0.0,0.0,0.0,0.0,0.0,0.0,0.0,0.0,0.0,0.0,0.0,0.0,0.0,0.0,0.0,0.0,0.0,0.0,0.0,0.0,0.0,0.0,0.0,0.0,0.0,0.0,0.0,0.0,0.0,0.0,0.0,0.0,-4.8317,-4.9394,-5.1202,-5.0481,-4.9202,-4.7625,0.0,0.0,0.0,0.0,0.0,0.0,0.0,0.0,0.0,0.0,0.0,0.0,0.0,0.0,0.0,0.0,0.0,0.0,0.0,0.0,0.0,0.0,0.0,0.0,0.0,0.0,0.0,0.0,0.0,0.0,0.0,0.0,0.0,0.0,0.0,0.0,0.0,0.0,0.0,0.0,0.0,0.0,0.0,0.0,0.0,0.0,0.0,0.0,0.0,0.0,0.0,0.0,0.0,0.0,0.0,0.0,0.0,0.0,0.0,0.0,0.0,0.0,0.0,0.0,0.0,0.0,0.0,0.0,0.0,0.0,0.0,0.0,0.0,0.0,0.0,0.0,0.0,0.0,0.0,0.0,0.0,0.0,0.0,0.0,0.0,0.0,0.0,0.0,0.0,0.0,0.0,0.0,0.0,0.0,0.0,0.0,0.0,0.0,0.0,0.0,0.0,0.0,0.0,0.0,0.0,0.0,0.0,0.0,-5.3577,-5.0894,-5.0548,-5.2895,-4.9933,-4.8548,0.0,0.0,0.0,0.0,0.0,0.0,0.0,0.0,0.0,0.0,0.0,0.0,0.0,0.0,0.0,0.0,0.0,0.0,0.0,0.0,0.0,0.0,0.0,0.0,0.0,0.0,0.0,0.0,0.0,0.0,0.0,0.0,0.0,0.0,0.0,0.0,0.0,0.0,0.0,0.0,0.0,0.0,0.0,0.0,0.0,0.0,0.0,0.0,0.0,0.0,0.0,0.0,0.0,0.0,0.0,0.0,0.0,0.0,0.0,0.0,0.0,0.0,0.0,0.0,0.0,0.0,0.0,0.0,0.0,0.0,0.0,0.0,0.0,0.0,0.0,0.0,0.0,0.0,0.0,0.0,0.0,0.0,0.0,0.0,0.0,0.0,0.0,0.0,0.0,0.0,0.0,0.0,0.0,0.0,0.0,0.0,0.0,0.0,0.0,0.0,0.0,0.0,0.0,0.0,0.0,0.0,0.0,0.0,0.0,-4.8654,-4.9163,-5.0317,-5.2192,-5.0125,-4.899,0.0,0.0,0.0,0.0,0.0,0.0,0.0,0.0,0.0,0.0,0.0,0.0,0.0,0.0,0.0,0.0,0.0,0.0,0.0,0.0,0.0,0.0,0.0,0.0,0.0,0.0,0.0,0.0,0.0,0.0,0.0,0.0,0.0,0.0,0.0,0.0,0.0,0.0,0.0,0.0,0.0,0.0,0.0,0.0,0.0,0.0,0.0,0.0,0.0,0.0,0.0,0.0,0.0,0.0,0.0,0.0,0.0,0.0,0.0,0.0,0.0,0.0,0.0,0.0,0.0,0.0,0.0,0.0,0.0,0.0,0.0,0.0,0.0,0.0,0.0,0.0,0.0,0.0,0.0,0.0,0.0,0.0,0.0,0.0,0.0,0.0,0.0,0.0,0.0,0.0,0.0,0.0,0.0,0.0,0.0,0.0,0.0,0.0,0.0,0.0,0.0,0.0,0.0,0.0,0.0,0.0,0.0,0.0,0.0,-4.8038,0.0,-5.2049,-5.2241,-5.0702,-4.9027,0.0,0.0,0.0,0.0,0.0,0.0,0.0,0.0,0.0,0.0,0.0,0.0,0.0,0.0,0.0,0.0,0.0,0.0,0.0,0.0,0.0,0.0,0.0,0.0,0.0,0.0,0.0,0.0,0.0,0.0,0.0,0.0,0.0,0.0,0.0,0.0,0.0,0.0,0.0,0.0,0.0,0.0,0.0,0.0,0.0,0.0,0.0,0.0,0.0,0.0,0.0,0.0,0.0,0.0,0.0,0.0,0.0,0.0,0.0,0.0,0.0,0.0,0.0,0.0,0.0,0.0,0.0,0.0,0.0,0.0,0.0,0.0,0.0,0.0,0.0,0.0,0.0,0.0,0.0,0.0,0.0,0.0,0.0,0.0,0.0,0.0,0.0,0.0,0.0,0.0,0.0,0.0,0.0,0.0,0.0,0.0,0.0,0.0,0.0,0.0,0.0,0.0,0.0,0.0,0.0,0.0,0.0,0.0,-4.74,-5.2836,-5.5406,-5.5483,-5.3318,-5.1548,-4.8605,0.0,0.0,0.0,0.0,0.0,0.0,0.0,0.0,0.0,0.0,0.0,0.0,0.0,0.0,0.0,0.0,0.0,0.0,0.0,0.0,0.0,0.0,0.0,0.0,0.0,0.0,0.0,0.0,0.0,0.0,0.0,0.0,0.0,0.0,0.0,0.0,0.0,0.0,0.0,0.0,0.0,0.0,0.0,0.0,0.0,0.0,0.0,0.0,0.0,0.0,0.0,0.0,0.0,0.0,0.0,0.0,0.0,0.0,0.0,0.0,0.0,0.0,0.0,0.0,0.0,0.0,0.0,0.0,0.0,0.0,0.0,0.0,0.0,0.0,0.0,0.0,0.0,0.0,0.0,0.0,0.0,0.0,0.0,0.0,0.0,0.0,0.0,0.0,0.0,0.0,0.0,0.0,0.0,0.0,0.0,0.0,0.0,0.0,0.0,0.0,0.0,0.0,0.0,0.0,0.0,0.0,0.0,0.0,0.0,-4.9721,-5.2741,-5.4818,-5.5626,-5.1895,-4.975,0.0,0.0,0.0,0.0,0.0,0.0,0.0,0.0,0.0,0.0,0.0,0.0,0.0,0.0,0.0,0.0,0.0,0.0,0.0,0.0,0.0,0.0,0.0,0.0,0.0,0.0,0.0,0.0,0.0,0.0,0.0,0.0,0.0,0.0,0.0,0.0,0.0,0.0,0.0,0.0,0.0,0.0,0.0,0.0,0.0,0.0,0.0,0.0,0.0,0.0,0.0,0.0,0.0,0.0,0.0,0.0,0.0,0.0,0.0,0.0,0.0,0.0,0.0,0.0,0.0,0.0,0.0,0.0,0.0,0.0,0.0,0.0,0.0,0.0,0.0,0.0,0.0,0.0,0.0,0.0,0.0,0.0,0.0,0.0,0.0,0.0,0.0,0.0,0.0,0.0,0.0,0.0,0.0,0.0,0.0,0.0,0.0,0.0,0.0,0.0,0.0,0.0,0.0,0.0,0.0,0.0,0.0,0.0,0.0,-5.1077,-5.3933,-5.5857,-5.6522,-5.2696,-5.0382,-4.9776,0.0,0.0,0.0,0.0,0.0,0.0,0.0,0.0,0.0,0.0,0.0,0.0,0.0,0.0,0.0,0.0,0.0,0.0,0.0,0.0,0.0,0.0,0.0,0.0,0.0,0.0,0.0,0.0,0.0,0.0,0.0,0.0,0.0,0.0,0.0,0.0,0.0,0.0,0.0,0.0,0.0,0.0,0.0,0.0,0.0,0.0,0.0,0.0,0.0,0.0,0.0,0.0,0.0,0.0,0.0,0.0,0.0,0.0,0.0,0.0,0.0,0.0,0.0,0.0,0.0,0.0,0.0,0.0,0.0,0.0,0.0,0.0,0.0,0.0,0.0,0.0,0.0,0.0,0.0,0.0,0.0,0.0,0.0,0.0,0.0,0.0,0.0,0.0,0.0,0.0,0.0,0.0,0.0,0.0,0.0,0.0,0.0,0.0,0.0,0.0,0.0,0.0,0.0,0.0,0.0,0.0,0.0,0.0,-5.5802,-5.8262,-5.8416,-5.6132,-5.392,-5.0723,0.0,0.0,0.0,0.0,0.0,0.0,0.0,0.0,0.0,0.0,0.0,0.0,0.0,0.0,0.0,0.0,0.0,0.0,0.0,0.0,0.0,0.0,0.0,0.0,0.0,0.0,0.0,0.0,0.0,0.0,0.0,0.0,0.0,0.0,0.0,0.0,0.0,0.0,0.0,0.0,0.0,0.0,0.0,0.0,0.0,0.0,0.0,0.0,0.0,0.0,0.0,0.0,0.0,0.0,0.0,0.0,0.0,0.0,0.0,0.0,0.0,0.0,0.0,0.0,0.0,0.0,0.0,0.0,0.0,0.0,0.0,0.0,0.0,0.0,0.0,0.0,0.0,0.0,0.0,0.0,0.0,0.0,0.0,0.0,0.0,0.0,0.0,0.0,0.0,0.0,0.0,0.0,0.0,0.0,0.0,0.0,0.0,0.0,0.0,0.0,0.0,0.0,0.0,0.0,0.0,0.0,0.0,0.0,0.0,-5.7368,-5.9333,-6.0174,-5.9824,-5.5823,-5.2734,0.0,0.0,0.0,0.0,0.0,0.0,0.0,0.0,0.0,0.0,0.0,0.0,0.0,0.0,0.0,0.0,0.0,0.0,0.0,0.0,0.0,0.0,0.0,0.0,0.0,0.0,0.0,0.0,0.0,0.0,0.0,0.0,0.0,0.0,0.0,0.0,0.0,0.0,0.0,0.0,0.0,0.0,0.0,0.0,0.0,0.0,0.0,0.0,0.0,0.0,0.0,0.0,0.0,0.0,0.0,0.0,0.0,0.0,0.0,0.0,0.0,0.0,0.0,0.0,0.0,0.0,0.0,0.0,0.0,0.0,0.0,0.0,0.0,0.0,0.0,0.0,0.0,0.0,0.0,0.0,0.0,0.0,0.0,0.0,0.0,0.0,0.0,0.0,0.0,0.0,0.0,0.0,0.0,0.0,0.0,0.0,0.0,0.0,0.0,0.0,0.0,0.0,0.0,0.0,0.0,0.0,0.0,0.0,-5.5415,-5.9055,-6.0789,-6.154,-6.1324,-5.7484,-5.4215,0.0,0.0,0.0,0.0,0.0,0.0,0.0,0.0,0.0,0.0,0.0,0.0,0.0,0.0,0.0,0.0,0.0,0.0,0.0,0.0,0.0,0.0,0.0,0.0,0.0,0.0,0.0,0.0,0.0,0.0,0.0,0.0,0.0,0.0,0.0,0.0,0.0,0.0,0.0,0.0,0.0,0.0,0.0,0.0,0.0,0.0,0.0,0.0,0.0,0.0,0.0,0.0,0.0,0.0,0.0,0.0,0.0,0.0,0.0,0.0,0.0,0.0,0.0,0.0,0.0,0.0,0.0,0.0,0.0,0.0,0.0,0.0,0.0,0.0,0.0,0.0,0.0,0.0,0.0,0.0,0.0,0.0,0.0,0.0,0.0,0.0,0.0,0.0,0.0,0.0,0.0,0.0,0.0,0.0,0.0,0.0,0.0,0.0,0.0,0.0,0.0,0.0,0.0,0.0,0.0,0.0,0.0,0.0,-5.7024,-6.051,-6.2222,-6.2478,-6.1204,-5.873,-5.5137,0.0,0.0,0.0,0.0,0.0,0.0,0.0,0.0,0.0,0.0,0.0,0.0,0.0,0.0,0.0,0.0,0.0,0.0,0.0,0.0,0.0,0.0,0.0,0.0,0.0,0.0,0.0,0.0,0.0,0.0,0.0,0.0,0.0,0.0,0.0,0.0,0.0,0.0,0.0,0.0,0.0,0.0,0.0,0.0,0.0,0.0,0.0,0.0,0.0,0.0,0.0,0.0,0.0,0.0,0.0,0.0,0.0,0.0,0.0,0.0,0.0,0.0,0.0,0.0,0.0,0.0,0.0,0.0,0.0,0.0,0.0,0.0,0.0,0.0,0.0,0.0,0.0,0.0,0.0,0.0,0.0,0.0,0.0,0.0,0.0,0.0,0.0,0.0,0.0,0.0,0.0,0.0,0.0,0.0,0.0,0.0,0.0,0.0,0.0,0.0,0.0,0.0,0.0,0.0,0.0,0.0,0.0,0.0,-5.773,-6.0387,-6.205,-6.2446,-6.1516,-5.8306,-5.4724,0.0,0.0,0.0,0.0,0.0,0.0,0.0,0.0,0.0,0.0,0.0,0.0,0.0,0.0,0.0,0.0,0.0,0.0,0.0,0.0,0.0,0.0,0.0,0.0,0.0,0.0,0.0,0.0,0.0,0.0,0.0,0.0,0.0,0.0,0.0,0.0,0.0,0.0,0.0,0.0,0.0,0.0,0.0,0.0,0.0,0.0,0.0,0.0,-5.0633,0.0,0.0,0.0,0.0,0.0,0.0,0.0,0.0,0.0,0.0,0.0,0.0,0.0,0.0,0.0,0.0,0.0,0.0,0.0,0.0,0.0,0.0,0.0,0.0,0.0,0.0,0.0,0.0,0.0,0.0,0.0,0.0,0.0,0.0,0.0,0.0,0.0,0.0,0.0,0.0,0.0,0.0,0.0,0.0,0.0,0.0,0.0,0.0,0.0,0.0,0.0,0.0,0.0,0.0,0.0,0.0,0.0,0.0,0.0,-5.8187,-5.9855,-6.1446,-6.1851,-6.0994,-5.8113,-5.4617,0.0,0.0,0.0,0.0,0.0,0.0,0.0,0.0,0.0,0.0,0.0,0.0,0.0,0.0,0.0,0.0,0.0,0.0,0.0,0.0,0.0,0.0,0.0,0.0,0.0,0.0,0.0,0.0,0.0,0.0,0.0,0.0,0.0,0.0,0.0,0.0,0.0,0.0,0.0,0.0,0.0,0.0,0.0,0.0,0.0,0.0,0.0,0.0,0.0,0.0,0.0,0.0,0.0,0.0,0.0,0.0,0.0,0.0,0.0,0.0,0.0,0.0,0.0,0.0,0.0,0.0,0.0,0.0,0.0,0.0,0.0,0.0,0.0,0.0,0.0,0.0,0.0,0.0,0.0,0.0,0.0,0.0,0.0,0.0,0.0,0.0,0.0,0.0,0.0,0.0,0.0,0.0,0.0,0.0,0.0,0.0,0.0,0.0,0.0,0.0,0.0,0.0,0.0,0.0,0.0,0.0,0.0,-5.4617,-5.7923,-5.9112,-6.0537,-6.0909,-6.0199,-5.7997,-5.4619,-5.0162,0.0,0.0,0.0,0.0,0.0,0.0,0.0,0.0,0.0,0.0,0.0,0.0,0.0,0.0,0.0,0.0,0.0,0.0,0.0,0.0,0.0,0.0,0.0,0.0,0.0,0.0,0.0,0.0,0.0,0.0,0.0,0.0,0.0,0.0,0.0,0.0,0.0,0.0,-4.5251,-4.8059,0.0,0.0,0.0,0.0,0.0,0.0,0.0,0.0,-5.0867,0.0,0.0,0.0,0.0,0.0,0.0,0.0,0.0,0.0,0.0,0.0,0.0,0.0,0.0,0.0,0.0,0.0,0.0,0.0,0.0,0.0,0.0,0.0,0.0,0.0,0.0,0.0,0.0,0.0,0.0,0.0,0.0,0.0,0.0,0.0,0.0,0.0,0.0,0.0,0.0,0.0,0.0,0.0,0.0,0.0,0.0,0.0,0.0,0.0,0.0,0.0,0.0,0.0,0.0,0.0,0.0,-5.1757,-5.3388,-5.5551,-5.8238,-5.92,-5.9583,-5.9344,-5.7703,-5.4655,-5.0184,0.0,0.0,0.0,0.0,0.0,0.0,0.0,0.0,0.0,0.0,0.0,0.0,0.0,0.0,0.0,0.0,0.0,0.0,0.0,0.0,0.0,0.0,0.0,0.0,0.0,0.0,0.0,0.0,0.0,0.0,0.0,0.0,0.0,0.0,0.0,0.0,0.0,0.0,0.0,-5.0212,-5.1206,0.0,0.0,0.0,0.0,0.0,0.0,0.0,0.0,-5.0054,0.0,0.0,0.0,0.0,0.0,0.0,0.0,0.0,0.0,0.0,0.0,0.0,0.0,0.0,0.0,0.0,0.0,0.0,0.0,0.0,0.0,0.0,0.0,0.0,0.0,0.0,0.0,0.0,0.0,0.0,0.0,0.0,0.0,0.0,0.0,0.0,0.0,0.0,0.0,0.0,0.0,0.0,0.0,0.0,0.0,0.0,0.0,0.0,0.0,0.0,0.0,0.0,0.0,0.0,0.0,-4.9521,-5.2936,-5.539,-5.6885,-5.7683,-5.8043,-5.7969,-5.5595,-5.2862,0.0,0.0,0.0,0.0,0.0,0.0,0.0,0.0,0.0,0.0,0.0,0.0,0.0,0.0,0.0,0.0,0.0,0.0,0.0,0.0,0.0,0.0,0.0,0.0,0.0,0.0,0.0,0.0,0.0,0.0,0.0,0.0,0.0,0.0,0.0,0.0,0.0,0.0,0.0,0.0,-5.0168,-5.0712,-5.0885,0.0,0.0,0.0,0.0,0.0,0.0,-4.9887,-4.9281,0.0,0.0,0.0,0.0,0.0,0.0,0.0,0.0,0.0,0.0,0.0,0.0,0.0,0.0,0.0,0.0,0.0,0.0,0.0,0.0,0.0,0.0,0.0,0.0,0.0,0.0,0.0,0.0,0.0,0.0,0.0,0.0,0.0,0.0,0.0,0.0,0.0,0.0,0.0,0.0,0.0,0.0,0.0,0.0,0.0,0.0,0.0,0.0,0.0,0.0,0.0,0.0,0.0,0.0,0.0,-4.6941,-5.1975,-5.4974,-5.5532,-5.6115,-5.6493,-5.6602,-5.383,-5.1395,0.0,0.0,0.0,0.0,0.0,0.0,0.0,0.0,0.0,0.0,0.0,0.0,0.0,0.0,0.0,0.0,0.0,0.0,0.0,0.0,0.0,0.0,0.0,0.0,0.0,0.0,0.0,0.0,0.0,0.0,0.0,0.0,0.0,0.0,0.0,0.0,0.0,0.0,0.0,0.0,0.0,-5.0392,-4.9618,-5.0086,0.0,0.0,0.0,0.0,-4.9882,-4.9799,0.0,0.0,0.0,0.0,0.0,0.0,0.0,0.0,0.0,0.0,0.0,0.0,0.0,0.0,0.0,0.0,0.0,0.0,0.0,0.0,0.0,0.0,0.0,0.0,0.0,0.0,0.0,0.0,0.0,0.0,0.0,0.0,0.0,0.0,0.0,0.0,0.0,0.0,0.0,0.0,0.0,0.0,0.0,0.0,0.0,0.0,0.0,0.0,0.0,0.0,0.0,0.0,0.0,0.0,0.0,0.0,-4.6815,-4.9403,-5.2056,-5.4606,-5.4834,-5.5164,-5.5801,-5.4142,-5.1863,0.0,0.0,0.0,0.0,0.0,0.0,0.0,0.0,0.0,0.0,0.0,0.0,0.0,0.0,0.0,0.0,0.0,0.0,0.0,0.0,0.0,0.0,0.0,0.0,0.0,0.0,0.0,0.0,0.0,0.0,0.0,0.0,0.0,0.0,0.0,0.0,0.0,0.0,0.0,0.0,0.0,-5.1628,-4.9052,-4.8665,-4.8737,0.0,0.0,-4.9249,-5.3233,-5.3241,0.0,0.0,0.0,0.0,0.0,0.0,0.0,0.0,0.0,0.0,0.0,0.0,0.0,0.0,0.0,0.0,0.0,0.0,0.0,0.0,0.0,0.0,0.0,0.0,0.0,0.0,0.0,0.0,0.0,0.0,0.0,0.0,0.0,0.0,0.0,0.0,0.0,0.0,0.0,0.0,0.0,0.0,0.0,0.0,0.0,0.0,0.0,0.0,0.0,0.0,0.0,0.0,0.0,0.0,0.0,-4.3594,-4.5396,-4.7441,-4.979,-5.2404,-5.2842,-5.3514,-5.4454,-5.2039,-4.9901,0.0,0.0,0.0,0.0,0.0,0.0,0.0,0.0,0.0,0.0,0.0,0.0,0.0,0.0,0.0,0.0,0.0,0.0,0.0,0.0,0.0,0.0,0.0,0.0,0.0,0.0,0.0,0.0,0.0,0.0,0.0,0.0,0.0,0.0,0.0,0.0,0.0,0.0,0.0,0.0,0.0,0.0,-4.7759,-4.8019,0.0,0.0,0.0,-4.8315,-4.9424,0.0,0.0,0.0,0.0,0.0,0.0,0.0,0.0,0.0,0.0,0.0,0.0,0.0,0.0,0.0,0.0,0.0,0.0,0.0,0.0,0.0,0.0,0.0,0.0,0.0,0.0,0.0,0.0,0.0,0.0,0.0,0.0,0.0,0.0,0.0,0.0,0.0,0.0,0.0,0.0,0.0,0.0,0.0,0.0,0.0,0.0,0.0,0.0,0.0,0.0,0.0,0.0,0.0,0.0,0.0,0.0,0.0,-4.4003,-4.6168,-4.8336,-5.0451,-5.1201,-5.2026,-5.3009,-5.0224,0.0,0.0,0.0,0.0,0.0,0.0,0.0,0.0,0.0,0.0,0.0,0.0,0.0,0.0,0.0,0.0,0.0,0.0,0.0,0.0,0.0,0.0,0.0,0.0,0.0,0.0,0.0,-3.7589,0.0,0.0,0.0,0.0,0.0,0.0,0.0,0.0,0.0,0.0,0.0,0.0,0.0,0.0,-4.6013,-4.626,-4.716,-4.7652,0.0,0.0,-4.7812,-4.7139,-4.7887,-4.7573,0.0,0.0,0.0,0.0,0.0,0.0,0.0,0.0,0.0,0.0,0.0,0.0,0.0,0.0,0.0,0.0,0.0,0.0,0.0,0.0,0.0,0.0,0.0,0.0,0.0,0.0,0.0,0.0,0.0,0.0,0.0,0.0,0.0,0.0,0.0,0.0,0.0,0.0,0.0,0.0,0.0,0.0,0.0,0.0,0.0,0.0,0.0,0.0,0.0,0.0,0.0,0.0,0.0,0.0,-4.1788,-4.3233,-4.5894,-4.7974,-4.9464,-5.0127,-5.0968,-5.1924,-4.9817,-4.8062,0.0,0.0,0.0,0.0,0.0,0.0,0.0,0.0,0.0,0.0,0.0,0.0,0.0,0.0,0.0,0.0,0.0,0.0,0.0,0.0,0.0,0.0,0.0,0.0,0.0,0.0,0.0,0.0,0.0,0.0,0.0,0.0,0.0,0.0,0.0,0.0,0.0,0.0,0.0,0.0,0.0,-4.4675,-4.4648,-4.5698,-4.6959,0.0,-4.828,-4.8498,-4.986,-5.1268,-5.0644,-4.5865,0.0,0.0,0.0,0.0,0.0,0.0,0.0,0.0,0.0,0.0,0.0,0.0,0.0,0.0,0.0,0.0,0.0,0.0,0.0,0.0,0.0,0.0,0.0,0.0,0.0,0.0,0.0,0.0,0.0,0.0,0.0,0.0,0.0,0.0,0.0,0.0,0.0,0.0,0.0,0.0,0.0,0.0,0.0,0.0,0.0,0.0,0.0,0.0,0.0,0.0,0.0,0.0,0.0,-4.0223,-4.1539,-4.3355,-4.5439,-4.7767,-4.8451,-4.9487,-5.0968,-4.886,-4.6896,0.0,0.0,0.0,0.0,0.0,0.0,0.0,0.0,0.0,0.0,0.0,0.0,0.0,0.0,0.0,0.0,0.0,0.0,0.0,0.0,0.0,0.0,0.0,0.0,0.0,0.0,0.0,0.0,-3.5888,-3.5638,-3.5881,0.0,0.0,0.0,0.0,0.0,0.0,0.0,0.0,0.0,0.0,-4.3031,-4.4195,-4.5481,0.0,0.0,-4.7084,-4.7159,-4.7773,-4.6982,-4.5656,-4.3822,-4.2481,0.0,0.0,0.0,0.0,0.0,0.0,0.0,0.0,0.0,0.0,0.0,0.0,0.0,0.0,0.0,0.0,0.0,0.0,0.0,0.0,0.0,0.0,0.0,0.0,0.0,0.0,0.0,0.0,0.0,0.0,0.0,0.0,0.0,0.0,0.0,0.0,0.0,0.0,0.0,0.0,0.0,0.0,0.0,0.0,0.0,0.0,0.0,0.0,0.0,0.0,0.0,0.0,-3.9106,-4.0205,-4.1836,-4.3874,-4.6361,-4.7027,-4.8168,-4.9757,-4.7858,-4.5972,0.0,0.0,0.0,0.0,0.0,0.0,0.0,0.0,0.0,0.0,0.0,0.0,0.0,0.0,0.0,0.0,0.0,0.0,0.0,0.0,0.0,0.0,0.0,0.0,0.0,0.0,0.0,0.0,-3.5489,-3.5429,-3.522,0.0,0.0,0.0,0.0,0.0,0.0,0.0,0.0,0.0,0.0,-4.1223,-4.346,-4.4596,-4.5315,-4.5639,-4.5574,-4.5454,-4.5382,-4.4047,-4.2741,-4.2073,0.0,0.0,0.0,0.0,0.0,0.0,0.0,0.0,0.0,0.0,0.0,0.0,0.0,0.0,0.0,0.0,0.0,0.0,0.0,0.0,0.0,0.0,0.0,0.0,0.0,0.0,0.0,-4.0404,0.0,0.0,-3.9403,0.0,0.0,0.0,0.0,0.0,0.0,0.0,0.0,0.0,0.0,0.0,0.0,0.0,0.0,0.0,0.0,0.0,0.0,0.0,0.0,0.0,0.0,-3.8727,-3.9439,-4.1953,-4.3898,-4.5327,-4.6005,-4.7152,-4.8707,-4.6739,-4.546,-4.4979,0.0,0.0,0.0,0.0,0.0,0.0,0.0,0.0,0.0,0.0,0.0,0.0,0.0,0.0,0.0,0.0,0.0,0.0,0.0,0.0,0.0,0.0,0.0,0.0,0.0,0.0,-3.5489,-3.5489,-3.525,0.0,0.0,0.0,0.0,0.0,0.0,0.0,0.0,0.0,-3.617,-3.737,-3.9229,-4.2178,-4.2622,-4.3089,-4.4143,-4.3828,-4.3409,-4.3329,-4.3758,-4.3425,0.0,0.0,0.0,0.0,0.0,0.0,0.0,0.0,0.0,0.0,0.0,0.0,0.0,0.0,0.0,0.0,0.0,0.0,0.0,0.0,0.0,0.0,0.0,0.0,0.0,0.0,0.0,-4.1692,-4.1085,0.0,0.0,0.0,0.0,0.0,0.0,0.0,0.0,0.0,0.0,0.0,-3.902,-4.0015,0.0,0.0,0.0,0.0,0.0,0.0,0.0,0.0,0.0,0.0,0.0,0.0,-3.8512,-4.0038,-4.1354,-4.288,-4.4586,-4.5304,-4.61,-4.711,-4.601,-4.4564,-4.2806,0.0,0.0,0.0,0.0,0.0,0.0,0.0,0.0,0.0,0.0,0.0,0.0,0.0,0.0,0.0,0.0,0.0,0.0,0.0,0.0,0.0,0.0,0.0,0.0,0.0,-3.5489,0.0,0.0,0.0,0.0,0.0,0.0,0.0,0.0,0.0,0.0,-3.3792,-3.4492,-3.6002,-3.693,-3.8186,-4.0083,-4.0731,-4.1114,0.0,0.0,0.0,0.0,0.0,0.0,0.0,0.0,0.0,0.0,0.0,0.0,0.0,0.0,-4.1775,-4.0642,-4.0098,-3.9779,-3.9779,0.0,0.0,0.0,0.0,0.0,0.0,0.0,0.0,0.0,0.0,0.0,0.0,0.0,0.0,-4.2017,-4.1366,-4.1175,0.0,0.0,0.0,0.0,0.0,0.0,0.0,0.0,-4.0021,-3.9868,-3.9036,-4.0037,-4.0059,-3.9258,-3.9104,-3.8781,0.0,0.0,0.0,0.0,0.0,0.0,0.0,0.0,-3.908,-4.0397,-4.1743,-4.303,-4.4287,-4.5214,-4.5753,-4.5933,-4.5095,-4.3666,-4.1601,-3.9833,-3.8244,0.0,0.0,0.0,0.0,0.0,0.0,0.0,0.0,0.0,0.0,0.0,0.0,0.0,0.0,0.0,0.0,0.0,0.0,0.0,0.0,0.0,0.0,0.0,-3.4476,0.0,0.0,0.0,0.0,0.0,0.0,0.0,0.0,0.0,-3.2833,-3.3067,-3.3657,-3.4942,-3.5624,-3.6557,-3.8039,0.0,0.0,0.0,0.0,0.0,0.0,0.0,-3.6819,-3.6847,-3.6463,-3.5916,-3.5272,-3.6962,-3.8353,-3.8103,0.0,0.0,-4.038,-3.9996,-3.9683,-3.9683,-3.8779,-3.8059,-3.8335,-3.824,-3.8185,0.0,0.0,0.0,0.0,-4.1737,0.0,0.0,0.0,-4.2213,-4.2103,0.0,-4.0866,0.0,0.0,0.0,0.0,-3.8103,-3.9782,0.0,0.0,-4.0623,-4.0247,-3.8289,-3.978,-3.9952,-3.9002,-4.0657,-4.0803,-3.941,-3.7664,0.0,0.0,0.0,0.0,0.0,0.0,-4.036,-4.0472,-4.2871,-4.4186,-4.4206,-4.546,-4.5819,-4.512,-4.3916,-4.2634,-4.1406,-4.0084,-3.8835,-3.7524,-3.69,0.0,0.0,0.0,0.0,0.0,0.0,0.0,0.0,0.0,0.0,0.0,0.0,0.0,0.0,0.0,0.0,0.0,0.0,0.0,0.0,-3.3122,0.0,0.0,0.0,0.0,0.0,0.0,0.0,0.0,0.0,-3.1367,-3.1909,-3.2423,-3.2838,-3.3089,0.0,0.0,0.0,0.0,-3.5805,-3.6934,-3.6546,-3.612,-3.6136,-3.7084,-3.7373,-3.6153,0.0,0.0,-3.5558,-3.5762,-3.6309,-3.6645,-3.7365,-3.8492,-4.0718,-4.0141,-3.9421,-3.9331,-3.7931,-3.6899,-3.7369,-3.7126,-3.6934,-4.5857,0.0,0.0,0.0,0.0,-4.3828,-4.4184,-4.5243,-4.4508,-4.3657,-4.2669,-4.2038,0.0,0.0,0.0,0.0,0.0,0.0,-3.9329,-3.9354,-3.9589,-3.9525,-3.922,-3.9702,-3.9778,-3.9448,-3.964,-3.9504,-3.9043,-3.8474,-3.7748,-3.6853,0.0,0.0,0.0,0.0,-3.9217,-4.0567,-4.213,-4.2763,-4.2374,-4.319,-4.3127,-4.2121,-4.2147,-4.1753,-4.0866,-4.0022,-3.9308,-3.8829,-3.7764,0.0,0.0,0.0,0.0,0.0,0.0,0.0,0.0,0.0,0.0,0.0,0.0,0.0,0.0,0.0,0.0,0.0,0.0,0.0,-3.2982,-3.277,-3.2593,0.0,0.0,0.0,0.0,0.0,0.0,0.0,0.0,0.0,-3.0941,-3.1476,-3.2117,0.0,0.0,-3.3021,-3.3938,-3.353,-3.3538,-3.4676,-3.4357,0.0,-3.4512,-3.4512,-3.4357,-3.4004,-3.4589,-3.49,-3.4392,-3.5136,-3.5533,-3.4829,-3.6079,-3.7337,-3.7514,-3.8588,-3.9134,-3.8751,-3.7853,-3.7083,-3.6839,-3.6687,-3.663,-4.7988,-4.6489,-4.4674,-4.4335,-4.4944,-4.4229,-4.4441,-4.5262,-4.4758,-4.399,-4.3063,-4.2531,-4.1263,-3.9547,-3.8879,0.0,0.0,0.0,-3.912,-3.9612,-3.9373,-3.9371,-3.9672,-3.9697,-3.9697,-3.9672,-3.9145,-3.9045,-3.9221,-3.8702,-3.808,-3.7369,0.0,-3.7043,-3.6836,-3.777,-3.888,-4.0222,-4.127,-4.1587,-4.1256,-4.144,-4.1308,-4.083,-4.0907,-4.0773,-4.0322,-3.9671,-3.9048,-3.8504,-3.7266,-3.6164,0.0,0.0,0.0,0.0,0.0,0.0,0.0,0.0,0.0,0.0,0.0,-3.3463,-3.3435,0.0,0.0,0.0,-3.2272,-3.1901,-3.1526,-3.1489,0.0,0.0,0.0,0.0,0.0,0.0,0.0,-2.9184,-2.9521,-3.0005,-3.0532,-3.0884,-3.1411,-3.229,-3.2114,-3.2014,-3.2365,0.0,-3.2139,-3.2817,-3.2616,-3.2591,-3.3144,-3.3144,-3.3136,-3.3136,-3.3144,-3.3119,-3.2986,-3.3504,-3.3803,-3.3741,-3.4854,-3.5972,-3.5971,-3.7435,-3.8476,-3.8063,-3.7494,-3.6926,-3.6537,-3.6332,-3.6165,-5.0193,-4.9414,-4.5723,-4.4141,-4.4066,-4.4041,-4.3714,-4.3288,-4.3689,-4.3539,-4.3011,-4.2464,-4.1307,-3.9672,-3.809,0.0,-3.8165,-3.8693,-3.9246,-3.9697,-3.9697,-3.9697,-3.9697,-3.9697,-3.9697,-3.9697,-3.9221,-3.9195,-3.9622,-3.8642,-3.8115,-3.8064,-3.8501,-3.8378,-3.7836,-3.851,-3.9145,-3.9651,-4.0432,-4.0797,-4.0563,-3.998,-3.9925,-4.0392,-3.9953,-3.9678,-3.9754,-3.9106,-3.8295,-3.722,-3.6006,-3.4765,-3.3569,0.0,0.0,0.0,0.0,0.0,0.0,0.0,0.0,0.0,0.0,0.0,0.0,0.0,0.0,-3.2379,-3.1609,0.0,-2.9895,-2.9779,0.0,0.0,0.0,-2.8084,-2.7964,-2.7964,-2.8004,-2.8084,0.0,0.0,-3.0442,-3.0557,-3.0733,-3.121,-3.1311,-3.1336,-3.1386,-3.1361,-3.1336,-3.1486,-3.1411,-3.1587,-3.2139,-3.2566,-3.2842,-3.286,-3.2491,-3.2014,-3.1537,-3.1427,-3.1782,-3.2489,-3.356,-3.452,-3.5533,-3.6476,-3.7255,-3.7225,-3.6866,-3.6477,-3.639,-3.5941,-3.5554,-5.0996,-5.0695,-4.851,-4.7104,-4.6301,-4.5899,-4.5648,-4.5447,-4.4744,-4.4116,-4.3539,-4.2585,-4.148,-4.0275,-3.9446,-3.917,-3.9295,-3.9421,-3.9572,-3.9697,-3.9697,-3.9697,-3.9697,-3.9697,-3.9697,-3.9672,-3.9572,-3.9572,-3.9697,-3.9421,-3.9069,-3.8693,-3.8834,-3.813,-3.6862,-3.8175,-3.8975,-3.9089,-4.0586,-4.0668,-3.9348,-3.8361,-3.7711,-3.7449,-3.7685,-3.8028,-3.8469,-3.7998,-3.772,-3.7759,-3.6239,-3.4996,-3.4223,-3.339,0.0,0.0,0.0,0.0,0.0,0.0,0.0,0.0,0.0,-3.1536,-3.1536,0.0,-3.0457,0.0,-3.0254,-3.0049,-2.9818,-2.9779,0.0,0.0,-2.8267,-2.7763,-2.6976,-2.6871,-2.7197,-2.8004,-2.8347,-2.8895,-2.9877,-2.998,-3.003,-3.0181,-3.0532,-3.0934,-3.1311,-3.1035,-3.0959,-3.1286,-3.1377,-3.1436,-3.1562,-3.1687,-3.1788,-3.1788,-3.1662,-3.1411,-3.0884,-3.0809,-3.0738,-3.0726,-3.1926,-3.2999,-3.3421,-3.4743,-3.5869,-3.5998,-3.6237,-3.6327,-3.5848,-3.5609,-3.5489,-5.1272,-5.1122,-4.9464,-4.8259,-4.7431,-4.6903,-4.6677,-4.6577,-4.5472,-4.4694,-4.4066,-4.2484,-4.1455,-4.0852,-4.0049,-3.9697,-3.9697,-3.9697,-3.9697,-3.9697,-3.9697,-3.9697,-3.9697,-3.9697,-3.9697,-3.9697,-3.9697,-3.9697,-3.9697,-3.9697,-3.9546,-3.9245,-3.9296,-3.8693,-3.7586,-3.8165,-3.863,-3.8888,-3.9847,-3.9764,-3.8501,-3.7625,-3.7084,-3.6782,-3.6558,-3.651,-3.6586,-3.6063,-3.58,-3.5796,-3.4644,-3.3715,-3.3104,-3.2605,-3.189,0.0,0.0,0.0,0.0,0.0,0.0,0.0,0.0,0.0,0.0,0.0,-2.9779,-2.9779,-2.9779,-2.9779,-2.9779,-2.9326,-2.8806,-2.8164,-2.7215,-2.6397,-2.5797,-2.5755,-2.5964,-2.6562,-2.7522,-2.8347,-2.8964,-2.9482,-2.9779,-2.9779,-3.0055,-3.0357,-3.0583,-3.0407,-3.0357,-3.0633,-3.0683,-3.0783,-3.0984,-3.106,-3.106,-3.1035,-3.0834,-3.0583,-3.0306,-3.0256,-3.0131,-2.9971,-3.097,-3.2128,-3.2585,-3.3768,-3.4935,-3.5451,-3.5789,-3.5878,-3.5579,-3.5489,-3.5489,-5.1222,-5.1021,-4.9439,-4.846,-4.7958,-4.738,-4.6993,-4.6853,-4.5824,-4.497,-4.4192,-4.2283,-4.1326,-4.1125,-4.03,-3.9873,-3.9798,-3.9798,-3.9798,-3.9798,-3.9722,-3.9697,-3.9697,-3.9697,-3.9697,-3.9697,-3.9697,-3.9697,-3.9697,-3.9697,-3.9697,-3.9697,-3.9697,-3.9446,-3.8969,-3.8492,-3.8467,-3.902,-3.8894,-3.8617,-3.8115,-3.7513,-3.7161,-3.7084,-3.6006,-3.5132,-3.458,-3.4098,-3.3571,-3.3136,-3.2466,-3.1805,-3.1223,-3.1368,-3.0881,0.0,-3.0139,0.0,0.0,0.0,0.0,0.0,0.0,0.0,0.0,-2.9702,-2.974,-2.9585,-2.9702,-2.9663,-2.939,-2.8609,-2.7964,-2.7643,-2.5942,-2.4745,-2.4617,-2.4575,-2.466,-2.4787,-2.6521,-2.7723,-2.7884,-2.887,-2.956,-2.9546,-2.9727,-2.9854,-2.9804,-2.9829,-2.9829,-2.9779,-2.9779,-3.008,-3.0407,-3.0507,-3.0507,-3.0457,-3.0181,-2.9804,-2.9829,-2.9804,-2.9804,-2.9856,-3.0582,-3.1462,-3.2272,-3.3227,-3.4279,-3.5067,-3.5389,-3.5549,-3.5519,-3.5489,-3.5489,-5.1021,-5.0469,-4.9289,-4.8711,-4.8535,-4.7556,-4.6627,-4.5748,-4.507,-4.3991,-4.2665,-4.2238,-4.1505,-4.0727,-4.0927,-4.0777,-4.0375,-4.0375,-4.0375,-4.035,-3.9898,-3.9697,-3.9697,-3.9697,-3.9697,-3.9697,-3.9697,-3.9697,-3.9697,-3.9697,-3.9697,-3.9697,-3.9697,-3.9647,-3.9546,0.0,0.0,0.0,-3.9145,-3.8869,-3.8743,-3.7713,-3.696,-3.6556,-3.5454,0.0,-3.4073,-3.352,-3.3237,-3.3043,-3.2089,0.0,0.0,0.0,0.0,0.0,0.0,0.0,0.0,0.0,0.0,0.0,-2.7787,-2.8426,-2.8426,-2.9287,-2.9404,-2.8569,-2.9223,-2.9052,-2.7302,-2.7723,-2.7377,-2.5608,-2.5041,-2.4467,-2.356,-2.341,-2.3757,-2.4702,-2.521,-2.5775,-2.6707,-2.7747,-2.8426,-2.853,-2.9248,-2.974,-2.9779,-2.9779,-2.9779,-2.9779,-2.9779,-2.9829,-2.993,-2.998,-3.0005,-2.993,-2.9905,-2.9779,-2.9779,-2.9779,-2.9779,-2.9843,-3.0545,-3.1204,-3.1499,-3.2834,-3.3945,-3.4245,-3.4905,-3.5489,-3.5489,-3.5489,-3.5489,-5.0946,-5.0318,-4.9238,-4.8611,0.0,-4.7481,-4.6502,-4.5447,-4.4869,-4.3865,-4.2615,-4.2338,-4.1886,-4.1329,-4.1275,-4.0974,-4.0526,-4.0802,-4.0724,-4.0501,-4.0224,-4.0099,-4.0099,-3.9823,-3.9697,-3.9697,-3.9697,-3.9697,-3.9697,-3.9697,-3.9697,-3.9697,-3.9697,-3.9697,-3.9697,-3.9697,-3.9697,-3.9697,-3.9421,-3.927,-3.9245,-3.8442,-3.7764,-3.7161,-3.5855,0.0,0.0,0.0,0.0,0.0,0.0,0.0,0.0,-2.8198,0.0,-2.6588,-2.6707,-2.6688,-2.6505,-2.6483,-2.6254,-2.5714,-2.6149,-2.693,-2.8004,-2.8648,-2.849,-2.7464,-2.7851,-2.773,-2.6648,-2.6502,-2.6025,-2.4914,-2.4296,-2.3714,-2.3212,-2.3101,-2.3343,-2.3887,-2.4467,-2.5041,-2.5588,-2.6625,-2.7481,-2.8004,-2.8609,-2.9184,-2.9663,-2.9779,-2.9779,-2.9779,-2.9779,-2.9779,-2.9779,-2.9779,-2.9779,-2.9779,-2.9779,-2.9779,-2.9779,-2.9779,-2.9779,-2.9818,-3.0216,-3.062,-3.1167,-3.201,-3.2904,-3.3774,-3.438,-3.4938,-3.5359,-3.5489,-3.5489,-5.0946,-5.0318,-4.9213,-4.8435,-4.7857,-4.7355,-4.6451,-4.5296,-4.4719,0.0,0.0,-4.2514,-4.2238,-4.2037,-4.1731,-4.1279,-4.0701,-4.1075,-4.1,-4.0526,-4.0425,-4.0375,-4.035,-3.9898,-3.9697,-3.9697,-3.9697,-3.9697,-3.9697,-3.9697,-3.9697,-3.9697,-3.9697,-3.9697,-3.9697,-3.9697,-3.9697,-3.9697,-3.9697,-3.9697,-3.9672,-3.9069,-3.8442,-3.7864,-3.611,-3.4776,-3.3771,-3.2529,-3.1252,-3.0013,-2.9735,-2.8885,-2.7342,-2.7457,-2.7105,-2.6122,-2.6342,-2.6342,-2.5924,-2.5902,-2.5588,-2.483,-2.4787,-2.5588,-2.74,-2.7683,-2.736,-2.6295,-2.6359,-2.6359,-2.5944,-2.5294,-2.4702,-2.4532,-2.3671,-2.3101,-2.3101,-2.3101,-2.3101,-2.3232,-2.391,-2.4489,-2.4532,-2.5504,-2.6584,-2.7562,-2.8028,-2.8505,-2.9482,-2.9779,-2.9779,-2.9779,-2.9779,-2.9779,-2.9779,-2.9779,-2.9779,-2.9779,-2.9779,-2.9779,-2.9779,-2.9779,-2.9779,-2.9779,-2.9779,-3.0139,-3.0771,-3.1156,-3.1719,-3.322,-3.3671,-3.4075,-3.4938,-3.5231,-3.5231,-5.0946,-5.0318,-4.9238,-4.8435,-4.7857,-4.7355,-4.6225,-4.4719,-4.4166,-4.3313,-4.2363,-4.274,-4.2333,-4.1451,-4.2359,-4.2183,-4.12,-4.125,-4.1,-4.0501,-4.0049,-3.9798,-3.9798,-3.9722,-3.9697,-3.9697,-3.9697,-3.9697,-3.9697,-3.9697,-3.9697,-3.9697,-3.9697,-3.9697,-3.9697,-3.9697,-3.9697,-3.9697,-3.9697,-3.9697,-3.9672,-3.8668,-3.7864,-3.7236,-3.5253,-3.3847,-3.3194,-3.1577,-3.0544,-3.03,-2.9318,-2.8232,-2.704,-2.6586,-2.5695,-2.4355,-2.4222,-2.4062,-2.3644,-2.356,-2.393,-2.4702,-2.4787,-2.4957,-2.5231,-2.6171,-2.6254,-2.521,-2.5839,-2.5694,-2.393,-2.4296,-2.4382,-2.3541,-2.3232,-2.3101,-2.3101,-2.3101,-2.3101,-2.3101,-2.3212,-2.3387,-2.356,-2.4382,-2.5462,-2.6543,-2.7522,-2.8505,-2.9482,-2.9779,-2.9779,-2.9779,-2.9779,-2.9779,-2.9779,-2.9779,-2.9779,-2.9779,-2.9779,-2.9779,-2.9779,-2.9779,-2.9779,-2.9779,-2.9779,-2.9856,-3.0062,-3.0696,-3.123,-3.1792,-3.2307,-3.3087,-3.4041,-3.4245,-3.4543,-5.0946,-5.0343,-4.954,-4.8711,-4.7832,-4.7054,-4.61,-4.507,-4.4493,-4.3639,-4.2715,-4.2861,-4.2685,-4.2258,-4.2434,-4.2313,-4.1756,-4.148,-4.115,-4.0874,-4.04,-4.0149,-4.0099,-3.9848,-3.9697,-3.9697,-3.9697,-3.9697,-3.9697,-3.9697,-3.9697,-3.9697,-3.9697,-3.9697,-3.9697,-3.9697,-3.9697,-3.9697,-3.9697,-3.9212,-3.8194,-3.8364,-3.7742,-3.6162,-3.5208,-3.4209,-3.3012,-3.1629,-3.0108,-2.8545,-2.8005,-2.7034,-2.5635,-2.532,-2.4866,-2.4186,-2.3906,-2.3711,-2.3516,-2.3281,-2.3299,-2.3844,-2.3887,-2.3887,-2.3887,-2.4935,-2.5083,-2.3996,-2.4382,-2.4231,-2.3212,-2.356,-2.3671,-2.3169,-2.3101,-2.3101,-2.3101,-2.3101,-2.3101,-2.3101,-2.3101,-2.3101,-2.3101,-2.356,-2.4296,-2.5462,-2.693,-2.8466,-2.9624,-2.9779,-2.9779,-2.9779,-2.9779,-2.9779,-2.9779,-2.9779,-2.9779,-2.9779,-2.9779,-2.9779,-2.9779,-2.9779,-2.9779,-2.9779,-2.9779,-2.9779,-2.9779,-3.0101,-3.0582,-3.1167,-3.1462,-3.22,-3.301,-3.3602,-3.4312,-5.1021,-5.0569,-4.9866,-4.8937,-4.7832,-4.6903,-4.6125,-4.5472,-4.4995,-4.4192,-4.3237,-4.3037,-4.2986,-4.2936,-4.259,-4.2263,-4.1932,-4.153,-4.115,-4.0874,-4.0526,-4.0325,-4.03,-3.9873,-3.9697,-3.9697,-3.9697,-3.9697,-3.9697,-3.9697,-3.9517,-3.9233,-3.9181,-3.9025,-3.8712,-3.8687,-3.8712,-3.8712,-3.8687,-3.8105,-3.69,-3.7448,-3.6761,-3.4946,-3.4534,-3.3855,-3.2488,-3.1134,-2.9375,-2.726,-2.6775,-2.6026,-2.4773,-2.4609,-2.4531,-2.4394,-2.4023,-2.375,-2.3633,-2.3276,-2.3101,-2.3101,-2.3101,-2.3101,-2.3188,-2.3887,-2.4082,-2.3256,-2.3188,-2.3144,-2.3101,-2.3144,-2.3101,-2.3101,-2.3101,-2.3101,-2.3101,-2.3101,-2.3101,-2.3101,-2.3101,-2.3101,-2.3101,-2.3101,-2.3757,-2.521,-2.6889,-2.8466,-2.9521,-2.9779,-2.9779,-2.9779,-2.9779,-2.9779,-2.9779,-2.9779,-2.9779,-2.9779,-2.9779,-2.9779,-2.9779,-2.9779,-2.9779,-2.9779,-2.9779,-2.9779,-2.9779,-2.9818,-3.0101,-3.0658,-3.082,-3.1193,-3.2119,-3.2982,-3.391,-5.1247,-5.1046,-5.0017,-4.8937,-4.7883,-4.728,-4.6426,-4.5547,-4.5422,-4.4769,-4.3765,-4.3187,-4.2986,-4.2986,-4.2886,-4.2359,-4.153,-4.1326,-4.0827,-3.9998,-3.9798,-3.9772,-3.9798,-3.9722,-3.9697,-3.9697,-3.9697,-3.9697,-3.9697,-3.9645,-3.8973,-3.7849,-3.769,-3.7079,-3.5945,-3.5781,-3.5781,-3.5727,-3.5672,-3.6071,-3.6668,-3.5103,-3.3996,-3.3424,-3.2048,-3.1278,-3.1067,-2.9063,-2.784,-2.7489,-2.6396,-2.5741,-2.5566,-2.5215,-2.4824,-2.4434,-2.4023,-2.3633,-2.3198,-2.312,-2.3101,-2.3101,-2.3101,-2.3101,-2.3101,-2.3232,-2.3212,-2.3101,-2.3101,-2.3101,-2.3101,-2.3101,-2.3101,-2.3101,-2.3101,-2.3101,-2.3101,-2.3101,-2.3101,-2.3101,-2.3101,-2.3101,-2.3101,-2.3101,-2.393,-2.5714,-2.7035,-2.8307,-2.9365,-2.974,-2.9779,-2.9779,-2.9779,-2.9779,-2.9779,-2.9779,-2.9779,-2.9779,-2.9779,-2.9779,-2.9779,-2.9779,-2.9779,-2.9779,-2.9779,-2.9779,-2.9779,-2.9779,-2.9818,-3.0024,-3.0139,-3.0292,-3.1156,-3.2055,-3.301,-5.1071,-5.0695,-4.9916,-4.8937,-4.7857,-4.7004,-4.6401,-4.5974,-4.5623,-4.5221,-4.4719,-4.3865,-4.3288,-4.2961,-4.269,-4.2409,-4.2258,-4.1601,-4.105,-4.0651,-4.035,-4.0023,-3.9722,-3.9697,-3.9697,-3.9697,-3.9697,-3.9697,-3.9517,-3.8844,-3.7636,-3.6379,-3.6217,-3.589,-3.5343,-3.5288,-3.5288,-3.5233,-3.4175,-3.3693,-3.3826,-3.3816,-3.3085,-3.1641,-3.1324,-3.0727,-2.9786,-2.8555,-2.7489,-2.6544,-2.5965,-2.5605,-2.5352,-2.4922,-2.4609,-2.4394,-2.4023,-2.3594,-2.312,-2.3101,-2.3101,-2.3101,-2.3101,-2.3101,-2.3101,-2.3101,-2.3101,-2.3101,-2.3101,-2.3101,-2.3101,-2.3101,-2.3101,-2.3101,-2.3101,-2.3101,-2.3101,-2.3101,-2.3101,-2.3101,-2.3101,-2.3101,-2.3101,-2.3101,-2.38,-2.5252,-2.6461,-2.7585,-2.8609,-2.9326,-2.974,-2.9779,-2.9779,-2.9779,-2.9779,-2.9779,-2.9779,-2.9779,-2.9779,-2.9779,-2.9779,-2.9779,-2.9779,-2.9779,-2.9779,-2.9779,-2.9779,-2.9779,-2.9779,-2.9779,-2.9779,-2.9972,-3.033,-3.1119,-3.1901,-5.082,-5.0368,-4.9816,-4.9038,-4.8083,-4.7154,-4.6652,-4.6476,-4.5949,-4.5648,-4.5372,-4.4443,-4.3714,-4.3162,-4.269,-4.259,-4.2635,-4.1932,-4.148,-4.125,-4.0849,-4.045,-3.9948,-3.9923,-3.9848,-3.9671,-3.9258,-3.8868,-3.8477,-3.7477,-3.6162,-3.4902,-3.4681,-3.4515,-3.4146,-3.409,-3.409,-3.3935,-3.2629,-3.1746,-3.1415,-3.2125,-3.1732,-3.0026,-3.0223,-2.9806,-2.8537,-2.7984,-2.7114,-2.5762,-2.5674,-2.5527,-2.5145,-2.4648,-2.4316,-2.4062,-2.3789,-2.3477,-2.312,-2.3101,-2.3101,-2.3101,-2.3101,-2.3101,-2.3101,-2.3101,-2.3101,-2.3101,-2.3101,-2.3101,-2.3101,-2.3101,-2.3101,-2.3101,-2.3101,-2.3101,-2.3101,-2.3101,-2.3101,-2.3101,-2.3101,-2.3101,-2.3101,-2.3144,-2.3604,-2.4702,-2.5546,-2.6625,-2.7804,-2.8806,-2.9404,-2.9702,-2.9779,-2.9779,-2.9779,-2.9779,-2.9779,-2.9779,-2.9779,-2.9779,-2.9779,-2.9779,-2.9779,-2.9779,-2.9779,-2.9779,-2.9779,-2.9779,-2.9779,-2.9779,-2.9779,-2.9779,-2.9934,-3.0495,-3.0733,-5.0444,-5.0343,-4.9816,-4.9213,-4.8661,-4.8033,-4.7506,-4.6892,-4.6476,-4.5974,-4.5497,-4.4844,-4.4267,-4.374,-4.3162,-4.266,-4.2313,-4.2213,-4.1856,-4.1351,-4.1275,-4.0949,-4.0501,-4.0475,-4.0224,-3.9694,-3.8445,-3.7073,-3.5695,-3.5453,-3.4626,-3.3283,-3.3191,-3.253,-3.1556,-3.1383,-3.117,-3.1383,-3.1129,-3.064,-2.9892,-2.9829,-2.9505,-2.8607,-2.8154,-2.7823,-2.7184,-2.6722,-2.6241,-2.5713,-2.5674,-2.5527,-2.5125,-2.4648,-2.3997,-2.3296,-2.3159,-2.314,-2.3101,-2.3101,-2.3101,-2.3101,-2.3101,-2.3101,-2.3101,-2.3101,-2.3101,-2.3101,-2.3101,-2.3101,-2.3101,-2.3101,-2.3101,-2.3101,-2.3101,-2.3101,-2.3101,-2.3101,-2.3101,-2.3101,-2.3101,-2.3101,-2.3101,-2.3101,-2.3604,-2.4382,-2.483,-2.5608,-2.7296,-2.8004,-2.8688,-2.9404,-2.9702,-2.9779,-2.9779,-2.9779,-2.9779,-2.9779,-2.9779,-2.9779,-2.9779,-2.9779,-2.9779,-2.9779,-2.9779,-2.9779,-2.9779,-2.9779,-2.9779,-2.9779,-2.9779,-2.9779,-2.9779,-2.9779,-2.9985,-5.0544,-4.9841,-4.9289,-4.8736,-4.8184,-4.7631,-4.7104,-4.6602,-4.6401,-4.62,-4.5874,-4.5045,-4.4518,-4.4267,-4.3363,-4.2916,-4.2685,-4.274,-4.2384,-4.1907,-4.1856,-4.158,-4.1025,-4.1,-4.0752,-4.0065,-3.8698,-3.657,-3.409,-3.3901,-3.3134,-3.194,-3.1652,-3.1383,-3.0995,-3.0898,-3.0898,-3.0859,-3.0605,-3.0156,-2.9629,-2.9297,-2.8867,-2.832,-2.8164,-2.7734,-2.7031,-2.6875,-2.6465,-2.5713,-2.5674,-2.5527,-2.5106,-2.4394,-2.3725,-2.3179,-2.3101,-2.3101,-2.3101,-2.3101,-2.3101,-2.3101,-2.3101,-2.3101,-2.3101,-2.3101,-2.3101,-2.3101,-2.3101,-2.3101,-2.3101,-2.3101,-2.3101,-2.3101,-2.3101,-2.3101,-2.3101,-2.3101,-2.3101,-2.3101,-2.3101,-2.3101,-2.3101,-2.3101,-2.3256,-2.3691,-2.4339,-2.5126,-2.5942,-2.7093,-2.8187,-2.8688,-2.9326,-2.9779,-2.9779,-2.9779,-2.9779,-2.9779,-2.9779,-2.9779,-2.9779,-2.9779,-2.9779,-2.9779,-2.9779,-2.9779,-2.9779,-2.9779,-2.9779,-2.9779,-2.9779,-2.9779,-2.9779,-2.9779,-2.9779,-5.0293,-4.959,-4.9188,-4.8812,-4.8385,-4.7682,-4.7179,-4.6778,-4.6476,-4.6326,-4.61,-4.5121,-4.4618,-4.4418,-4.3489,-4.2986,-4.2986,-4.2986,-4.2816,-4.2489,-4.2489,-4.2133,-4.1681,-4.1605,-4.0935,-3.9545,-3.7559,-3.5079,-3.2685,-3.2379,-3.1883,-3.0937,-3.0898,-3.0898,-3.0898,-3.0898,-3.0898,-3.082,-3.0586,-3.0215,-2.9785,-2.9336,-2.8926,-2.8555,-2.8379,-2.7891,-2.7051,-2.7012,-2.6621,-2.583,-2.5674,-2.5469,-2.4863,-2.418,-2.3594,-2.3159,-2.3101,-2.3101,-2.3101,-2.3101,-2.3101,-2.3101,-2.3101,-2.3101,-2.3101,-2.3101,-2.3101,-2.3101,-2.3101,-2.3101,-2.3101,-2.3101,-2.3101,-2.3101,-2.3101,-2.3101,-2.3101,-2.3101,-2.3101,-2.3101,-2.3101,-2.3101,-2.3101,-2.3101,-2.3144,-2.3101,-2.3844,-2.4296,-2.4957,-2.5942,-2.7441,-2.8004,-2.8727,-2.9326,-2.9624,-2.974,-2.974,-2.974,-2.9779,-2.9779,-2.9779,-2.9779,-2.9779,-2.9779,-2.9779,-2.9779,-2.9779,-2.9779,-2.9779,-2.9779,-2.9779,-2.9779,-2.9779,-2.9779,-2.9779,-4.964,-4.959,-4.959,-4.949,-4.9213,-4.8259,-4.7857,-4.7581,-4.6728,-4.6326,-4.615,-4.5121,-4.4618,-4.4392,-4.3463,-4.2986,-4.2986,-4.2986,-4.2961,-4.2911,-4.2911,-4.2579,-4.1993,-4.1913,-4.0489,-3.8107,-3.4834,-3.2592,-3.1229,-3.1132,-3.0995,-3.0957,-3.0898,-3.0898,-3.0898,-3.0898,-3.0898,-3.0879,-3.084,-3.0625,-3.0195,-2.9726,-2.9297,-2.8887,-2.8516,-2.791,-2.709,-2.7031,-2.6621,-2.581,-2.5674,-2.5265,-2.4609,-2.4121,-2.3633,-2.3237,-2.312,-2.312,-2.3101,-2.3101,-2.3101,-2.3101,-2.3101,-2.3101,-2.3101,-2.3101,-2.3101,-2.3101,-2.3101,-2.3101,-2.3101,-2.3101,-2.3101,-2.3101,-2.3101,-2.3101,-2.3101,-2.3101,-2.3101,-2.3101,-2.3101,-2.3101,-2.3101,-2.3101,-2.3101,-2.3144,-2.3212,-2.3584,-2.4382,-2.4999,-2.59,-2.7256,-2.7964,-2.8331,-2.9067,-2.9702,-2.9702,-2.9663,-2.974,-2.9779,-2.9779,-2.9779,-2.9779,-2.9779,-2.9779,-2.9779,-2.9779,-2.9779,-2.9779,-2.9779,-2.9779,-2.9779,-2.9779,-2.9779,-2.9779,-4.959,-4.959,-4.959,-4.9364,-4.8962,-4.8209,-4.7707,-4.7305,-4.6602,-4.6326,-4.61,-4.5121,-4.4618,-4.4367,-4.3489,-4.2986,-4.2986,-4.2986,-4.2986,-4.2986,-4.2986,-4.2301,-4.1314,-4.1096,-3.9346,-3.6391,-3.4395,-3.2752,-3.1486,-3.1035,-3.0898,-3.0898,-3.0898,-3.0898,-3.0898,-3.0898,-3.0898,-3.0898,-3.0898,-3.0664,-3.0215,-2.9785,-2.9355,-2.8945,-2.8496,-2.8027,-2.75,-2.7168,-2.6602,-2.5732,-2.5674,-2.5469,-2.4961,-2.4746,-2.4336,-2.3691,-2.3594,-2.3418,-2.314,-2.3101,-2.3101,-2.3101,-2.3101,-2.3101,-2.3101,-2.3101,-2.3101,-2.3101,-2.3101,-2.3101,-2.3101,-2.3101,-2.3101,-2.3101,-2.3101,-2.3101,-2.3101,-2.3101,-2.3101,-2.3101,-2.3101,-2.3101,-2.3101,-2.3101,-2.3101,-2.3101,-2.3101,-2.3343,-2.3627,-2.4339,-2.483,-2.5734,-2.6378,-2.718,-2.7787,-2.8251,-2.8331,-2.8752,-2.9145,-2.9663,-2.974,-2.9779,-2.9779,-2.9779,-2.9779,-2.9779,-2.9779,-2.9779,-2.9779,-2.9779,-2.9779,-2.9779,-2.9779,-2.9779,-2.9779,-4.949,-4.9314,-4.9289,-4.8962,-4.841,-4.7857,-4.7431,-4.7018,-4.6552,-4.6326,-4.61,-4.5121,-4.4618,-4.4392,-4.3463,-4.3011,-4.2986,-4.2986,-4.2986,-4.2986,-4.2986,-4.215,-4.051,-3.9058,-3.7621,-3.535,-3.3809,-3.2572,-3.1563,-3.1269,-3.1055,-3.0918,-3.0898,-3.0898,-3.0898,-3.0898,-3.0898,-3.0898,-3.0898,-3.0742,-3.0391,-2.9883,-2.9434,-2.9121,-2.8594,-2.8105,-2.7748,-2.7402,-2.6875,-2.6113,-2.5791,-2.5527,-2.5117,-2.5039,-2.4687,-2.4004,-2.375,-2.3594,-2.3159,-2.3101,-2.3101,-2.3101,-2.3101,-2.3101,-2.3101,-2.3101,-2.3101,-2.3101,-2.3101,-2.3101,-2.3101,-2.3101,-2.3101,-2.3101,-2.3101,-2.3101,-2.3101,-2.3101,-2.3101,-2.3101,-2.3101,-2.3101,-2.3101,-2.3101,-2.3101,-2.3101,-2.3101,-2.3101,-2.3212,-2.3714,-2.4168,-2.466,-2.542,-2.6047,-2.6483,-2.6771,-2.6894,-2.7585,-2.8371,-2.9106,-2.9624,-2.974,-2.9779,-2.9779,-2.9779,-2.9779,-2.9779,-2.9779,-2.9779,-2.9779,-2.9779,-2.9779,-2.9779,-2.9779,-2.9779,-4.9289,-4.8812,-4.8786,-4.8485,-4.7908,-4.7405,-4.7118,-4.6993,-4.6552,-4.6326,-4.6075,-4.5121,-4.4618,-4.4392,-4.3463,-4.2986,-4.2986,-4.2986,-4.2986,-4.293,-4.2681,-4.1672,-3.9651,-3.6834,-3.5323,-3.4754,-3.3175,-3.2113,-3.1641,-3.1504,-3.1309,-3.0937,-3.0898,-3.0898,-3.0898,-3.0898,-3.0898,-3.0898,-3.0898,-3.0879,-3.0781,-3.0019,-2.9607,-2.9548,-2.873,-2.8125,-2.7812,-2.7708,-2.7278,-2.6465,-2.5957,-2.5566,-2.5215,-2.5098,-2.4812,-2.3965,-2.3848,-2.3594,-2.3237,-2.3101,-2.3101,-2.3101,-2.3101,-2.3101,-2.3101,-2.3101,-2.3101,-2.3101,-2.3101,-2.3101,-2.3101,-2.3101,-2.3101,-2.3101,-2.3101,-2.3101,-2.3101,-2.3101,-2.3101,-2.3101,-2.3101,-2.3101,-2.3101,-2.3101,-2.3101,-2.3101,-2.3101,-2.3101,-2.3144,-2.343,-2.3714,-2.4145,-2.4595,-2.4787,-2.5189,-2.5274,-2.5526,-2.6295,-2.7157,-2.8028,-2.9209,-2.9546,-2.9779,-2.9779,-2.9779,-2.9779,-2.9779,-2.9779,-2.9779,-2.9779,-2.9779,-2.9779,-2.9779,-2.9779,-2.9779,-4.9264,-4.8786,-4.8786,-4.8435,-4.7857,-4.7355,-4.7068,-4.6993,-4.6527,-4.6326,-4.6075,-4.5121,-4.4618,-4.4493,-4.3489,-4.2986,-4.2986,-4.2986,-4.2986,-4.2793,-4.1728,-3.9639,-3.7183,-3.4985,-3.3891,-3.3769,-3.3102,-3.2402,-3.1992,-3.1719,-3.1348,-3.0918,-3.0918,-3.0898,-3.0898,-3.0898,-3.0898,-3.0898,-3.0898,-3.0898,-3.0762,-3.0039,-2.9646,-2.9548,-2.875,-2.8281,-2.8105,-2.7885,-2.7266,-2.6445,-2.5977,-2.5654,-2.5566,-2.5527,-2.5137,-2.4434,-2.4238,-2.3926,-2.3296,-2.312,-2.3101,-2.3101,-2.3101,-2.3101,-2.3101,-2.3101,-2.3101,-2.3101,-2.3101,-2.3101,-2.3101,-2.3101,-2.3101,-2.3101,-2.3101,-2.3101,-2.3101,-2.3101,-2.3101,-2.3101,-2.3101,-2.3101,-2.3101,-2.3101,-2.3101,-2.3101,-2.3101,-2.3101,-2.3101,-2.3144,-2.343,-2.3343,-2.356,-2.3671,-2.38,-2.3844,-2.4231,-2.4999,-2.5775,-2.6603,-2.8028,-2.9248,-2.9546,-2.9779,-2.9779,-2.9779,-2.9779,-2.9779,-2.9779,-2.9779,-2.9779,-2.9779,-2.9779,-2.9779,-2.9779,-4.9138,-4.841,-4.841,-4.7958,-4.7255,-4.6928,-4.6778,-4.6728,-4.6451,-4.6326,-4.605,-4.5121,-4.4618,-4.4493,-4.3489,-4.2986,-4.2986,-4.2986,-4.2986,-4.2625,-4.065,-3.826,-3.5928,-3.4195,-3.3418,-3.3398,-3.3164,-3.2832,-3.2461,-3.2168,-3.1738,-3.1269,-3.1152,-3.1074,-3.0898,-3.0898,-3.0898,-3.0898,-3.0898,-3.0898,-3.082,-3.0215,-2.9766,-2.9512,-2.8906,-2.8496,-2.8281,-2.7891,-2.7317,-2.6543,-2.6152,-2.5888,-2.5713,-2.5674,-2.541,-2.4746,-2.4687,-2.4375,-2.3809,-2.3516,-2.3418,-2.3379,-2.3237,-2.3101,-2.3101,-2.3101,-2.3101,-2.3101,-2.3101,-2.3101,-2.3101,-2.3101,-2.3101,-2.3101,-2.3101,-2.3101,-2.3101,-2.3101,-2.3101,-2.3101,-2.3101,-2.3101,-2.3101,-2.3101,-2.3101,-2.3101,-2.3101,-2.3101,-2.3101,-2.3101,-2.3101,-2.3101,-2.3101,-2.3299,-2.3387,-2.343,-2.3474,-2.4125,-2.5294,-2.5942,-2.7157,-2.8791,-2.9482,-2.9779,-2.9779,-2.9779,-2.9779,-2.9779,-2.9779,-2.9779,-2.9779,-2.9779,-2.9779,-2.9779,-2.9779,-4.8937,-4.7908,-4.7908,-4.728,-4.6451,-4.6326,-4.6376,-4.6326,-4.6326,-4.625,-4.5974,-4.507,-4.4568,-4.4468,-4.3438,-4.2986,-4.2986,-4.2986,-4.2544,-4.1419,-3.9347,-3.6963,-3.5335,-3.4007,-3.3418,-3.3418,-3.3418,-3.3144,-3.2773,-3.2676,-3.2285,-3.168,-3.1484,-3.1269,-3.1035,-3.0937,-3.0898,-3.0898,-3.0898,-3.0898,-3.082,-3.0391,-3.0,-2.9687,-2.9141,-2.8672,-2.832,-2.793,-2.7454,-2.6582,-2.6465,-2.6191,-2.5859,-2.5752,-2.5488,-2.5184,-2.5028,-2.4805,-2.4434,-2.4004,-2.3809,-2.3711,-2.3418,-2.312,-2.312,-2.3101,-2.3101,-2.3101,-2.3101,-2.3101,-2.3101,-2.3101,-2.3101,-2.3101,-2.3101,-2.3101,-2.3101,-2.3101,-2.3101,-2.3101,-2.3101,-2.3101,-2.3101,-2.3101,-2.3101,-2.3101,-2.3101,-2.3101,-2.3101,-2.3101,-2.3101,-2.3101,-2.3101,-2.3101,-2.3144,-2.3144,-2.3188,-2.3517,-2.4957,-2.5964,-2.6808,-2.8148,-2.9248,-2.9779,-2.9779,-2.9779,-2.9779,-2.9779,-2.974,-2.9779,-2.9779,-2.9779,-2.9779,-2.9779,-2.9779,-4.8937,-4.7908,-4.7908,-4.728,-4.6401,-4.6326,-4.6326,-4.6326,-4.6326,-4.6075,-4.5598,-4.492,-4.4392,-4.3966,-4.3313,-4.2986,-4.2986,-4.2793,-4.1785,-3.9053,-3.7303,-3.5458,-3.4195,-3.3481,-3.3418,-3.3418,-3.3418,-3.3203,-3.2851,-3.2559,-3.2246,-3.2031,-3.1484,-3.1152,-3.1328,-3.1035,-3.0898,-3.0898,-3.0898,-3.0898,-3.082,-3.0469,-3.0156,-2.9941,-2.9297,-2.873,-2.8379,-2.8203,-2.791,-2.7434,-2.6797,-2.6406,-2.6191,-2.5918,-2.5586,-2.5254,-2.5145,-2.4902,-2.4512,-2.4355,-2.4141,-2.3848,-2.3691,-2.3496,-2.312,-2.3101,-2.3101,-2.3101,-2.3101,-2.3101,-2.3101,-2.3101,-2.3101,-2.3101,-2.3101,-2.3101,-2.3101,-2.3101,-2.3101,-2.3101,-2.3101,-2.3101,-2.3101,-2.3101,-2.3101,-2.3101,-2.3101,-2.3101,-2.3101,-2.3101,-2.3101,-2.3101,-2.3101,-2.3101,-2.3101,-2.3101,-2.3101,-2.3299,-2.4553,-2.5504,-2.6419,-2.7602,-2.8688,-2.9404,-2.9779,-2.9779,-2.9663,-2.9585,-2.9507,-2.9663,-2.9663,-2.956,-2.9482,-2.9624,-2.9779,-4.8937,-4.7933,-4.7908,-4.728,-4.6401,-4.6326,-4.6326,-4.6326,-4.6326,-4.5999,-4.5447,-4.4869,-4.4317,-4.3765,-4.3263,-4.2986,-4.2793,-4.215,-4.0592,-3.8342,-3.6599,-3.4964,-3.365,-3.3418,-3.3418,-3.3418,-3.3418,-3.3262,-3.3066,-3.2851,-3.2695,-3.2441,-3.1777,-3.1543,-3.1445,-3.1113,-3.0918,-3.0898,-3.0898,-3.0898,-3.084,-3.0664,-3.0234,-2.9883,-2.9258,-2.8711,-2.834,-2.8301,-2.8164,-2.7851,-2.7344,-2.6777,-2.6445,-2.6172,-2.584,-2.5488,-2.5371,-2.5293,-2.5078,-2.4824,-2.4551,-2.4121,-2.3926,-2.3555,-2.3218,-2.3101,-2.3101,-2.3101,-2.3101,-2.3101,-2.3101,-2.3101,-2.3101,-2.3101,-2.3101,-2.3101,-2.3101,-2.3101,-2.3101,-2.3101,-2.3101,-2.3101,-2.3101,-2.3101,-2.3101,-2.3101,-2.3101,-2.3101,-2.3101,-2.3101,-2.3101,-2.3101,-2.3101,-2.3101,-2.3101,-2.3101,-2.3101,-2.3474,-2.4211,-2.483,-2.542,-2.6789,-2.8187,-2.8688,-2.9184,-2.9482,-2.9443,-2.9365,-2.9067,-2.8846,-2.8806,-2.8924,-2.9145,-2.9326,-2.956,-4.8812,-4.7782,-4.7782,-4.7205,-4.6401,-4.6326,-4.6326,-4.6301,-4.6225,-4.5799,-4.5296,-4.4744,-4.4116,-4.3639,-4.3187,-4.293,-4.2206,-4.088,-3.917,-3.7566,-3.5867,-3.4612,-3.3607,-3.3418,-3.3418,-3.3418,-3.3418,-3.3379,-3.3379,-3.334,-3.3027,-3.2793,-3.2246,-3.1855,-3.1562,-3.1133,-3.0898,-3.0898,-3.0898,-3.0898,-3.0898,-3.082,-3.043,-2.9687,-2.9316,-2.8809,-2.8418,-2.8301,-2.8281,-2.8281,-2.8002,-2.7363,-2.6797,-2.6387,-2.625,-2.5791,-2.5713,-2.5577,-2.5547,-2.5332,-2.498,-2.4551,-2.4141,-2.3711,-2.3379,-2.3159,-2.3101,-2.3101,-2.3101,-2.3101,-2.3101,-2.3101,-2.3101,-2.3101,-2.3101,-2.3101,-2.3101,-2.3101,-2.3101,-2.3101,-2.3101,-2.3101,-2.3101,-2.3101,-2.3101,-2.3101,-2.3101,-2.3101,-2.3101,-2.3101,-2.3101,-2.3101,-2.3101,-2.3101,-2.3101,-2.3101,-2.3101,-2.3299,-2.3953,-2.4168,-2.4467,-2.5126,-2.6378,-2.7884,-2.8466,-2.8767,-2.891,-2.8767,-2.8466,-2.8084,-2.7924,-2.8028,-2.841,-2.8949,-2.9287,-4.8259,-4.7193,-4.7255,-4.6903,-4.6351,-4.6326,-4.6276,-4.6225,-4.5799,-4.5296,-4.4744,-4.4192,-4.3689,-4.3212,-4.3062,-4.2319,-4.1133,-3.9417,-3.7739,-3.6295,-3.4798,-3.365,-3.3544,-3.3418,-3.3398,-3.3418,-3.3379,-3.3359,-3.332,-3.3105,-3.3066,-3.3008,-3.2187,-3.1719,-3.1719,-3.1348,-3.0898,-3.0898,-3.0898,-3.0898,-3.0898,-3.084,-3.0469,-2.9744,-2.9434,-2.9004,-2.8457,-2.8301,-2.8301,-2.8281,-2.8223,-2.791,-2.7402,-2.6797,-2.6406,-2.6191,-2.5898,-2.5674,-2.5654,-2.5615,-2.5371,-2.5,-2.4551,-2.4121,-2.3711,-2.3315,-2.3179,-2.3101,-2.3101,-2.3101,-2.3101,-2.3101,-2.3101,-2.3101,-2.3101,-2.3101,-2.3101,-2.3101,-2.3101,-2.3101,-2.3101,-2.3101,-2.3101,-2.3101,-2.3101,-2.3101,-2.3101,-2.3101,-2.3101,-2.3101,-2.3101,-2.3101,-2.3101,-2.3101,-2.3101,-2.3101,-2.3101,-2.3101,-2.343,-2.343,-2.3604,-2.343,-2.4382,-2.6356,-2.7522,-2.7884,-2.7988,-2.7964,-2.7522,-2.6912,-2.6953,-2.7035,-2.7481,-2.8028,-2.8885,-4.7857,-4.7093,-4.7068,-4.6652,-4.6024,-4.62,-4.5949,-4.5497,-4.5447,-4.4995,-4.4317,-4.389,-4.3489,-4.3087,-4.2986,-4.2093,-4.0313,-3.7732,-3.6424,-3.5436,-3.4195,-3.3418,-3.3398,-3.3398,-3.3262,-3.3144,-3.3086,-3.3223,-3.3359,-3.3008,-3.293,-3.2793,-3.2012,-3.1641,-3.166,-3.1211,-3.0937,-3.0898,-3.0898,-3.0898,-3.0898,-3.0898,-3.041,-2.9824,-2.9531,-2.9121,-2.8476,-2.8301,-2.8301,-2.8301,-2.8301,-2.8184,-2.7812,-2.7226,-2.6602,-2.6387,-2.5996,-2.5674,-2.5674,-2.5674,-2.5508,-2.5165,-2.4844,-2.4434,-2.3965,-2.3594,-2.334,-2.314,-2.3101,-2.3101,-2.3101,-2.3101,-2.3101,-2.3101,-2.3101,-2.3101,-2.3101,-2.3101,-2.3101,-2.3101,-2.3101,-2.3101,-2.3101,-2.3101,-2.3101,-2.3101,-2.3101,-2.3101,-2.3101,-2.3101,-2.3101,-2.3101,-2.3101,-2.3101,-2.3101,-2.3101,-2.3101,-2.3101,-2.3101,-2.3101,-2.3101,-2.3188,-2.4016,-2.5504,-2.6315,-2.6685,-2.683,-2.6707,-2.6213,-2.5797,-2.5755,-2.588,-2.6438,-2.7093,-2.8068,-4.738,-4.6803,-4.6803,-4.6225,-4.5472,-4.5773,-4.5472,-4.4819,-4.497,-4.4618,-4.389,-4.3664,-4.3363,-4.3006,-4.2457,-4.1533,-3.9884,-3.6665,-3.5428,-3.4882,-3.3888,-3.3281,-3.3281,-3.3242,-3.3066,-3.2695,-3.2676,-3.2832,-3.2949,-3.2773,-3.2676,-3.248,-3.1875,-3.1523,-3.1445,-3.1113,-3.0957,-3.0898,-3.0898,-3.0898,-3.0898,-3.0859,-3.0527,-2.9766,-2.9665,-2.9199,-2.8555,-2.834,-2.8301,-2.8301,-2.8301,-2.8281,-2.8144,-2.748,-2.6875,-2.6504,-2.6035,-2.5732,-2.5674,-2.5674,-2.5586,-2.5293,-2.5184,-2.4648,-2.4102,-2.373,-2.3413,-2.3179,-2.3101,-2.3101,-2.3101,-2.3101,-2.3101,-2.3101,-2.3101,-2.3101,-2.3101,-2.3101,-2.3101,-2.3101,-2.3101,-2.3101,-2.3101,-2.3101,-2.3101,-2.3101,-2.3101,-2.3101,-2.3101,-2.3101,-2.3101,-2.3101,-2.3101,-2.3101,-2.3101,-2.3101,-2.3101,-2.3101,-2.3101,-2.3101,-2.3101,-2.3101,-2.4016,-2.4681,-2.4595,-2.4914,-2.521,-2.5504,-2.5168,-2.483,-2.4595,-2.483,-2.5525,-2.6521,-2.7562,-4.6602,-4.5698,-4.5698,-4.5296,-4.4794,-4.4844,-4.4794,-4.4568,-4.4217,-4.3966,-4.3689,-4.3313,-4.3062,-4.2519,-4.1338,-3.9989,-3.8163,-3.617,-3.4554,-3.3928,-3.3332,-3.3008,-3.291,-3.2871,-3.2695,-3.2363,-3.2266,-3.2307,-3.2305,-3.2246,-3.2266,-3.2148,-3.1797,-3.1504,-3.1387,-3.1074,-3.0898,-3.0898,-3.0898,-3.0898,-3.0898,-3.0898,-3.0586,-3.0156,-2.9783,-2.9336,-2.8789,-2.8496,-2.8301,-2.8301,-2.8301,-2.8301,-2.8164,-2.748,-2.709,-2.6719,-2.622,-2.5674,-2.5674,-2.5674,-2.5674,-2.5508,-2.5332,-2.4863,-2.4297,-2.3633,-2.3218,-2.314,-2.3101,-2.3101,-2.3101,-2.3101,-2.3101,-2.3101,-2.3101,-2.3101,-2.3101,-2.3101,-2.3101,-2.3101,-2.3101,-2.3101,-2.3101,-2.3101,-2.3101,-2.3101,-2.3101,-2.3101,-2.3101,-2.3101,-2.3101,-2.3101,-2.3101,-2.3101,-2.3101,-2.3101,-2.3101,-2.3101,-2.3101,-2.3101,-2.3101,-2.3101,-2.3101,-2.356,-2.3517,-2.3757,-2.4382,-2.4553,-2.4211,-2.4016,-2.3844,-2.4211,-2.4745,-2.5817,-2.6871,-4.5924,-4.5472,-4.5146,-4.4669,-4.4242,-4.4493,-4.4242,-4.379,-4.3765,-4.3614,-4.3338,-4.3112,-4.242,-4.1338,-3.9648,-3.8033,-3.6388,-3.4694,-3.3795,-3.3509,-3.3203,-3.3125,-3.3105,-3.2891,-3.2578,-3.2148,-3.1894,-3.1601,-3.1601,-3.1738,-3.1875,-3.2031,-3.1523,-3.1152,-3.1211,-3.0996,-3.0918,-3.0898,-3.0898,-3.0898,-3.0898,-3.0859,-3.0664,-3.0215,-2.9785,-2.9355,-2.8926,-2.8516,-2.832,-2.8301,-2.8301,-2.8164,-2.7891,-2.7363,-2.6934,-2.6602,-2.6094,-2.5713,-2.5674,-2.5674,-2.5674,-2.5654,-2.544,-2.5156,-2.4473,-2.3627,-2.3101,-2.3101,-2.3101,-2.3101,-2.3101,-2.3101,-2.3101,-2.3101,-2.3101,-2.3101,-2.3101,-2.3101,-2.3101,-2.3101,-2.3101,-2.3101,-2.3101,-2.3101,-2.3101,-2.3101,-2.3101,-2.3101,-2.3101,-2.3101,-2.3101,-2.3101,-2.3101,-2.3101,-2.3101,-2.3101,-2.3101,-2.3101,-2.3101,-2.3101,-2.3101,-2.3101,-2.3101,-2.3101,-2.3212,-2.356,-2.3887,-2.38,-2.3627,-2.3387,-2.3144,-2.3584,-2.4125,-2.483,-2.5859,-4.507,-4.502,-4.4593,-4.4091,-4.3639,-4.4041,-4.374,-4.3112,-4.3413,-4.3263,-4.2891,-4.2585,-4.1651,-4.0106,-3.8481,-3.6963,-3.5793,-3.3618,-3.3155,-3.3223,-3.3203,-3.3047,-3.2832,-3.2617,-3.2207,-3.1855,-3.1504,-3.1328,-3.1289,-3.1289,-3.1523,-3.1816,-3.123,-3.0957,-3.0918,-3.0898,-3.0898,-3.0898,-3.0898,-3.0898,-3.0898,-3.0898,-3.0625,-3.0215,-2.9785,-2.9355,-2.8926,-2.8516,-2.8301,-2.8301,-2.8301,-2.8125,-2.7715,-2.7285,-2.6836,-2.6465,-2.5927,-2.5693,-2.5674,-2.5674,-2.5674,-2.5615,-2.5343,-2.4922,-2.4297,-2.351,-2.3101,-2.3101,-2.3101,-2.3101,-2.3101,-2.3101,-2.3101,-2.3101,-2.3101,-2.3101,-2.3101,-2.3101,-2.3101,-2.3101,-2.3101,-2.3101,-2.3101,-2.3101,-2.3101,-2.3101,-2.3101,-2.3101,-2.3081,-2.3081,-2.3081,-2.3081,-2.3081,-2.3081,-2.3101,-2.3101,-2.3101,-2.3101,-2.3101,-2.3101,-2.3101,-2.3101,-2.3101,-2.3101,-2.3101,-2.3212,-2.3517,-2.3299,-2.3101,-2.3101,-2.3101,-2.3101,-2.3517,-2.4168,-2.5041,-4.3915,-4.3915,-4.389,-4.3564,-4.3062,-4.3062,-4.3062,-4.2986,-4.3011,-4.2791,-4.2238,-4.1756,-4.1393,-4.0379,-3.8381,-3.7023,-3.6912,-3.3718,-3.3144,-3.3011,-3.2715,-3.25,-3.2344,-3.2031,-3.1523,-3.1191,-3.1074,-3.1211,-3.1289,-3.1055,-3.1035,-3.0937,-3.0957,-3.0918,-3.0898,-3.0898,-3.0898,-3.0898,-3.0898,-3.0898,-3.0898,-3.0859,-3.0664,-3.0215,-2.9785,-2.9355,-2.8926,-2.8516,-2.8301,-2.8301,-2.8301,-2.8008,-2.7578,-2.7226,-2.6816,-2.6406,-2.6074,-2.5859,-2.5791,-2.5732,-2.5674,-2.546,-2.5117,-2.457,-2.4102,-2.3471,-2.3159,-2.312,-2.3101,-2.3101,-2.3101,-2.3101,-2.3101,-2.3101,-2.3101,-2.3101,-2.3101,-2.3101,-2.3101,-2.3101,-2.3101,-2.3101,-2.3101,-2.3101,-2.3101,-2.3101,-2.3101,-2.3101,-2.3042,-2.3042,-2.3062,-2.3062,-2.3042,-2.3062,-2.3081,-2.3101,-2.3101,-2.3101,-2.3101,-2.3101,-2.3101,-2.3101,-2.3101,-2.3101,-2.3101,-2.3101,-2.3101,-2.3101,-2.3101,-2.3101,-2.3101,-2.3101,-2.3256,-2.38,-2.4766,-4.3614,-4.3313,-4.3288,-4.3162,-4.2986,-4.2986,-4.2986,-4.2911,-4.2665,-4.2158,-4.163,-4.1351,-4.062,-3.9449,-3.8737,-3.6984,-3.566,-3.4724,-3.3778,-3.3254,-3.2871,-3.2598,-3.2344,-3.1875,-3.1445,-3.1211,-3.1055,-3.0937,-3.1055,-3.0957,-3.0918,-3.0898,-3.0898,-3.0898,-3.0898,-3.0898,-3.0898,-3.0898,-3.0898,-3.0898,-3.0898,-3.0879,-3.0664,-3.0215,-2.9785,-2.9375,-2.8945,-2.8516,-2.8359,-2.8301,-2.8301,-2.791,-2.7422,-2.7109,-2.6797,-2.6426,-2.6133,-2.6074,-2.5996,-2.583,-2.5693,-2.5577,-2.5176,-2.4609,-2.4121,-2.375,-2.3398,-2.3218,-2.3101,-2.3101,-2.3101,-2.3101,-2.3101,-2.3101,-2.3101,-2.3101,-2.3101,-2.3101,-2.3101,-2.3101,-2.3101,-2.3101,-2.3101,-2.3101,-2.3101,-2.3101,-2.3101,-2.3081,-2.3042,-2.3003,-2.3023,-2.3023,-2.3003,-2.3023,-2.3062,-2.3081,-2.3101,-2.3101,-2.3101,-2.3101,-2.3101,-2.3101,-2.3101,-2.3101,-2.3101,-2.3101,-2.3101,-2.3101,-2.3101,-2.3101,-2.3101,-2.3101,-2.3299,-2.356,-2.4145,-4.3338,-4.2986,-4.2986,-4.2986,-4.2961,-4.2811,-4.2791,-4.2635,-4.2158,-4.1605,-4.1025,-4.0874,-4.0149,-3.8994,-3.8333,-3.7232,-3.5454,-3.4547,-3.3943,-3.3267,-3.2656,-3.2559,-3.2266,-3.1836,-3.125,-3.125,-3.1094,-3.0918,-3.0937,-3.0898,-3.0898,-3.0898,-3.0898,-3.0898,-3.0898,-3.0898,-3.0898,-3.0898,-3.0898,-3.0898,-3.0898,-3.0879,-3.0527,-3.0078,-2.9687,-2.9238,-2.8809,-2.8418,-2.832,-2.8301,-2.8203,-2.7832,-2.7344,-2.6934,-2.6699,-2.6406,-2.6191,-2.6211,-2.6113,-2.5957,-2.5615,-2.5449,-2.5254,-2.4746,-2.4316,-2.3945,-2.3574,-2.3159,-2.3101,-2.3101,-2.3101,-2.3101,-2.3101,-2.3101,-2.3101,-2.3101,-2.3101,-2.3101,-2.3101,-2.3101,-2.3101,-2.3101,-2.3101,-2.3101,-2.3101,-2.3101,-2.3101,-2.3101,-2.3062,-2.3023,-2.2964,-2.2964,-2.2945,-2.2984,-2.3023,-2.3062,-2.3101,-2.3101,-2.3101,-2.3101,-2.3101,-2.3101,-2.3101,-2.3101,-2.3101,-2.3101,-2.3101,-2.3101,-2.3101,-2.3101,-2.3101,-2.3101,-2.3144,-2.3299,-2.3256,-4.2986,-4.2986,-4.2986,-4.3017,-4.2861,-4.2464,-4.2238,-4.2162,-4.158,-4.1053,-4.0501,-4.0074,-3.9873,-3.9305,-3.8509,-3.7161,-3.5757,-3.4553,-3.361,-3.2848,-3.2148,-3.1953,-3.1777,-3.1445,-3.1035,-3.0937,-3.0898,-3.0898,-3.0898,-3.0898,-3.0898,-3.0898,-3.0898,-3.0898,-3.0898,-3.0898,-3.0898,-3.0898,-3.0898,-3.0898,-3.0898,-3.0879,-3.0449,-2.9961,-2.9648,-2.9219,-2.8691,-2.8398,-2.8301,-2.8301,-2.8301,-2.7891,-2.7246,-2.7051,-2.668,-2.6074,-2.5918,-2.584,-2.5732,-2.5713,-2.5538,-2.5352,-2.5254,-2.4844,-2.4141,-2.3789,-2.3633,-2.3198,-2.3101,-2.3101,-2.3101,-2.3101,-2.3101,-2.3101,-2.3101,-2.3101,-2.3101,-2.3101,-2.3101,-2.3101,-2.3101,-2.3101,-2.3101,-2.3101,-2.3101,-2.3101,-2.3101,-2.3081,-2.3081,-2.2945,-2.2847,-2.2925,-2.2906,-2.2945,-2.3003,-2.3062,-2.3101,-2.3101,-2.3101,-2.3101,-2.3101,-2.3101,-2.3101,-2.3101,-2.3101,-2.3101,-2.3101,-2.3101,-2.3101,-2.3101,-2.3101,-2.3101,-2.3101,-2.3101,-2.3101,-4.2489,-4.2514,-4.2891,-4.276,-4.2489,-4.2313,-4.2011,-4.1555,-4.1028,-4.0475,-4.0023,-3.9747,-3.9697,-3.9465,-3.9074,-3.7792,-3.5972,-3.5577,-3.4519,-3.2389,-3.1738,-3.166,-3.1523,-3.125,-3.0898,-3.0898,-3.0898,-3.0898,-3.0898,-3.0898,-3.0898,-3.0898,-3.0898,-3.0898,-3.0898,-3.0898,-3.0898,-3.0898,-3.0898,-3.0898,-3.0898,-3.0859,-3.0586,-2.998,-2.9726,-2.9277,-2.8691,-2.8457,-2.8301,-2.8301,-2.8301,-2.7988,-2.7441,-2.7246,-2.6875,-2.6484,-2.6367,-2.6172,-2.6074,-2.5927,-2.5654,-2.5527,-2.541,-2.5059,-2.4355,-2.4219,-2.3828,-2.3276,-2.312,-2.3101,-2.3101,-2.3101,-2.3101,-2.3101,-2.3101,-2.3101,-2.3101,-2.3101,-2.3101,-2.3101,-2.3101,-2.3101,-2.3101,-2.3101,-2.3101,-2.3101,-2.3101,-2.3101,-2.3081,-2.2828,-2.2672,-2.2828,-2.2886,-2.2925,-2.2964,-2.3062,-2.3101,-2.3101,-2.3101,-2.3101,-2.3101,-2.3101,-2.3101,-2.3101,-2.3101,-2.3101,-2.3101,-2.3101,-2.3101,-2.3101,-2.3101,-2.3101,-2.3101,-2.3101,-2.3101,-4.1882,-4.1907,-4.2258,-4.2082,-4.1656,-4.1781,-4.148,-4.0802,-4.0375,-4.0023,-3.9747,-3.9697,-3.9697,-3.9697,-3.9515,-3.8152,-3.587,-3.5592,-3.4268,-3.2176,-3.1504,-3.1445,-3.1348,-3.1113,-3.0937,-3.0898,-3.0898,-3.0898,-3.0898,-3.0898,-3.0898,-3.0898,-3.0898,-3.0898,-3.0898,-3.0898,-3.0898,-3.0898,-3.0898,-3.0898,-3.0898,-3.084,-3.0664,-3.0195,-2.9785,-2.9355,-2.8926,-2.8574,-2.8301,-2.8301,-2.8242,-2.8086,-2.7695,-2.7422,-2.709,-2.6816,-2.6426,-2.6172,-2.6016,-2.5937,-2.5674,-2.5635,-2.5674,-2.5245,-2.4648,-2.4394,-2.3842,-2.3393,-2.3159,-2.3101,-2.3101,-2.3101,-2.3101,-2.3101,-2.3101,-2.3101,-2.3101,-2.3101,-2.3101,-2.3101,-2.3101,-2.3101,-2.3101,-2.3101,-2.3101,-2.3101,-2.3101,-2.3101,-2.3101,-2.2886,-2.2691,-2.2828,-2.2945,-2.2984,-2.3023,-2.3062,-2.3101,-2.3101,-2.3101,-2.3101,-2.3101,-2.3101,-2.3101,-2.3101,-2.3101,-2.3101,-2.3101,-2.3101,-2.3101,-2.3101,-2.3101,-2.3101,-2.3101,-2.3101,-2.3101,-4.125,-4.1275,-4.1275,-4.1025,-4.0701,-4.1,-4.0676,-3.9772,-3.9722,-3.9722,-3.9697,-3.9697,-3.9697,-3.9697,-3.9697,-3.8185,-3.5959,-3.5521,-3.3848,-3.2151,-3.1368,-3.1289,-3.123,-3.1074,-3.0937,-3.0898,-3.0898,-3.0898,-3.0898,-3.0898,-3.0898,-3.0898,-3.0898,-3.0898,-3.0898,-3.0898,-3.0898,-3.0898,-3.0898,-3.0898,-3.0898,-3.0879,-3.0684,-3.0312,-2.9922,-2.9492,-2.9062,-2.8672,-2.8418,-2.832,-2.8281,-2.8047,-2.7885,-2.7728,-2.718,-2.6602,-2.6094,-2.5957,-2.5898,-2.5859,-2.5693,-2.5674,-2.5674,-2.5167,-2.4805,-2.4531,-2.4121,-2.3569,-2.3257,-2.3159,-2.3101,-2.3101,-2.3101,-2.3101,-2.3101,-2.3101,-2.3101,-2.3101,-2.3101,-2.3101,-2.3101,-2.3101,-2.3101,-2.3101,-2.3101,-2.3101,-2.3101,-2.3101,-2.3101,-2.3101,-2.2945,-2.2964,-2.3042,-2.3062,-2.3101,-2.3101,-2.3101,-2.3101,-2.3101,-2.3101,-2.3101,-2.3101,-2.3101,-2.3101,-2.3101,-2.3101,-2.3101,-2.3101,-2.3101,-2.3101,-2.3101,-2.3101,-2.3101,-2.3101,-2.3101,-4.0699,-4.0749,-4.1125,-4.0974,-4.0526,-4.0275,-3.9948,-3.9722,-3.9697,-3.9697,-3.9697,-3.9697,-3.9697,-3.9697,-3.9697,-3.8477,-3.7049,-3.5672,-3.4302,-3.2784,-3.1307,-3.1113,-3.0996,-3.0957,-3.0898,-3.0898,-3.0898,-3.0898,-3.0898,-3.0898,-3.0898,-3.0898,-3.0898,-3.0898,-3.0898,-3.0898,-3.0898,-3.0898,-3.0898,-3.0898,-3.0898,-3.0898,-3.0742,-3.0566,-3.0195,-2.9766,-2.9336,-2.8926,-2.8633,-2.834,-2.8301,-2.8184,-2.8164,-2.7832,-2.7344,-2.6894,-2.6484,-2.6211,-2.6152,-2.5898,-2.5674,-2.5674,-2.5674,-2.5449,-2.5059,-2.4766,-2.4453,-2.3867,-2.3496,-2.3374,-2.3179,-2.3101,-2.3101,-2.3101,-2.3101,-2.3101,-2.3101,-2.3101,-2.3101,-2.3101,-2.3101,-2.3101,-2.3101,-2.3101,-2.3101,-2.3101,-2.3101,-2.3101,-2.3101,-2.3101,-2.3101,-2.3101,-2.3101,-2.3101,-2.3101,-2.3101,-2.3101,-2.3101,-2.3101,-2.3101,-2.3101,-2.3101,-2.3101,-2.3101,-2.3101,-2.3101,-2.3101,-2.3101,-2.3101,-2.3101,-2.3101,-2.3101,-2.3101,-2.3101,-2.3101,-4.0174,-4.0224,-4.0551,-4.0501,-4.0174,-3.9848,-3.9697,-3.9697,-3.9697,-3.9697,-3.9697,-3.9697,-3.9697,-3.9697,-3.9594,-3.853,-3.6487,-3.5617,-3.4168,-3.2076,-3.1441,-3.1073,-3.0898,-3.0898,-3.0898,-3.0898,-3.0898,-3.0898,-3.0898,-3.0898,-3.0898,-3.0898,-3.0898,-3.0898,-3.0898,-3.0898,-3.0898,-3.0898,-3.0898,-3.0898,-3.0898,-3.0898,-3.0898,-3.0801,-3.043,-3.0019,-2.959,-2.9141,-2.873,-2.8379,-2.8301,-2.8301,-2.8223,-2.7891,-2.7689,-2.7168,-2.666,-2.6426,-2.6269,-2.5908,-2.5752,-2.5674,-2.5674,-2.5586,-2.5371,-2.5098,-2.4531,-2.3945,-2.3809,-2.3633,-2.3315,-2.3101,-2.3101,-2.3101,-2.3101,-2.3101,-2.3101,-2.3101,-2.3101,-2.3101,-2.3101,-2.3101,-2.3101,-2.3101,-2.3101,-2.3101,-2.3101,-2.3101,-2.3101,-2.3101,-2.3101,-2.3101,-2.3101,-2.3101,-2.3101,-2.3101,-2.3101,-2.3101,-2.3101,-2.3101,-2.3101,-2.3101,-2.3101,-2.3101,-2.3101,-2.3101,-2.3101,-2.3101,-2.3101,-2.3101,-2.3101,-2.3101,-2.3101,-2.3101,-2.3101,-3.9697,-3.9722,-3.9697,-3.9772,-3.9697,-3.9697,-3.9697,-3.9697,-3.9697,-3.9697,-3.9697,-3.9697,-3.9697,-3.9697,-3.9645,-3.8267,-3.678,-3.5836,-3.4292,-3.1228,-3.1498,-3.1325,-3.0957,-3.0898,-3.0898,-3.0898,-3.0898,-3.0898,-3.0898,-3.0898,-3.0898,-3.0898,-3.0898,-3.0898,-3.0898,-3.0898,-3.0898,-3.0898,-3.0898,-3.0898,-3.0898,-3.0898,-3.0879,-3.0801,-3.0449,-3.0,-2.957,-2.916,-2.873,-2.8457,-2.8301,-2.8301,-2.8164,-2.8008,-2.7793,-2.7591,-2.7051,-2.6699,-2.6465,-2.6152,-2.583,-2.5732,-2.5674,-2.5654,-2.5527,-2.5391,-2.4863,-2.4219,-2.4004,-2.3652,-2.3315,-2.314,-2.3101,-2.3101,-2.3101,-2.3101,-2.3101,-2.3101,-2.3101,-2.3101,-2.3101,-2.3101,-2.3101,-2.3101,-2.3101,-2.3101,-2.3101,-2.3101,-2.3101,-2.3101,-2.3101,-2.3101,-2.3101,-2.3101,-2.3101,-2.3101,-2.3101,-2.3101,-2.3101,-2.3101,-2.3101,-2.3101,-2.3101,-2.3101,-2.3101,-2.3101,-2.3101,-2.3101,-2.3101,-2.3101,-2.3101,-2.3101,-2.3101,-2.3101,-2.3101,-3.9697,-3.9697,-3.9697,-3.9697,-3.9697,-3.9697,-3.9697,-3.9697,-3.9697,-3.9697,-3.9697,-3.9697,-3.9697,-3.9697,-3.9697,-3.853,-3.7263,-3.6487,-3.5068,-3.3304,-3.2473,-3.1825,-3.1112,-3.0995,-3.0957,-3.0898,-3.0898,-3.0898,-3.0898,-3.0898,-3.0898,-3.0898,-3.0898,-3.0898,-3.0898,-3.0898,-3.0898,-3.0898,-3.0898,-3.0898,-3.0898,-3.0898,-3.0879,-3.0742,-3.043,-2.998,-2.9551,-2.9141,-2.873,-2.8379,-2.832,-2.8301,-2.8281,-2.8184,-2.8144,-2.8047,-2.7578,-2.7148,-2.6758,-2.6406,-2.6074,-2.5771,-2.5674,-2.5674,-2.5635,-2.5577,-2.5226,-2.4629,-2.4102,-2.373,-2.3437,-2.3257,-2.314,-2.314,-2.3101,-2.3101,-2.3101,-2.3101,-2.3101,-2.3101,-2.3101,-2.3101,-2.3101,-2.3101,-2.3101,-2.3101,-2.3101,-2.3101,-2.3101,-2.3101,-2.3101,-2.3101,-2.3101,-2.3101,-2.3101,-2.3101,-2.3101,-2.3101,-2.3101,-2.3101,-2.3101,-2.3101,-2.3101,-2.3101,-2.3101,-2.3101,-2.3101,-2.3101,-2.3101,-2.3101,-2.3101,-2.3101,-2.3101,-2.3101,-2.3101,-3.9697,-3.9697,-3.9697,-3.9697,-3.9697,-3.9697,-3.9697,-3.9697,-3.9697,-3.9697,-3.9697,-3.9697,-3.9697,-3.9697,-3.9697,-3.8921,-3.769,-3.753,-3.6054,-3.457,-3.3304,-3.2644,-3.1998,-3.117,-3.0957,-3.0898,-3.0898,-3.0898,-3.0898,-3.0898,-3.0898,-3.0898,-3.0898,-3.0898,-3.0898,-3.0898,-3.0898,-3.0898,-3.0879,-3.0879,-3.084,-3.0762,-3.0762,-3.0625,-3.0293,-2.9863,-2.9551,-2.9141,-2.873,-2.8418,-2.8301,-2.8301,-2.8301,-2.8262,-2.8281,-2.8164,-2.7851,-2.748,-2.7031,-2.6621,-2.6191,-2.5849,-2.5674,-2.5674,-2.5674,-2.5596,-2.5449,-2.4844,-2.4414,-2.4043,-2.3887,-2.375,-2.3574,-2.3496,-2.3237,-2.3101,-2.3101,-2.3101,-2.3101,-2.3101,-2.3101,-2.3101,-2.3101,-2.3101,-2.3101,-2.3101,-2.3101,-2.3101,-2.3101,-2.3101,-2.3101,-2.3101,-2.3101,-2.3101,-2.3101,-2.3101,-2.3101,-2.3101,-2.3101,-2.3101,-2.3101,-2.3101,-2.3101,-2.3101,-2.3101,-2.3101,-2.3101,-2.3101,-2.3101,-2.3101,-2.3101,-2.3101,-2.3101,-2.3101,-2.3101,-3.9572,-3.9597,-3.9672,-3.9697,-3.9697,-3.9697,-3.9697,-3.9697,-3.9697,-3.9697,-3.9697,-3.9697,-3.9697,-3.9697,-3.9645,-3.8635,-3.8031,-3.8137,-3.6888,-3.4902,-3.3901,-3.2928,-3.2092,-3.1498,-3.1112,-3.0898,-3.0898,-3.0898,-3.0898,-3.0898,-3.0898,-3.0898,-3.0898,-3.0898,-3.0898,-3.0898,-3.0898,-3.084,-3.082,-3.082,-3.0684,-3.0508,-3.0586,-3.043,-3.0059,-2.9646,-2.9394,-2.9062,-2.8633,-2.8476,-2.8301,-2.8301,-2.8301,-2.8281,-2.8184,-2.8086,-2.7871,-2.7402,-2.6953,-2.6562,-2.6172,-2.583,-2.5732,-2.5674,-2.5674,-2.5586,-2.5391,-2.5195,-2.4766,-2.4453,-2.4297,-2.4062,-2.3887,-2.3691,-2.3398,-2.3101,-2.3101,-2.3101,-2.3101,-2.3101,-2.3101,-2.3101,-2.3101,-2.3101,-2.3101,-2.3101,-2.3101,-2.3101,-2.3101,-2.3101,-2.3101,-2.3101,-2.3101,-2.3101,-2.3101,-2.3101,-2.3101,-2.3101,-2.3101,-2.3101,-2.3101,-2.3101,-2.3101,-2.3101,-2.3101,-2.3101,-2.3101,-2.3101,-2.3101,-2.3101,-2.3101,-2.3101,-2.3101,-2.3101,-2.3101,-3.907,-3.912,-3.9496,-3.9697,-3.9697,-3.9697,-3.9697,-3.9697,-3.9697,-3.9697,-3.9697,-3.9697,-3.9697,-3.9697,-3.9697,-3.9025,-3.819,-3.84,-3.6325,-3.3845,-3.4181,-3.3155,-3.1998,-3.1383,-3.0995,-3.0898,-3.0898,-3.0898,-3.0898,-3.0898,-3.0898,-3.0898,-3.0898,-3.0898,-3.0898,-3.0898,-3.0879,-3.082,-3.0605,-3.0508,-3.0781,-3.0664,-3.0547,-3.0273,-2.9844,-2.9434,-2.9062,-2.8633,-2.8418,-2.832,-2.8301,-2.8301,-2.8301,-2.8262,-2.8144,-2.793,-2.7767,-2.7266,-2.6816,-2.6523,-2.6152,-2.5752,-2.5674,-2.5674,-2.5596,-2.5449,-2.5391,-2.5499,-2.5128,-2.4805,-2.457,-2.418,-2.3926,-2.3711,-2.3457,-2.3218,-2.312,-2.3101,-2.3101,-2.3101,-2.3101,-2.3101,-2.3101,-2.3101,-2.3101,-2.3101,-2.3101,-2.3101,-2.3101,-2.3101,-2.3101,-2.3101,-2.3101,-2.3101,-2.3101,-2.3101,-2.3101,-2.3101,-2.3101,-2.3101,-2.3101,-2.3101,-2.3101,-2.3101,-2.3101,-2.3101,-2.3101,-2.3101,-2.3101,-2.3101,-2.3101,-2.3101,-2.3101,-2.3101,-2.3101]},{"header":{"parameterUnit":"m.s-1","parameterCategory":1,"la1":31.0,"la2":29.5877,"lo1":-88.7671,"lo2":-86.6584,"dy":0.0162,"dx":0.0185,"nx":115,"ny":88,"refTime":"2023-05-11T12:00:00:Z","depth":0,"parameterNumber":3,"parameterNumberName":"V-component_of_WINDS"},"data":[0.0,0.0,0.0,0.0,0.0,0.0,0.0,0.0,0.0,0.0,0.0,0.0,0.0,0.0,0.0,0.0,0.0,0.0,0.0,0.0,0.0,0.0,0.0,0.0,0.0,0.0,0.0,0.0,0.0,0.0,0.0,0.0,0.0,0.0,0.0,0.0,0.0,0.0,0.0,0.0,0.0,0.0,0.0,0.0,0.0,0.0,0.0,0.0,0.0,0.0,0.0,0.0,0.0,0.0,0.0,0.0,0.0,0.0,0.0,0.0,0.0,0.0,0.0,0.0,0.0,0.0,0.0,0.0,0.0,0.0,0.0,0.0,0.0,0.0,0.0,0.0,0.0,0.0,0.0,0.0,0.0,0.0,0.0,0.0,0.0,0.0,0.0,0.0,0.0,0.0,0.0,0.0,0.0,0.0,0.0,0.0,0.0,0.0,0.0,0.0,0.0,0.0,0.0,0.0,0.0,0.0,0.0,0.0,0.0,0.0,0.0,0.0,0.0,0.0,0.0,0.0,0.0,0.0,0.0,0.0,0.0,0.0,0.0,0.0,0.0,0.0,0.0,0.0,0.0,0.0,0.0,0.0,0.0,0.0,0.0,0.0,0.0,0.0,0.0,0.0,0.0,0.0,0.0,0.0,0.0,0.0,0.0,0.0,0.0,0.0,0.0,0.0,0.0,0.0,0.0,0.0,0.0,0.0,0.0,0.0,0.0,0.0,0.0,0.0,0.0,0.0,0.0,0.0,0.0,0.0,0.0,0.0,0.0,0.0,0.0,0.0,0.0,0.0,0.0,0.0,0.0,0.0,0.0,0.0,0.0,0.0,0.0,0.0,0.0,0.0,0.0,0.0,0.0,0.0,0.0,0.0,0.0,0.0,0.0,0.0,0.0,0.0,0.0,0.0,0.0,0.0,0.0,0.0,0.0,0.0,0.0,0.0,0.0,0.0,0.0,0.0,0.0,0.0,0.0,0.0,0.0,0.0,0.0,0.0,0.0,0.0,0.0,0.0,0.0,0.0,0.0,0.0,0.0,0.0,0.0,0.0,0.0,0.0,0.0,0.0,0.0,0.0,0.0,0.0,0.0,0.0,0.0,0.0,0.0,0.0,0.0,0.0,0.0,0.0,0.0,0.0,0.0,0.0,0.0,0.0,0.0,0.0,0.0,0.0,0.0,0.0,0.0,0.0,0.0,0.0,0.0,0.0,0.0,0.0,0.0,0.0,0.0,0.0,0.0,0.0,0.0,0.0,0.0,0.0,0.0,0.0,0.0,0.0,0.0,0.0,0.0,0.0,0.0,0.0,0.0,0.0,0.0,0.0,0.0,0.0,0.0,0.0,0.0,0.0,0.0,0.0,0.0,0.0,0.0,0.0,0.0,0.0,0.0,0.0,0.0,0.0,0.0,0.0,0.0,0.0,0.0,0.0,0.0,0.0,0.0,0.0,0.0,0.0,0.0,0.0,0.0,0.0,0.0,0.0,0.0,0.0,0.0,0.0,0.0,0.0,0.0,0.0,0.0,0.0,0.0,0.0,0.0,0.0,0.0,0.0,0.0,0.0,0.0,0.0,0.0,0.0,0.0,0.0,0.0,0.0,0.0,0.0,0.0,0.0,0.0,0.0,0.0,0.0,0.0,0.0,0.0,0.0,0.0,0.0,0.0,0.0,0.0,0.0,0.0,0.0,0.0,0.0,0.0,0.0,0.0,0.0,0.0,0.0,0.0,0.0,0.0,0.0,0.0,0.0,0.0,0.0,0.0,0.0,0.0,0.0,0.0,0.0,0.0,0.0,0.0,0.0,0.0,0.0,0.0,0.0,0.0,0.0,0.0,0.0,0.0,0.0,0.0,0.0,0.0,0.0,0.0,0.0,0.0,0.0,0.0,0.0,0.0,0.0,0.0,0.0,0.0,0.0,0.0,0.0,0.0,0.0,0.0,0.0,0.0,0.0,0.0,0.0,0.0,0.0,0.0,0.0,0.0,0.0,0.0,0.0,0.0,0.0,0.0,0.0,0.0,0.0,0.0,0.0,0.0,0.0,0.0,0.0,0.0,0.0,0.0,0.0,0.0,0.0,0.0,0.0,0.0,0.0,0.0,0.0,0.0,0.0,0.0,0.0,0.0,0.0,0.0,0.0,0.0,0.0,0.0,0.0,0.0,0.0,0.0,0.0,0.0,0.0,0.0,0.0,0.0,0.0,0.0,0.0,0.0,0.0,0.0,0.0,0.0,0.0,0.0,0.0,0.0,0.0,0.0,0.0,0.0,0.0,0.0,0.0,0.0,0.0,0.0,0.0,0.0,0.0,0.0,0.0,0.0,0.0,0.0,0.0,0.0,0.0,0.0,0.0,0.0,0.0,0.0,0.0,0.0,0.0,0.0,0.0,0.0,0.0,0.0,0.0,0.0,0.0,0.0,0.0,0.0,0.0,0.0,0.0,0.0,0.0,0.0,0.0,0.0,0.0,0.0,0.0,0.0,0.0,0.0,0.0,0.0,0.0,0.0,0.0,0.0,0.0,0.0,0.0,0.0,0.0,0.0,0.0,0.0,0.0,0.0,0.0,0.0,0.0,0.0,0.0,0.0,0.0,0.0,0.0,0.0,0.0,0.0,0.0,0.0,0.0,0.0,0.0,0.0,0.0,0.0,0.0,0.0,0.0,0.0,0.0,0.0,0.0,0.0,0.0,0.0,0.0,0.0,0.0,0.0,0.0,0.0,0.0,0.0,0.0,0.0,0.0,0.0,0.0,0.0,0.0,0.0,0.0,0.0,0.0,0.0,0.0,0.0,0.0,0.0,0.0,0.0,0.0,0.0,0.0,0.0,0.0,0.0,0.0,0.0,0.0,0.0,0.0,0.0,0.0,0.0,0.0,0.0,0.0,0.0,0.0,0.0,0.0,0.0,0.0,0.0,0.0,0.0,0.0,0.0,0.0,0.0,0.0,0.0,0.0,0.0,0.0,0.0,0.0,0.0,0.0,0.0,0.0,0.0,0.0,0.0,0.0,0.0,0.0,0.0,0.0,0.0,0.0,0.0,0.0,0.0,0.0,0.0,0.0,0.0,0.0,0.0,0.0,0.0,0.0,0.0,0.0,0.0,0.0,0.0,0.0,0.0,0.0,0.0,0.0,0.0,0.0,0.0,0.0,0.0,0.0,0.0,0.0,0.0,0.0,0.0,0.0,0.0,0.0,0.0,0.0,0.0,0.0,0.0,0.0,0.0,0.0,0.0,0.0,0.0,0.0,0.0,0.0,0.0,0.0,0.0,0.0,0.0,0.0,0.0,0.0,0.0,0.0,0.0,0.0,0.0,0.0,0.0,0.0,0.0,0.0,0.0,0.0,0.0,0.0,0.0,0.0,0.0,0.0,0.0,0.0,0.0,0.0,0.0,0.0,0.0,0.0,0.0,0.0,0.0,0.0,0.0,0.0,0.0,0.0,0.0,0.0,0.0,0.0,0.0,0.0,0.0,0.0,0.0,0.0,0.0,0.0,0.0,0.0,0.0,0.0,0.0,0.0,0.0,0.0,0.0,0.0,0.0,0.0,0.0,0.0,0.0,0.0,0.0,0.0,0.0,0.0,0.0,0.0,0.0,0.0,0.0,0.0,0.0,0.0,0.0,0.0,0.0,0.0,0.0,0.0,0.0,0.0,0.0,0.0,0.0,0.0,0.0,0.0,0.0,0.0,0.0,0.0,0.0,0.0,0.0,0.0,0.0,0.0,0.0,0.0,0.0,0.0,0.0,0.0,0.0,0.0,0.0,0.0,0.0,0.0,0.0,0.0,0.0,0.0,0.0,0.0,0.0,0.0,0.0,0.0,0.0,0.0,0.0,0.0,0.0,0.0,0.0,0.0,0.0,0.0,0.0,0.0,0.0,0.0,0.0,0.0,0.0,0.0,0.0,0.0,0.0,0.0,0.0,0.0,0.0,0.0,0.0,0.0,0.0,0.0,0.0,0.0,0.0,0.0,0.0,0.0,0.0,0.0,0.0,0.0,0.0,0.0,0.0,0.0,0.0,0.0,0.0,0.0,0.0,0.0,0.0,0.0,0.0,0.0,0.0,0.0,0.0,0.0,0.0,0.0,0.0,0.0,0.0,0.0,0.0,0.0,0.0,0.0,0.0,0.0,0.0,0.0,0.0,0.0,0.0,0.0,0.0,0.0,0.0,0.0,0.0,0.0,0.0,0.0,0.0,0.0,0.0,0.0,0.0,0.0,0.0,0.0,0.0,0.0,0.0,0.0,0.0,0.0,0.0,0.0,0.8615,0.0,0.0,0.0,0.8015,0.0,0.0,0.0,0.0,0.0,0.0,0.0,0.0,0.0,0.0,0.0,0.0,0.0,0.0,0.0,0.0,0.0,0.0,0.0,0.0,0.0,0.0,0.0,0.0,0.0,0.0,0.0,0.0,0.0,0.0,0.0,0.0,0.0,0.0,0.0,0.0,0.0,0.0,0.0,0.0,0.0,0.0,0.0,0.0,0.0,0.0,0.0,0.0,0.0,0.0,0.0,0.0,0.0,0.0,0.0,0.0,0.0,0.0,0.0,0.0,0.0,0.0,0.0,0.0,0.0,0.0,0.0,0.0,0.0,0.0,0.0,0.0,0.0,0.0,0.0,0.0,0.0,0.0,0.0,0.0,0.0,0.0,0.0,0.0,0.0,0.0,0.0,0.0,0.0,0.0,0.0,0.0,0.0,0.0,0.0,0.0,0.0,0.0,0.0,0.0,0.0,0.0,0.0,0.0,0.0,0.0,0.0,0.0,0.0,0.0,0.8608,0.8187,0.8601,0.8621,0.8187,0.0,0.0,0.0,0.0,0.0,0.0,0.0,0.0,0.0,0.0,0.0,0.0,0.0,0.0,0.0,0.0,0.0,0.0,0.0,0.0,0.0,0.0,0.0,0.0,0.0,0.0,0.0,0.0,0.0,0.0,0.0,0.0,0.0,0.0,0.0,0.0,0.0,0.0,0.0,0.0,0.0,0.0,0.0,0.0,0.0,0.0,0.0,0.0,0.0,0.0,0.0,0.0,0.0,0.0,0.0,0.0,0.0,0.0,0.0,0.0,0.0,0.0,0.0,0.0,0.0,0.0,0.0,0.0,0.0,0.0,0.0,0.0,0.0,0.0,0.0,0.0,0.0,0.0,0.0,0.0,0.0,0.0,0.0,0.0,0.0,0.0,0.0,0.0,0.0,0.0,0.0,0.0,0.0,0.0,0.0,0.0,0.0,0.0,0.0,0.0,0.0,0.0,0.0,0.0,0.0,0.0,0.0,0.0,0.0,0.0,0.0,0.0,0.8703,0.8764,0.8436,0.0,0.0,0.0,0.0,0.0,0.0,0.0,0.0,0.0,0.0,0.0,0.0,0.0,0.0,0.0,0.0,0.0,0.0,0.0,0.0,0.0,0.0,0.0,0.0,0.0,0.0,0.0,0.0,0.0,0.0,0.0,0.0,0.0,0.0,0.0,0.0,0.0,0.0,0.0,0.0,0.0,0.0,0.0,0.0,0.0,0.0,0.0,0.0,0.0,0.0,0.0,0.0,0.0,0.0,0.0,0.0,0.0,0.0,0.0,0.0,0.0,0.0,0.0,0.0,0.0,0.0,0.0,0.0,0.0,0.0,0.0,0.0,0.0,0.0,0.0,0.0,0.0,0.0,0.0,0.0,0.0,0.0,0.0,0.0,0.0,0.0,0.0,0.0,0.0,0.0,0.0,0.0,0.0,0.0,0.0,0.0,0.0,0.0,0.0,0.0,0.0,0.0,0.0,0.0,0.0,0.0,0.0,0.0,0.0,0.0,0.8492,0.8866,0.8865,0.0,0.8669,0.0,0.0,0.0,0.0,0.0,0.0,0.0,0.0,0.0,0.0,0.0,0.0,0.0,0.0,0.0,0.0,0.0,0.0,0.0,0.0,0.0,0.0,0.0,0.0,0.0,0.0,0.0,0.0,0.0,0.0,0.0,0.0,0.0,0.0,0.0,0.0,0.0,0.0,0.0,0.0,0.0,0.0,0.0,0.0,0.0,0.0,0.0,0.0,0.0,0.0,0.0,0.0,0.0,0.0,0.0,0.0,0.0,0.0,0.0,0.0,0.0,0.0,0.0,0.0,0.0,0.0,0.0,0.0,0.0,0.0,0.0,0.0,0.0,0.0,0.0,0.0,0.0,0.0,0.0,0.0,0.0,0.0,0.0,0.0,0.0,0.0,0.0,0.0,0.0,0.0,0.0,0.0,0.0,0.0,0.0,0.0,0.0,0.0,0.0,0.0,0.0,0.0,0.0,0.0,0.0,0.0,0.0,0.0,0.0,0.0,0.8567,0.8933,0.894,0.8784,0.0,0.0,0.0,0.0,0.0,0.0,0.0,0.0,0.0,0.0,0.0,0.0,0.0,0.0,0.0,0.0,0.0,0.0,0.0,0.0,0.0,0.0,0.0,0.0,0.0,0.0,0.0,0.0,0.0,0.0,0.0,0.0,0.0,0.0,0.0,0.0,0.0,0.0,0.0,0.0,0.0,0.0,0.0,0.0,0.0,0.0,0.0,0.0,0.0,0.0,0.0,0.0,0.0,0.0,0.0,0.0,0.0,0.0,0.0,0.0,0.0,0.0,0.0,0.0,0.0,0.0,0.0,0.0,0.0,0.0,0.0,0.0,0.0,0.0,0.0,0.0,0.0,0.0,0.0,0.0,0.0,0.0,0.0,0.0,0.0,0.0,0.0,0.0,0.0,0.0,0.0,0.0,0.0,0.0,0.0,0.0,0.0,0.0,0.0,0.0,0.0,0.0,0.0,0.0,0.0,0.0,0.0,0.0,0.0,0.0,0.852,0.871,0.9028,0.8844,0.8676,0.8397,0.0,0.0,0.0,0.0,0.0,0.0,0.0,0.0,0.0,0.0,0.0,0.0,0.0,0.0,0.0,0.0,0.0,0.0,0.0,0.0,0.0,0.0,0.0,0.0,0.0,0.0,0.0,0.0,0.0,0.0,0.0,0.0,0.0,0.0,0.0,0.0,0.0,0.0,0.0,0.0,0.0,0.0,0.0,0.0,0.0,0.0,0.0,0.0,0.0,0.0,0.0,0.0,0.0,0.0,0.0,0.0,0.0,0.0,0.0,0.0,0.0,0.0,0.0,0.0,0.0,0.0,0.0,0.0,0.0,0.0,0.0,0.0,0.0,0.0,0.0,0.0,0.0,0.0,0.0,0.0,0.0,0.0,0.0,0.0,0.0,0.0,0.0,0.0,0.0,0.0,0.0,0.0,0.0,0.0,0.0,0.0,0.0,0.0,0.0,0.0,0.0,0.0,0.0,0.0,0.0,0.0,0.0,0.0,0.9507,0.8974,0.8913,0.9327,0.8804,0.856,0.0,0.0,0.0,0.0,0.0,0.0,0.0,0.0,0.0,0.0,0.0,0.0,0.0,0.0,0.0,0.0,0.0,0.0,0.0,0.0,0.0,0.0,0.0,0.0,0.0,0.0,0.0,0.0,0.0,0.0,0.0,0.0,0.0,0.0,0.0,0.0,0.0,0.0,0.0,0.0,0.0,0.0,0.0,0.0,0.0,0.0,0.0,0.0,0.0,0.0,0.0,0.0,0.0,0.0,0.0,0.0,0.0,0.0,0.0,0.0,0.0,0.0,0.0,0.0,0.0,0.0,0.0,0.0,0.0,0.0,0.0,0.0,0.0,0.0,0.0,0.0,0.0,0.0,0.0,0.0,0.0,0.0,0.0,0.0,0.0,0.0,0.0,0.0,0.0,0.0,0.0,0.0,0.0,0.0,0.0,0.0,0.0,0.0,0.0,0.0,0.0,0.0,0.0,0.0,0.0,0.0,0.0,0.0,0.0,0.8634,0.8669,0.8872,0.9262,0.8838,0.8969,0.0,0.0,0.0,0.0,0.0,0.0,0.0,0.0,0.0,0.0,0.0,0.0,0.0,0.0,0.0,0.0,0.0,0.0,0.0,0.0,0.0,0.0,0.0,0.0,0.0,0.0,0.0,0.0,0.0,0.0,0.0,0.0,0.0,0.0,0.0,0.0,0.0,0.0,0.0,0.0,0.0,0.0,0.0,0.0,0.0,0.0,0.0,0.0,0.0,0.0,0.0,0.0,0.0,0.0,0.0,0.0,0.0,0.0,0.0,0.0,0.0,0.0,0.0,0.0,0.0,0.0,0.0,0.0,0.0,0.0,0.0,0.0,0.0,0.0,0.0,0.0,0.0,0.0,0.0,0.0,0.0,0.0,0.0,0.0,0.0,0.0,0.0,0.0,0.0,0.0,0.0,0.0,0.0,0.0,0.0,0.0,0.0,0.0,0.0,0.0,0.0,0.0,0.0,0.0,0.0,0.0,0.0,0.0,0.0,0.8525,0.0,0.9178,0.9211,0.894,0.9197,0.0,0.0,0.0,0.0,0.0,0.0,0.0,0.0,0.0,0.0,0.0,0.0,0.0,0.0,0.0,0.0,0.0,0.0,0.0,0.0,0.0,0.0,0.0,0.0,0.0,0.0,0.0,0.0,0.0,0.0,0.0,0.0,0.0,0.0,0.0,0.0,0.0,0.0,0.0,0.0,0.0,0.0,0.0,0.0,0.0,0.0,0.0,0.0,0.0,0.0,0.0,0.0,0.0,0.0,0.0,0.0,0.0,0.0,0.0,0.0,0.0,0.0,0.0,0.0,0.0,0.0,0.0,0.0,0.0,0.0,0.0,0.0,0.0,0.0,0.0,0.0,0.0,0.0,0.0,0.0,0.0,0.0,0.0,0.0,0.0,0.0,0.0,0.0,0.0,0.0,0.0,0.0,0.0,0.0,0.0,0.0,0.0,0.0,0.0,0.0,0.0,0.0,0.0,0.0,0.0,0.0,0.0,0.0,1.1052,0.9435,0.9707,0.9721,0.9401,0.9089,0.9118,0.0,0.0,0.0,0.0,0.0,0.0,0.0,0.0,0.0,0.0,0.0,0.0,0.0,0.0,0.0,0.0,0.0,0.0,0.0,0.0,0.0,0.0,0.0,0.0,0.0,0.0,0.0,0.0,0.0,0.0,0.0,0.0,0.0,0.0,0.0,0.0,0.0,0.0,0.0,0.0,0.0,0.0,0.0,0.0,0.0,0.0,0.0,0.0,0.0,0.0,0.0,0.0,0.0,0.0,0.0,0.0,0.0,0.0,0.0,0.0,0.0,0.0,0.0,0.0,0.0,0.0,0.0,0.0,0.0,0.0,0.0,0.0,0.0,0.0,0.0,0.0,0.0,0.0,0.0,0.0,0.0,0.0,0.0,0.0,0.0,0.0,0.0,0.0,0.0,0.0,0.0,0.0,0.0,0.0,0.0,0.0,0.0,0.0,0.0,0.0,0.0,0.0,0.0,0.0,0.0,0.0,0.0,0.0,0.0,0.8879,0.93,0.9666,0.9808,0.915,0.9783,0.0,0.0,0.0,0.0,0.0,0.0,0.0,0.0,0.0,0.0,0.0,0.0,0.0,0.0,0.0,0.0,0.0,0.0,0.0,0.0,0.0,0.0,0.0,0.0,0.0,0.0,0.0,0.0,0.0,0.0,0.0,0.0,0.0,0.0,0.0,0.0,0.0,0.0,0.0,0.0,0.0,0.0,0.0,0.0,0.0,0.0,0.0,0.0,0.0,0.0,0.0,0.0,0.0,0.0,0.0,0.0,0.0,0.0,0.0,0.0,0.0,0.0,0.0,0.0,0.0,0.0,0.0,0.0,0.0,0.0,0.0,0.0,0.0,0.0,0.0,0.0,0.0,0.0,0.0,0.0,0.0,0.0,0.0,0.0,0.0,0.0,0.0,0.0,0.0,0.0,0.0,0.0,0.0,0.0,0.0,0.0,0.0,0.0,0.0,0.0,0.0,0.0,0.0,0.0,0.0,0.0,0.0,0.0,0.0,0.9064,0.951,0.9849,0.9903,0.9767,1.0594,1.2526,0.0,0.0,0.0,0.0,0.0,0.0,0.0,0.0,0.0,0.0,0.0,0.0,0.0,0.0,0.0,0.0,0.0,0.0,0.0,0.0,0.0,0.0,0.0,0.0,0.0,0.0,0.0,0.0,0.0,0.0,0.0,0.0,0.0,0.0,0.0,0.0,0.0,0.0,0.0,0.0,0.0,0.0,0.0,0.0,0.0,0.0,0.0,0.0,0.0,0.0,0.0,0.0,0.0,0.0,0.0,0.0,0.0,0.0,0.0,0.0,0.0,0.0,0.0,0.0,0.0,0.0,0.0,0.0,0.0,0.0,0.0,0.0,0.0,0.0,0.0,0.0,0.0,0.0,0.0,0.0,0.0,0.0,0.0,0.0,0.0,0.0,0.0,0.0,0.0,0.0,0.0,0.0,0.0,0.0,0.0,0.0,0.0,0.0,0.0,0.0,0.0,0.0,0.0,0.0,0.0,0.0,0.0,0.0,1.0154,1.0601,1.0629,1.0087,1.0848,1.1594,0.0,0.0,0.0,0.0,0.0,0.0,0.0,0.0,0.0,0.0,0.0,0.0,0.0,0.0,0.0,0.0,0.0,0.0,0.0,0.0,0.0,0.0,0.0,0.0,0.0,0.0,0.0,0.0,0.0,0.0,0.0,0.0,0.0,0.0,0.0,0.0,0.0,0.0,0.0,0.0,0.0,0.0,0.0,0.0,0.0,0.0,0.0,0.0,0.0,0.0,0.0,0.0,0.0,0.0,0.0,0.0,0.0,0.0,0.0,0.0,0.0,0.0,0.0,0.0,0.0,0.0,0.0,0.0,0.0,0.0,0.0,0.0,0.0,0.0,0.0,0.0,0.0,0.0,0.0,0.0,0.0,0.0,0.0,0.0,0.0,0.0,0.0,0.0,0.0,0.0,0.0,0.0,0.0,0.0,0.0,0.0,0.0,0.0,0.0,0.0,0.0,0.0,0.0,0.0,0.0,0.0,0.0,0.0,0.0,1.437,1.4725,1.4238,1.258,1.1866,1.26,0.0,0.0,0.0,0.0,0.0,0.0,0.0,0.0,0.0,0.0,0.0,0.0,0.0,0.0,0.0,0.0,0.0,0.0,0.0,0.0,0.0,0.0,0.0,0.0,0.0,0.0,0.0,0.0,0.0,0.0,0.0,0.0,0.0,0.0,0.0,0.0,0.0,0.0,0.0,0.0,0.0,0.0,0.0,0.0,0.0,0.0,0.0,0.0,0.0,0.0,0.0,0.0,0.0,0.0,0.0,0.0,0.0,0.0,0.0,0.0,0.0,0.0,0.0,0.0,0.0,0.0,0.0,0.0,0.0,0.0,0.0,0.0,0.0,0.0,0.0,0.0,0.0,0.0,0.0,0.0,0.0,0.0,0.0,0.0,0.0,0.0,0.0,0.0,0.0,0.0,0.0,0.0,0.0,0.0,0.0,0.0,0.0,0.0,0.0,0.0,0.0,0.0,0.0,0.0,0.0,0.0,0.0,0.0,1.6612,1.61,1.6573,1.649,1.5931,1.4866,1.4844,0.0,0.0,0.0,0.0,0.0,0.0,0.0,0.0,0.0,0.0,0.0,0.0,0.0,0.0,0.0,0.0,0.0,0.0,0.0,0.0,0.0,0.0,0.0,0.0,0.0,0.0,0.0,0.0,0.0,0.0,0.0,0.0,0.0,0.0,0.0,0.0,0.0,0.0,0.0,0.0,0.0,0.0,0.0,0.0,0.0,0.0,0.0,0.0,0.0,0.0,0.0,0.0,0.0,0.0,0.0,0.0,0.0,0.0,0.0,0.0,0.0,0.0,0.0,0.0,0.0,0.0,0.0,0.0,0.0,0.0,0.0,0.0,0.0,0.0,0.0,0.0,0.0,0.0,0.0,0.0,0.0,0.0,0.0,0.0,0.0,0.0,0.0,0.0,0.0,0.0,0.0,0.0,0.0,0.0,0.0,0.0,0.0,0.0,0.0,0.0,0.0,0.0,0.0,0.0,0.0,0.0,0.0,0.0,1.7366,1.6994,1.7402,1.8211,1.9444,1.8588,1.7385,0.0,0.0,0.0,0.0,0.0,0.0,0.0,0.0,0.0,0.0,0.0,0.0,0.0,0.0,0.0,0.0,0.0,0.0,0.0,0.0,0.0,0.0,0.0,0.0,0.0,0.0,0.0,0.0,0.0,0.0,0.0,0.0,0.0,0.0,0.0,0.0,0.0,0.0,0.0,0.0,0.0,0.0,0.0,0.0,0.0,0.0,0.0,0.0,0.0,0.0,0.0,0.0,0.0,0.0,0.0,0.0,0.0,0.0,0.0,0.0,0.0,0.0,0.0,0.0,0.0,0.0,0.0,0.0,0.0,0.0,0.0,0.0,0.0,0.0,0.0,0.0,0.0,0.0,0.0,0.0,0.0,0.0,0.0,0.0,0.0,0.0,0.0,0.0,0.0,0.0,0.0,0.0,0.0,0.0,0.0,0.0,0.0,0.0,0.0,0.0,0.0,0.0,0.0,0.0,0.0,0.0,0.0,0.0,2.0231,2.0793,2.1365,2.1654,2.1709,1.9015,1.7649,0.0,0.0,0.0,0.0,0.0,0.0,0.0,0.0,0.0,0.0,0.0,0.0,0.0,0.0,0.0,0.0,0.0,0.0,0.0,0.0,0.0,0.0,0.0,0.0,0.0,0.0,0.0,0.0,0.0,0.0,0.0,0.0,0.0,0.0,0.0,0.0,0.0,0.0,0.0,0.0,0.0,0.0,0.0,0.0,0.0,0.0,0.0,0.0,1.6208,0.0,0.0,0.0,0.0,0.0,0.0,0.0,0.0,0.0,0.0,0.0,0.0,0.0,0.0,0.0,0.0,0.0,0.0,0.0,0.0,0.0,0.0,0.0,0.0,0.0,0.0,0.0,0.0,0.0,0.0,0.0,0.0,0.0,0.0,0.0,0.0,0.0,0.0,0.0,0.0,0.0,0.0,0.0,0.0,0.0,0.0,0.0,0.0,0.0,0.0,0.0,0.0,0.0,0.0,0.0,0.0,0.0,0.0,0.0,2.1611,2.3051,2.2821,2.2512,2.2125,2.0081,1.9073,0.0,0.0,0.0,0.0,0.0,0.0,0.0,0.0,0.0,0.0,0.0,0.0,0.0,0.0,0.0,0.0,0.0,0.0,0.0,0.0,0.0,0.0,0.0,0.0,0.0,0.0,0.0,0.0,0.0,0.0,0.0,0.0,0.0,0.0,0.0,0.0,0.0,0.0,0.0,0.0,0.0,0.0,0.0,0.0,0.0,0.0,0.0,0.0,0.0,0.0,0.0,0.0,0.0,0.0,0.0,0.0,0.0,0.0,0.0,0.0,0.0,0.0,0.0,0.0,0.0,0.0,0.0,0.0,0.0,0.0,0.0,0.0,0.0,0.0,0.0,0.0,0.0,0.0,0.0,0.0,0.0,0.0,0.0,0.0,0.0,0.0,0.0,0.0,0.0,0.0,0.0,0.0,0.0,0.0,0.0,0.0,0.0,0.0,0.0,0.0,0.0,0.0,0.0,0.0,0.0,0.0,0.0,2.2067,2.2525,2.4183,2.3238,2.2471,2.1911,2.1109,2.0557,2.0267,0.0,0.0,0.0,0.0,0.0,0.0,0.0,0.0,0.0,0.0,0.0,0.0,0.0,0.0,0.0,0.0,0.0,0.0,0.0,0.0,0.0,0.0,0.0,0.0,0.0,0.0,0.0,0.0,0.0,0.0,0.0,0.0,0.0,0.0,0.0,0.0,0.0,0.0,2.406,2.4158,0.0,0.0,0.0,0.0,0.0,0.0,0.0,0.0,1.8766,0.0,0.0,0.0,0.0,0.0,0.0,0.0,0.0,0.0,0.0,0.0,0.0,0.0,0.0,0.0,0.0,0.0,0.0,0.0,0.0,0.0,0.0,0.0,0.0,0.0,0.0,0.0,0.0,0.0,0.0,0.0,0.0,0.0,0.0,0.0,0.0,0.0,0.0,0.0,0.0,0.0,0.0,0.0,0.0,0.0,0.0,0.0,0.0,0.0,0.0,0.0,0.0,0.0,0.0,0.0,0.0,2.386,2.4049,2.4082,2.4048,2.4069,2.332,2.1746,2.1002,2.0571,2.0212,0.0,0.0,0.0,0.0,0.0,0.0,0.0,0.0,0.0,0.0,0.0,0.0,0.0,0.0,0.0,0.0,0.0,0.0,0.0,0.0,0.0,0.0,0.0,0.0,0.0,0.0,0.0,0.0,0.0,0.0,0.0,0.0,0.0,0.0,0.0,0.0,0.0,0.0,0.0,2.8336,2.8238,0.0,0.0,0.0,0.0,0.0,0.0,0.0,0.0,1.9906,0.0,0.0,0.0,0.0,0.0,0.0,0.0,0.0,0.0,0.0,0.0,0.0,0.0,0.0,0.0,0.0,0.0,0.0,0.0,0.0,0.0,0.0,0.0,0.0,0.0,0.0,0.0,0.0,0.0,0.0,0.0,0.0,0.0,0.0,0.0,0.0,0.0,0.0,0.0,0.0,0.0,0.0,0.0,0.0,0.0,0.0,0.0,0.0,0.0,0.0,0.0,0.0,0.0,0.0,0.0,2.5505,2.5391,2.5682,2.6451,2.5833,2.5012,2.4086,2.2251,2.109,0.0,0.0,0.0,0.0,0.0,0.0,0.0,0.0,0.0,0.0,0.0,0.0,0.0,0.0,0.0,0.0,0.0,0.0,0.0,0.0,0.0,0.0,0.0,0.0,0.0,0.0,0.0,0.0,0.0,0.0,0.0,0.0,0.0,0.0,0.0,0.0,0.0,0.0,0.0,0.0,2.8965,2.9352,2.9675,0.0,0.0,0.0,0.0,0.0,0.0,2.1433,2.1556,0.0,0.0,0.0,0.0,0.0,0.0,0.0,0.0,0.0,0.0,0.0,0.0,0.0,0.0,0.0,0.0,0.0,0.0,0.0,0.0,0.0,0.0,0.0,0.0,0.0,0.0,0.0,0.0,0.0,0.0,0.0,0.0,0.0,0.0,0.0,0.0,0.0,0.0,0.0,0.0,0.0,0.0,0.0,0.0,0.0,0.0,0.0,0.0,0.0,0.0,0.0,0.0,0.0,0.0,0.0,2.6897,2.6626,2.7185,2.8678,2.7521,2.6644,2.6319,2.3826,2.2081,0.0,0.0,0.0,0.0,0.0,0.0,0.0,0.0,0.0,0.0,0.0,0.0,0.0,0.0,0.0,0.0,0.0,0.0,0.0,0.0,0.0,0.0,0.0,0.0,0.0,0.0,0.0,0.0,0.0,0.0,0.0,0.0,0.0,0.0,0.0,0.0,0.0,0.0,0.0,0.0,0.0,3.0354,3.1458,2.9724,0.0,0.0,0.0,0.0,2.326,2.362,0.0,0.0,0.0,0.0,0.0,0.0,0.0,0.0,0.0,0.0,0.0,0.0,0.0,0.0,0.0,0.0,0.0,0.0,0.0,0.0,0.0,0.0,0.0,0.0,0.0,0.0,0.0,0.0,0.0,0.0,0.0,0.0,0.0,0.0,0.0,0.0,0.0,0.0,0.0,0.0,0.0,0.0,0.0,0.0,0.0,0.0,0.0,0.0,0.0,0.0,0.0,0.0,0.0,0.0,0.0,0.0,2.6961,2.8022,2.8559,2.8426,2.8241,2.7504,2.6095,2.5031,2.3909,0.0,0.0,0.0,0.0,0.0,0.0,0.0,0.0,0.0,0.0,0.0,0.0,0.0,0.0,0.0,0.0,0.0,0.0,0.0,0.0,0.0,0.0,0.0,0.0,0.0,0.0,0.0,0.0,0.0,0.0,0.0,0.0,0.0,0.0,0.0,0.0,0.0,0.0,0.0,0.0,0.0,3.2811,3.1401,3.2211,3.203,0.0,0.0,2.8291,2.5676,2.6545,0.0,0.0,0.0,0.0,0.0,0.0,0.0,0.0,0.0,0.0,0.0,0.0,0.0,0.0,0.0,0.0,0.0,0.0,0.0,0.0,0.0,0.0,0.0,0.0,0.0,0.0,0.0,0.0,0.0,0.0,0.0,0.0,0.0,0.0,0.0,0.0,0.0,0.0,0.0,0.0,0.0,0.0,0.0,0.0,0.0,0.0,0.0,0.0,0.0,0.0,0.0,0.0,0.0,0.0,0.0,2.6649,2.7819,3.0078,3.1037,3.0561,3.0894,3.0354,2.8801,2.6587,2.5016,0.0,0.0,0.0,0.0,0.0,0.0,0.0,0.0,0.0,0.0,0.0,0.0,0.0,0.0,0.0,0.0,0.0,0.0,0.0,0.0,0.0,0.0,0.0,0.0,0.0,0.0,0.0,0.0,0.0,0.0,0.0,0.0,0.0,0.0,0.0,0.0,0.0,0.0,0.0,0.0,0.0,0.0,3.3675,3.378,0.0,0.0,0.0,3.1677,2.9917,0.0,0.0,0.0,0.0,0.0,0.0,0.0,0.0,0.0,0.0,0.0,0.0,0.0,0.0,0.0,0.0,0.0,0.0,0.0,0.0,0.0,0.0,0.0,0.0,0.0,0.0,0.0,0.0,0.0,0.0,0.0,0.0,0.0,0.0,0.0,0.0,0.0,0.0,0.0,0.0,0.0,0.0,0.0,0.0,0.0,0.0,0.0,0.0,0.0,0.0,0.0,0.0,0.0,0.0,0.0,0.0,0.0,2.885,3.1583,3.2911,3.2763,3.333,3.2985,3.1459,2.8633,0.0,0.0,0.0,0.0,0.0,0.0,0.0,0.0,0.0,0.0,0.0,0.0,0.0,0.0,0.0,0.0,0.0,0.0,0.0,0.0,0.0,0.0,0.0,0.0,0.0,0.0,0.0,2.6812,0.0,0.0,0.0,0.0,0.0,0.0,0.0,0.0,0.0,0.0,0.0,0.0,0.0,0.0,3.343,3.5257,3.5296,3.5422,0.0,0.0,3.4341,3.3469,3.3765,3.2849,0.0,0.0,0.0,0.0,0.0,0.0,0.0,0.0,0.0,0.0,0.0,0.0,0.0,0.0,0.0,0.0,0.0,0.0,0.0,0.0,0.0,0.0,0.0,0.0,0.0,0.0,0.0,0.0,0.0,0.0,0.0,0.0,0.0,0.0,0.0,0.0,0.0,0.0,0.0,0.0,0.0,0.0,0.0,0.0,0.0,0.0,0.0,0.0,0.0,0.0,0.0,0.0,0.0,0.0,2.8922,2.9922,3.1912,3.3436,3.4235,3.4856,3.4459,3.3,3.1508,2.9525,0.0,0.0,0.0,0.0,0.0,0.0,0.0,0.0,0.0,0.0,0.0,0.0,0.0,0.0,0.0,0.0,0.0,0.0,0.0,0.0,0.0,0.0,0.0,0.0,0.0,0.0,0.0,0.0,0.0,0.0,0.0,0.0,0.0,0.0,0.0,0.0,0.0,0.0,0.0,0.0,0.0,3.4435,3.4726,3.6923,3.8282,0.0,3.6796,3.6051,3.5237,3.5815,3.4726,2.9928,0.0,0.0,0.0,0.0,0.0,0.0,0.0,0.0,0.0,0.0,0.0,0.0,0.0,0.0,0.0,0.0,0.0,0.0,0.0,0.0,0.0,0.0,0.0,0.0,0.0,0.0,0.0,0.0,0.0,0.0,0.0,0.0,0.0,0.0,0.0,0.0,0.0,0.0,0.0,0.0,0.0,0.0,0.0,0.0,0.0,0.0,0.0,0.0,0.0,0.0,0.0,0.0,0.0,2.9831,3.0877,3.3268,3.4788,3.5265,3.5852,3.5625,3.4459,3.3112,3.1483,0.0,0.0,0.0,0.0,0.0,0.0,0.0,0.0,0.0,0.0,0.0,0.0,0.0,0.0,0.0,0.0,0.0,0.0,0.0,0.0,0.0,0.0,0.0,0.0,0.0,0.0,0.0,0.0,2.8739,2.8924,2.9121,0.0,0.0,0.0,0.0,0.0,0.0,0.0,0.0,0.0,0.0,3.5001,3.6109,3.7742,0.0,0.0,3.8128,3.7849,3.7577,3.6624,3.4954,3.2058,3.0582,0.0,0.0,0.0,0.0,0.0,0.0,0.0,0.0,0.0,0.0,0.0,0.0,0.0,0.0,0.0,0.0,0.0,0.0,0.0,0.0,0.0,0.0,0.0,0.0,0.0,0.0,0.0,0.0,0.0,0.0,0.0,0.0,0.0,0.0,0.0,0.0,0.0,0.0,0.0,0.0,0.0,0.0,0.0,0.0,0.0,0.0,0.0,0.0,0.0,0.0,0.0,0.0,3.0967,3.1909,3.4487,3.6007,3.6466,3.7073,3.6877,3.5985,3.4612,3.3019,0.0,0.0,0.0,0.0,0.0,0.0,0.0,0.0,0.0,0.0,0.0,0.0,0.0,0.0,0.0,0.0,0.0,0.0,0.0,0.0,0.0,0.0,0.0,0.0,0.0,0.0,0.0,0.0,2.9779,2.9729,2.9553,0.0,0.0,0.0,0.0,0.0,0.0,0.0,0.0,0.0,0.0,3.6232,3.753,3.8426,3.8788,3.8466,3.8241,3.814,3.8165,3.696,3.5233,3.2945,0.0,0.0,0.0,0.0,0.0,0.0,0.0,0.0,0.0,0.0,0.0,0.0,0.0,0.0,0.0,0.0,0.0,0.0,0.0,0.0,0.0,0.0,0.0,0.0,0.0,0.0,0.0,3.3828,0.0,0.0,3.3136,0.0,0.0,0.0,0.0,0.0,0.0,0.0,0.0,0.0,0.0,0.0,0.0,0.0,0.0,0.0,0.0,0.0,0.0,0.0,0.0,0.0,0.0,3.2423,3.3093,3.5203,3.6835,3.7866,3.8517,3.8354,3.7459,3.6108,3.4179,3.1788,0.0,0.0,0.0,0.0,0.0,0.0,0.0,0.0,0.0,0.0,0.0,0.0,0.0,0.0,0.0,0.0,0.0,0.0,0.0,0.0,0.0,0.0,0.0,0.0,0.0,0.0,2.9779,2.9779,2.9578,0.0,0.0,0.0,0.0,0.0,0.0,0.0,0.0,0.0,3.5699,3.7207,3.8215,3.8734,3.8885,3.8543,3.7453,3.6857,3.6505,3.66,3.688,3.5876,0.0,0.0,0.0,0.0,0.0,0.0,0.0,0.0,0.0,0.0,0.0,0.0,0.0,0.0,0.0,0.0,0.0,0.0,0.0,0.0,0.0,0.0,0.0,0.0,0.0,0.0,0.0,3.4906,3.4474,0.0,0.0,0.0,0.0,0.0,0.0,0.0,0.0,0.0,0.0,0.0,3.9534,3.9754,0.0,0.0,0.0,0.0,0.0,0.0,0.0,0.0,0.0,0.0,0.0,0.0,3.2315,3.3596,3.47,3.5981,3.7412,3.8015,3.8341,3.8405,3.7592,3.5527,3.2183,0.0,0.0,0.0,0.0,0.0,0.0,0.0,0.0,0.0,0.0,0.0,0.0,0.0,0.0,0.0,0.0,0.0,0.0,0.0,0.0,0.0,0.0,0.0,0.0,0.0,2.9779,0.0,0.0,0.0,0.0,0.0,0.0,0.0,0.0,0.0,0.0,3.2991,3.3895,3.5924,3.693,3.7772,3.8624,3.9077,3.9186,0.0,0.0,0.0,0.0,0.0,0.0,0.0,0.0,0.0,0.0,0.0,0.0,0.0,0.0,3.2565,2.9258,2.8339,2.8113,2.8113,0.0,0.0,0.0,0.0,0.0,0.0,0.0,0.0,0.0,0.0,0.0,0.0,0.0,0.0,3.775,3.7246,3.6992,0.0,0.0,0.0,0.0,0.0,0.0,0.0,0.0,4.0904,4.192,4.1953,4.2191,4.1846,4.1099,4.0053,3.7779,0.0,0.0,0.0,0.0,0.0,0.0,0.0,0.0,3.2792,3.3897,3.5027,3.6107,3.7161,3.7939,3.8391,3.8542,3.7839,3.6075,3.3165,3.1685,3.042,0.0,0.0,0.0,0.0,0.0,0.0,0.0,0.0,0.0,0.0,0.0,0.0,0.0,0.0,0.0,0.0,0.0,0.0,0.0,0.0,0.0,0.0,0.0,3.0771,0.0,0.0,0.0,0.0,0.0,0.0,0.0,0.0,0.0,3.4,3.4317,3.5159,3.7063,3.787,3.8439,3.8963,0.0,0.0,0.0,0.0,0.0,0.0,0.0,3.6819,3.6847,3.6623,3.623,3.5659,3.6007,3.6079,3.5145,0.0,0.0,3.0985,3.0071,2.9836,2.9836,2.9089,2.8355,2.7916,2.6838,2.5817,0.0,0.0,0.0,0.0,4.2011,0.0,0.0,0.0,4.2583,4.2472,0.0,4.1224,0.0,0.0,0.0,0.0,3.8353,4.0043,0.0,0.0,4.4527,4.5391,4.5329,4.4865,4.4081,4.2938,4.2193,4.1341,4.0191,3.6293,0.0,0.0,0.0,0.0,0.0,0.0,3.3941,3.4111,3.6053,3.7159,3.7258,3.8315,3.8617,3.8112,3.7177,3.6092,3.4821,3.3784,3.2659,3.1486,3.0894,0.0,0.0,0.0,0.0,0.0,0.0,0.0,0.0,0.0,0.0,0.0,0.0,0.0,0.0,0.0,0.0,0.0,0.0,0.0,0.0,3.2055,0.0,0.0,0.0,0.0,0.0,0.0,0.0,0.0,0.0,3.4306,3.4975,3.5616,3.6872,3.9086,0.0,0.0,0.0,0.0,3.8396,3.7421,3.6706,3.6358,3.6452,3.7327,3.7701,3.671,0.0,0.0,3.587,3.5997,3.5837,3.4246,3.4389,3.4659,3.4546,3.3533,3.2932,3.2857,3.1547,3.0282,2.9196,2.836,2.7643,5.1379,0.0,0.0,0.0,0.0,4.4502,4.4864,4.574,4.5094,4.4232,4.3231,4.2592,0.0,0.0,0.0,0.0,0.0,0.0,4.2639,4.3516,4.5242,4.6278,4.6741,4.6588,4.6369,4.5984,4.53,4.4848,4.4422,4.1621,3.8919,3.6453,0.0,0.0,0.0,0.0,3.508,3.6207,3.6141,3.6603,3.782,3.8548,3.926,3.9884,4.0083,3.9021,3.6635,3.5878,3.4624,3.2726,3.1687,0.0,0.0,0.0,0.0,0.0,0.0,0.0,0.0,0.0,0.0,0.0,0.0,0.0,0.0,0.0,0.0,0.0,0.0,0.0,3.22,3.2415,3.2593,0.0,0.0,0.0,0.0,0.0,0.0,0.0,0.0,0.0,3.5988,3.661,3.7604,0.0,0.0,3.9092,3.9387,3.8914,3.8752,3.9367,3.8919,0.0,3.9094,3.9094,3.8919,3.8604,3.9182,3.9534,3.9044,3.8429,3.7526,3.6145,3.4841,3.384,3.3409,3.325,3.291,3.2516,3.1763,3.0979,3.0233,2.9052,2.8044,5.631,5.301,4.9291,4.8172,4.8726,4.8057,4.8181,4.8858,4.8419,4.7693,4.6688,4.601,4.4735,4.297,4.2151,0.0,0.0,0.0,4.451,4.5169,4.6202,4.692,4.7279,4.7309,4.7309,4.7279,4.6651,4.6429,4.6638,4.4718,4.2665,4.0514,0.0,3.7368,3.7078,3.6633,3.7057,3.8253,3.7817,3.8107,3.915,3.9239,3.9717,4.0652,4.0907,4.0155,3.8431,3.7812,3.6652,3.4821,3.3628,3.2633,0.0,0.0,0.0,0.0,0.0,0.0,0.0,0.0,0.0,0.0,0.0,3.1756,3.1729,0.0,0.0,0.0,3.2912,3.3325,3.3734,3.3768,0.0,0.0,0.0,0.0,0.0,0.0,0.0,3.5879,3.5653,3.5759,3.6387,3.6806,3.7434,3.8482,3.8272,3.8153,3.8571,0.0,3.8302,3.911,3.8871,3.8841,3.9499,3.9499,3.9403,3.9403,3.9499,3.9469,3.9224,3.8627,3.7791,3.6581,3.5083,3.3765,3.2961,3.2613,3.2357,3.1938,3.1461,3.0984,3.0658,2.9618,2.8767,5.9817,5.889,5.4491,5.2606,5.2516,5.2486,5.2097,5.1588,5.2067,5.1887,5.1259,5.0495,4.9119,4.7279,4.5394,0.0,4.5484,4.6112,4.6668,4.7309,4.7309,4.7309,4.7309,4.7309,4.7309,4.7309,4.6638,4.6711,4.7219,4.6052,4.5424,4.5263,4.165,3.9397,3.8671,3.9103,3.9574,4.0173,4.0609,4.0797,4.0919,4.0507,4.0451,4.0924,4.0479,4.0201,4.0015,3.9448,3.8547,3.7302,3.6085,3.4841,3.3716,0.0,0.0,0.0,0.0,0.0,0.0,0.0,0.0,0.0,0.0,0.0,0.0,0.0,0.0,3.2806,3.3602,0.0,3.5392,3.5489,0.0,0.0,0.0,3.66,3.6691,3.6691,3.6661,3.66,0.0,0.0,3.636,3.6417,3.6626,3.7195,3.7315,3.7345,3.7404,3.7375,3.7345,3.7524,3.7434,3.7644,3.8302,3.8811,3.914,3.9074,3.8721,3.8153,3.7584,3.737,3.6966,3.6083,3.4981,3.3923,3.2918,3.1988,3.126,3.1235,3.0934,3.0608,3.0468,3.0091,2.9702,6.0775,6.0416,5.7812,5.6137,5.5179,5.47,5.4401,5.4162,5.3324,5.2576,5.1887,5.075,4.9434,4.7997,4.701,4.6681,4.683,4.698,4.716,4.7309,4.7309,4.7309,4.7309,4.7309,4.7309,4.7279,4.716,4.716,4.7309,4.698,4.6561,4.601,4.5069,4.3767,4.2126,4.1843,4.1796,4.201,4.1663,4.1747,4.2196,4.2886,4.3096,4.2702,4.3066,4.2607,4.1253,4.057,3.9489,3.7924,3.6239,3.4996,3.4223,3.2955,0.0,0.0,0.0,0.0,0.0,0.0,0.0,0.0,0.0,3.3671,3.3671,0.0,3.4806,0.0,3.5034,3.5261,3.5457,3.5489,0.0,0.0,3.6508,3.6843,3.7472,3.7499,3.7263,3.6661,3.6446,3.6163,3.5764,3.5729,3.5789,3.5968,3.6387,3.6866,3.7315,3.6985,3.6896,3.7285,3.731,3.7464,3.7614,3.7764,3.7883,3.7883,3.7734,3.7434,3.6806,3.6716,3.647,3.5659,3.4162,3.3071,3.27,3.1351,3.0298,3.0206,3.0407,3.0482,3.008,2.988,2.9779,6.1104,6.0924,5.8949,5.7513,5.6526,5.5897,5.5628,5.5508,5.4192,5.3264,5.2516,5.0631,4.9404,4.8686,4.7728,4.7309,4.7309,4.7309,4.7309,4.7309,4.7309,4.7309,4.7309,4.7309,4.7309,4.7309,4.7309,4.7309,4.7309,4.7309,4.713,4.677,4.6728,4.601,4.4695,4.4098,4.3952,4.4246,4.3965,4.3777,4.3805,4.415,4.4097,4.3738,4.3569,4.2842,4.1536,4.0852,3.9935,3.8724,3.7395,3.6392,3.5733,3.4434,3.3605,0.0,0.0,0.0,0.0,0.0,0.0,0.0,0.0,0.0,0.0,0.0,3.5489,3.5489,3.5489,3.5489,3.5489,3.5814,3.6134,3.6538,3.7202,3.7787,3.8246,3.8274,3.8133,3.7671,3.7024,3.6446,3.6008,3.5686,3.5489,3.5489,3.5818,3.6178,3.6447,3.6237,3.6178,3.6507,3.6567,3.6686,3.6926,3.7015,3.7015,3.6985,3.6746,3.6447,3.6118,3.6058,3.5908,3.5481,3.4245,3.3052,3.2656,3.1489,3.0368,2.9945,3.003,3.0105,2.9854,2.9779,2.9779,6.1044,6.0805,5.8919,5.7752,5.7154,5.6466,5.6128,5.5837,5.461,5.3593,5.2665,5.0391,4.9359,4.912,4.8027,4.7519,4.7429,4.7429,4.7429,4.7429,4.7339,4.7309,4.7309,4.7309,4.7309,4.7309,4.7309,4.7309,4.7309,4.7309,4.7309,4.7309,4.7309,4.701,4.6441,4.5873,4.5843,4.6399,4.6352,4.6022,4.5424,4.4706,4.4287,4.4097,4.291,4.1961,4.1302,4.0636,4.0008,3.9403,3.8691,3.8072,3.7541,3.6084,3.5369,0.0,3.4978,0.0,0.0,0.0,0.0,0.0,0.0,0.0,0.0,3.5554,3.5522,3.5651,3.5554,3.5587,3.5812,3.629,3.6691,3.6934,3.8101,3.8935,3.9016,3.9043,3.8989,3.8908,3.77,3.6873,3.6752,3.6133,3.5621,3.5683,3.5584,3.5579,3.5519,3.5549,3.5549,3.5489,3.5489,3.5848,3.6237,3.6357,3.6357,3.6297,3.5968,3.5519,3.5549,3.5519,3.5519,3.5424,3.4643,3.3739,3.2912,3.1947,3.0932,3.0216,2.9959,2.9829,2.9804,2.9779,2.9779,6.0805,6.0146,5.874,5.8052,5.7842,5.6675,5.5568,5.4521,5.3713,5.2426,5.0734,5.0226,4.9464,4.8536,4.8775,4.8596,4.8117,4.8117,4.8117,4.8087,4.7549,4.7309,4.7309,4.7309,4.7309,4.7309,4.7309,4.7309,4.7309,4.7309,4.7309,4.7309,4.7309,4.7249,4.713,0.0,0.0,0.0,4.6548,4.6219,4.607,4.4945,4.4047,4.3469,4.2252,0.0,4.0606,3.9948,3.9523,3.9379,3.8242,0.0,0.0,0.0,0.0,0.0,0.0,0.0,0.0,0.0,0.0,0.0,3.6874,3.6384,3.6384,3.5846,3.575,3.6321,3.5847,3.6037,3.7235,3.6873,3.7083,3.8325,3.8745,3.9156,3.9799,3.9842,3.9636,3.8962,3.8635,3.8213,3.7616,3.6905,3.6384,3.6352,3.5878,3.5522,3.5489,3.5489,3.5489,3.5489,3.5489,3.5549,3.5669,3.5729,3.5759,3.5669,3.5639,3.5489,3.5489,3.5489,3.5489,3.5487,3.4677,3.3979,3.3705,3.2407,3.1241,3.097,3.0343,2.9779,2.9779,2.9779,2.9779,6.0715,5.9967,5.868,5.7932,0.0,5.6585,5.5418,5.4162,5.3473,5.2276,5.0674,5.0345,4.9807,4.9254,4.9299,4.894,4.8297,4.8626,4.864,4.8267,4.7938,4.7788,4.7788,4.7459,4.7309,4.7309,4.7309,4.7309,4.7309,4.7309,4.7309,4.7309,4.7309,4.7309,4.7309,4.7309,4.7309,4.7309,4.698,4.68,4.677,4.5813,4.5005,4.4287,4.2731,0.0,0.0,0.0,0.0,0.0,0.0,0.0,0.0,3.837,0.0,3.7796,3.8142,3.8203,3.7854,3.7822,3.7933,3.8302,3.7958,3.7408,3.6661,3.6259,3.6384,3.7115,3.6875,3.6966,3.7706,3.7761,3.8044,3.8827,3.9262,3.9662,4.0003,4.0113,3.9927,3.9558,3.9156,3.8745,3.8386,3.7674,3.7054,3.6661,3.629,3.5879,3.5587,3.5489,3.5489,3.5489,3.5489,3.5489,3.5489,3.5489,3.5489,3.5489,3.5489,3.5489,3.5489,3.5489,3.5489,3.5457,3.5067,3.461,3.4013,3.322,3.2335,3.1426,3.082,3.0305,2.9934,2.9779,2.9779,6.0715,5.9967,5.865,5.7723,5.7034,5.6436,5.5359,5.3982,5.3294,0.0,0.0,5.0554,5.0226,4.9986,4.9733,4.9194,4.8506,4.906,4.897,4.8297,4.8177,4.8117,4.8087,4.7549,4.7309,4.7309,4.7309,4.7309,4.7309,4.7309,4.7309,4.7309,4.7309,4.7309,4.7309,4.7309,4.7309,4.7309,4.7309,4.7309,4.7279,4.6561,4.5813,4.5125,4.3129,4.1444,4.0247,3.9198,3.8679,3.8762,3.8927,3.9125,3.9413,3.9856,3.9624,3.8545,3.8962,3.8962,3.8254,3.8222,3.8386,3.8881,3.8908,3.8386,3.7114,3.6904,3.7144,3.7905,3.7908,3.7908,3.8193,3.858,3.8962,3.9069,3.9688,4.0113,4.0113,4.0113,4.0113,4.0037,3.9499,3.9096,3.9069,3.8442,3.7703,3.6994,3.6692,3.6322,3.5686,3.5489,3.5489,3.5489,3.5489,3.5489,3.5489,3.5489,3.5489,3.5489,3.5489,3.5489,3.5489,3.5489,3.5489,3.5489,3.5489,3.5133,3.4476,3.4075,3.3498,3.201,3.1536,3.1156,3.0305,3.0024,3.0024,6.0715,5.9967,5.868,5.7723,5.7034,5.6436,5.5089,5.3294,5.2636,5.1618,5.0375,5.0823,5.0451,4.9509,5.0481,5.0272,4.9209,4.9269,4.897,4.8267,4.7728,4.7429,4.7429,4.7339,4.7309,4.7309,4.7309,4.7309,4.7309,4.7309,4.7309,4.7309,4.7309,4.7309,4.7309,4.7309,4.7309,4.7309,4.7309,4.7309,4.7279,4.6082,4.5125,4.4377,4.2013,4.0337,3.9559,3.952,3.9537,3.9577,4.0261,4.0982,4.1639,4.1234,4.0922,4.0735,4.0815,4.0546,3.984,3.9799,3.9532,3.8962,3.8908,3.8799,3.8575,3.7991,3.7933,3.8635,3.8218,3.8362,3.9532,3.9262,3.9209,3.9765,4.0037,4.0113,4.0113,4.0113,4.0113,4.0113,4.0003,3.9901,3.9799,3.9209,3.8469,3.7732,3.7024,3.6322,3.5686,3.5489,3.5489,3.5489,3.5489,3.5489,3.5489,3.5489,3.5489,3.5489,3.5489,3.5489,3.5489,3.5489,3.5489,3.5489,3.5489,3.5424,3.5198,3.4543,3.4007,3.3429,3.2876,3.2092,3.1193,3.097,3.0696,6.0715,5.9997,5.9039,5.8052,5.7004,5.6077,5.494,5.3713,5.3025,5.2007,5.0794,5.1079,5.087,5.0361,5.0571,5.0315,4.9763,4.9434,4.9149,4.882,4.8147,4.7848,4.7788,4.7489,4.7309,4.7309,4.7309,4.7309,4.7309,4.7309,4.7309,4.7309,4.7309,4.7309,4.7309,4.7309,4.7309,4.7309,4.7309,4.7357,4.7482,4.6436,4.5582,4.5057,4.2711,4.1407,4.1224,4.0574,4.0504,4.1051,4.1421,4.1829,4.2245,4.1933,4.1795,4.1786,4.1407,4.1068,4.073,4.0324,3.9952,3.9584,3.9558,3.9558,3.9558,3.8859,3.8718,3.9447,3.9209,3.9348,4.0003,3.9799,3.9688,4.0028,4.0113,4.0113,4.0113,4.0113,4.0113,4.0113,4.0113,4.0113,4.0113,3.9799,3.9262,3.8469,3.7408,3.6353,3.5619,3.5489,3.5489,3.5489,3.5489,3.5489,3.5489,3.5489,3.5489,3.5489,3.5489,3.5489,3.5489,3.5489,3.5489,3.5489,3.5489,3.5489,3.5489,3.5166,3.4643,3.4013,3.3739,3.2982,3.2227,3.1609,3.0895,6.0805,6.0266,5.9428,5.8321,5.7004,5.5897,5.497,5.4192,5.3623,5.2665,5.1528,5.1289,5.1229,5.1169,5.0644,5.0255,4.9972,4.9494,4.9149,4.882,4.8297,4.8057,4.8027,4.7519,4.7309,4.7309,4.7309,4.7309,4.7309,4.7309,4.7409,4.7593,4.7636,4.7764,4.8019,4.7988,4.8019,4.8019,4.7988,4.7904,4.7657,4.7079,4.6527,4.5957,4.3905,4.2849,4.2918,4.1883,4.1662,4.238,4.2642,4.2784,4.2801,4.2625,4.2489,4.2252,4.161,4.1136,4.0933,4.0417,4.0113,4.0113,4.0113,4.0113,4.0062,3.9558,3.9394,3.9978,4.0062,4.0087,4.0113,4.0087,4.0113,4.0113,4.0113,4.0113,4.0113,4.0113,4.0113,4.0113,4.0113,4.0113,4.0113,4.0113,3.9636,3.8635,3.7438,3.6353,3.5653,3.5489,3.5489,3.5489,3.5489,3.5489,3.5489,3.5489,3.5489,3.5489,3.5489,3.5489,3.5489,3.5489,3.5489,3.5489,3.5489,3.5489,3.5489,3.5457,3.5166,3.4576,3.438,3.4041,3.3115,3.22,3.1278,6.1074,6.0835,5.9608,5.8321,5.7064,5.6346,5.5329,5.4281,5.4132,5.3354,5.2157,5.1468,5.1229,5.1229,5.1109,5.0481,4.9494,4.9359,4.8656,4.7668,4.7429,4.7399,4.7429,4.7339,4.7309,4.7309,4.7309,4.7309,4.7309,4.7352,4.7807,4.8553,4.8677,4.9094,4.9931,5.0048,5.0048,5.0087,5.0126,4.9308,4.7787,4.7984,4.7771,4.7075,4.5034,4.3952,4.3958,4.3393,4.3075,4.3254,4.393,4.4361,4.4282,4.3673,4.2997,4.232,4.161,4.0933,4.0282,4.0146,4.0113,4.0113,4.0113,4.0113,4.0113,4.0037,4.0003,4.0113,4.0113,4.0113,4.0113,4.0113,4.0113,4.0113,4.0113,4.0113,4.0113,4.0113,4.0113,4.0113,4.0113,4.0113,4.0113,4.0113,3.9532,3.8302,3.7381,3.6477,3.5782,3.5522,3.5489,3.5489,3.5489,3.5489,3.5489,3.5489,3.5489,3.5489,3.5489,3.5489,3.5489,3.5489,3.5489,3.5489,3.5489,3.5489,3.5489,3.5489,3.5457,3.5231,3.5133,3.5001,3.4075,3.3122,3.2227,6.0864,6.0416,5.9488,5.8321,5.7034,5.6017,5.5299,5.479,5.4371,5.3892,5.3294,5.2276,5.1588,5.1199,5.0764,5.0541,5.0361,4.9689,4.903,4.8446,4.8087,4.7698,4.7339,4.7309,4.7309,4.7309,4.7309,4.7309,4.7409,4.7861,4.8718,4.9615,4.9734,4.997,5.0358,5.0397,5.0397,5.0435,5.0547,5.007,4.8987,4.8519,4.8027,4.7355,4.5683,4.4813,4.4789,4.4288,4.3992,4.4068,4.4412,4.435,4.391,4.3166,4.2625,4.2252,4.161,4.0865,4.0146,4.0113,4.0113,4.0113,4.0113,4.0113,4.0113,4.0113,4.0113,4.0113,4.0113,4.0113,4.0113,4.0113,4.0113,4.0113,4.0113,4.0113,4.0113,4.0113,4.0113,4.0113,4.0113,4.0113,4.0113,4.0113,3.961,3.8608,3.779,3.7025,3.629,3.5814,3.5522,3.5489,3.5489,3.5489,3.5489,3.5489,3.5489,3.5489,3.5489,3.5489,3.5489,3.5489,3.5489,3.5489,3.5489,3.5489,3.5489,3.5489,3.5489,3.5489,3.5489,3.5326,3.4968,3.4109,3.3325,6.0565,6.0027,5.9368,5.8441,5.7304,5.6196,5.5598,5.5388,5.476,5.4401,5.4072,5.2965,5.2097,5.1439,5.0764,5.0644,5.081,4.9972,4.9434,4.9269,4.879,4.8207,4.7608,4.7578,4.7489,4.7382,4.7624,4.7892,4.8157,4.8841,4.9773,5.0665,5.0817,5.093,5.1225,5.1262,5.1262,5.1271,5.1465,5.1052,5.0153,4.9468,4.8746,4.7935,4.6651,4.5897,4.5779,4.5111,4.4682,4.4621,4.4581,4.4215,4.3443,4.2692,4.2117,4.1677,4.1204,4.0663,4.0146,4.0113,4.0113,4.0113,4.0113,4.0113,4.0113,4.0113,4.0113,4.0113,4.0113,4.0113,4.0113,4.0113,4.0113,4.0113,4.0113,4.0113,4.0113,4.0113,4.0113,4.0113,4.0113,4.0113,4.0113,4.0087,3.9773,3.8962,3.8414,3.7674,3.6813,3.6134,3.575,3.5554,3.5489,3.5489,3.5489,3.5489,3.5489,3.5489,3.5489,3.5489,3.5489,3.5489,3.5489,3.5489,3.5489,3.5489,3.5489,3.5489,3.5489,3.5489,3.5489,3.5489,3.5359,3.4773,3.4509,6.0116,5.9997,5.9368,5.865,5.7992,5.7244,5.6615,5.6008,5.5388,5.479,5.4221,5.3443,5.2755,5.2127,5.1439,5.084,5.0315,5.0196,4.9883,4.9389,4.9299,4.891,4.8267,4.8237,4.7938,4.7516,4.8332,4.9197,5.0158,5.0281,5.0855,5.1743,5.1849,5.2312,5.3041,5.3144,5.3314,5.3144,5.3112,5.2539,5.1256,5.1021,5.0215,4.8931,4.8155,4.7353,4.6731,4.6051,4.5336,4.4649,4.4581,4.4215,4.3409,4.2692,4.167,4.0451,4.0214,4.018,4.0113,4.0113,4.0113,4.0113,4.0113,4.0113,4.0113,4.0113,4.0113,4.0113,4.0113,4.0113,4.0113,4.0113,4.0113,4.0113,4.0113,4.0113,4.0113,4.0113,4.0113,4.0113,4.0113,4.0113,4.0113,4.0113,3.9773,3.9209,3.8881,3.8325,3.7142,3.6661,3.6228,3.575,3.5554,3.5489,3.5489,3.5489,3.5489,3.5489,3.5489,3.5489,3.5489,3.5489,3.5489,3.5489,3.5489,3.5489,3.5489,3.5489,3.5489,3.5489,3.5489,3.5489,3.5489,3.5489,3.5264,6.0236,5.9398,5.874,5.8082,5.7423,5.6765,5.6137,5.5538,5.5299,5.5059,5.467,5.3683,5.3054,5.2755,5.1678,5.1033,5.087,5.0823,5.0511,4.9942,4.9883,4.9553,4.9,4.897,4.8566,4.8173,4.8979,5.0105,5.1262,5.134,5.1885,5.2765,5.2939,5.3144,5.3416,5.3518,5.3518,5.345,5.301,5.2232,5.1319,5.0744,4.9999,4.9052,4.8781,4.8037,4.6819,4.6549,4.5838,4.4649,4.4581,4.4215,4.3375,4.2252,4.1196,4.0248,4.0113,4.0113,4.0113,4.0113,4.0113,4.0113,4.0113,4.0113,4.0113,4.0113,4.0113,4.0113,4.0113,4.0113,4.0113,4.0113,4.0113,4.0113,4.0113,4.0113,4.0113,4.0113,4.0113,4.0113,4.0113,4.0113,4.0113,4.0113,3.9978,3.9722,3.9236,3.869,3.8101,3.7291,3.6569,3.6228,3.5814,3.5489,3.5489,3.5489,3.5489,3.5489,3.5489,3.5489,3.5489,3.5489,3.5489,3.5489,3.5489,3.5489,3.5489,3.5489,3.5489,3.5489,3.5489,3.5489,3.5489,3.5489,3.5489,5.9937,5.9099,5.862,5.8171,5.7663,5.6825,5.6226,5.5748,5.5388,5.5209,5.494,5.3773,5.3174,5.2935,5.1828,5.1229,5.1229,5.1229,5.0913,5.0524,5.0524,5.0212,4.9673,4.9583,4.9329,4.9053,4.9956,5.116,5.2307,5.2451,5.28,5.345,5.3518,5.3518,5.3518,5.3518,5.3518,5.3382,5.2976,5.2334,5.1589,5.0811,5.0101,4.9458,4.9154,4.8308,4.6853,4.6786,4.6109,4.4852,4.4581,4.4113,4.3064,4.188,4.0865,4.0214,4.0113,4.0113,4.0113,4.0113,4.0113,4.0113,4.0113,4.0113,4.0113,4.0113,4.0113,4.0113,4.0113,4.0113,4.0113,4.0113,4.0113,4.0113,4.0113,4.0113,4.0113,4.0113,4.0113,4.0113,4.0113,4.0113,4.0113,4.0113,4.0087,4.0113,3.9584,3.9262,3.8799,3.8101,3.7084,3.6661,3.6196,3.5814,3.5619,3.5522,3.5522,3.5522,3.5489,3.5489,3.5489,3.5489,3.5489,3.5489,3.5489,3.5489,3.5489,3.5489,3.5489,3.5489,3.5489,3.5489,3.5489,3.5489,3.5489,5.9159,5.9099,5.9099,5.8979,5.865,5.7513,5.7034,5.6705,5.5688,5.5209,5.4999,5.3773,5.3174,5.2905,5.1798,5.1229,5.1229,5.1229,5.1199,5.1139,5.1139,5.0857,5.0379,5.0395,5.0449,5.0227,5.128,5.2412,5.3416,5.3382,5.3416,5.3484,5.3518,5.3518,5.3518,5.3518,5.3518,5.3484,5.3416,5.3044,5.23,5.1488,5.0744,5.0033,4.939,4.8342,4.6921,4.6819,4.6109,4.4818,4.4581,4.387,4.2625,4.1779,4.0933,4.035,4.0146,4.0146,4.0113,4.0113,4.0113,4.0113,4.0113,4.0113,4.0113,4.0113,4.0113,4.0113,4.0113,4.0113,4.0113,4.0113,4.0113,4.0113,4.0113,4.0113,4.0113,4.0113,4.0113,4.0113,4.0113,4.0113,4.0113,4.0113,4.0113,4.0087,4.0003,3.974,3.9209,3.8772,3.8129,3.7172,3.6691,3.6508,3.5975,3.5554,3.5554,3.5587,3.5522,3.5489,3.5489,3.5489,3.5489,3.5489,3.5489,3.5489,3.5489,3.5489,3.5489,3.5489,3.5489,3.5489,3.5489,3.5489,3.5489,5.9099,5.9099,5.9099,5.883,5.8351,5.7453,5.6855,5.6376,5.5538,5.5209,5.494,5.3773,5.3174,5.2875,5.1828,5.1229,5.1229,5.1229,5.1229,5.1229,5.1229,5.1544,5.1939,5.2013,5.2571,5.3197,5.2838,5.3185,5.399,5.3754,5.3518,5.3518,5.3518,5.3518,5.3518,5.3518,5.3518,5.3518,5.3518,5.3112,5.2334,5.1589,5.0845,5.0135,4.9357,4.8545,4.7631,4.7056,4.6075,4.4682,4.4581,4.4113,4.3234,4.2861,4.2151,4.1035,4.0865,4.0561,4.018,4.0113,4.0113,4.0113,4.0113,4.0113,4.0113,4.0113,4.0113,4.0113,4.0113,4.0113,4.0113,4.0113,4.0113,4.0113,4.0113,4.0113,4.0113,4.0113,4.0113,4.0113,4.0113,4.0113,4.0113,4.0113,4.0113,4.0113,4.0113,3.9927,3.9714,3.9236,3.8881,3.8241,3.7847,3.7324,3.6874,3.6569,3.6508,3.6227,3.5911,3.5587,3.5522,3.5489,3.5489,3.5489,3.5489,3.5489,3.5489,3.5489,3.5489,3.5489,3.5489,3.5489,3.5489,3.5489,3.5489,5.8979,5.877,5.874,5.8351,5.7693,5.7034,5.6526,5.6158,5.5478,5.5209,5.494,5.3773,5.3174,5.2905,5.1798,5.1259,5.1229,5.1229,5.1229,5.1229,5.1229,5.1819,5.2914,5.3512,5.4104,5.4826,5.4369,5.4209,5.4532,5.416,5.3788,5.3551,5.3518,5.3518,5.3518,5.3518,5.3518,5.3518,5.3518,5.3247,5.2638,5.1758,5.098,5.0439,4.9526,4.868,4.7939,4.7462,4.6549,4.5229,4.4784,4.4215,4.3504,4.3369,4.276,4.1576,4.1136,4.0865,4.0214,4.0113,4.0113,4.0113,4.0113,4.0113,4.0113,4.0113,4.0113,4.0113,4.0113,4.0113,4.0113,4.0113,4.0113,4.0113,4.0113,4.0113,4.0113,4.0113,4.0113,4.0113,4.0113,4.0113,4.0113,4.0113,4.0113,4.0113,4.0113,4.0113,4.0003,3.9662,3.9342,3.8989,3.8497,3.8076,3.7822,3.7618,3.7531,3.7025,3.6477,3.5943,3.5619,3.5522,3.5489,3.5489,3.5489,3.5489,3.5489,3.5489,3.5489,3.5489,3.5489,3.5489,3.5489,3.5489,3.5489,5.874,5.8171,5.8141,5.7782,5.7094,5.6496,5.6278,5.6128,5.5478,5.5209,5.491,5.3773,5.3174,5.2905,5.1798,5.1229,5.1229,5.1229,5.1229,5.1276,5.1433,5.2154,5.3463,5.4737,5.5446,5.5483,5.5624,5.5342,5.4803,5.4566,5.4228,5.3585,5.3518,5.3518,5.3518,5.3518,5.3518,5.3518,5.3518,5.3484,5.3315,5.1995,5.1151,5.105,4.9763,4.8714,4.8173,4.7872,4.7128,4.5838,4.4959,4.4282,4.3673,4.347,4.2868,4.1508,4.1305,4.0865,4.035,4.0113,4.0113,4.0113,4.0113,4.0113,4.0113,4.0113,4.0113,4.0113,4.0113,4.0113,4.0113,4.0113,4.0113,4.0113,4.0113,4.0113,4.0113,4.0113,4.0113,4.0113,4.0113,4.0113,4.0113,4.0113,4.0113,4.0113,4.0113,4.0113,4.0087,3.9876,3.9662,3.9401,3.9076,3.8908,3.8695,3.864,3.8474,3.7905,3.7293,3.6692,3.591,3.5683,3.5489,3.5489,3.5489,3.5489,3.5489,3.5489,3.5489,3.5489,3.5489,3.5489,3.5489,3.5489,3.5489,5.871,5.8141,5.8141,5.7723,5.7034,5.6436,5.6218,5.6128,5.5448,5.5209,5.491,5.3773,5.3174,5.3025,5.1828,5.1229,5.1229,5.1229,5.1229,5.1339,5.2109,5.3569,5.5256,5.6535,5.7107,5.7043,5.6619,5.6122,5.5412,5.4938,5.4296,5.3551,5.3551,5.3518,5.3518,5.3518,5.3518,5.3518,5.3518,5.3518,5.3281,5.2029,5.1219,5.105,4.9796,4.8984,4.868,4.8176,4.7225,4.5805,4.4993,4.4547,4.4282,4.4215,4.3538,4.232,4.1982,4.1441,4.0451,4.0146,4.0113,4.0113,4.0113,4.0113,4.0113,4.0113,4.0113,4.0113,4.0113,4.0113,4.0113,4.0113,4.0113,4.0113,4.0113,4.0113,4.0113,4.0113,4.0113,4.0113,4.0113,4.0113,4.0113,4.0113,4.0113,4.0113,4.0113,4.0113,4.0113,4.0087,3.9876,3.9927,3.9799,3.9688,3.961,3.9584,3.9348,3.8772,3.8213,3.7642,3.6692,3.5878,3.5683,3.5489,3.5489,3.5489,3.5489,3.5489,3.5489,3.5489,3.5489,3.5489,3.5489,3.5489,3.5489,5.856,5.7693,5.7693,5.7154,5.6316,5.5927,5.5748,5.5688,5.5359,5.5209,5.488,5.3773,5.3174,5.3025,5.1828,5.1229,5.1229,5.1229,5.1229,5.1479,5.2856,5.4515,5.6126,5.7335,5.7881,5.7848,5.7442,5.6867,5.6224,5.5716,5.4972,5.416,5.3957,5.3822,5.3518,5.3518,5.3518,5.3518,5.3518,5.3518,5.3382,5.2334,5.1555,5.1116,5.0067,4.9357,4.8984,4.8308,4.7196,4.5974,4.5297,4.4953,4.4649,4.4581,4.4012,4.2861,4.276,4.2219,4.1238,4.073,4.0561,4.0493,4.035,4.0113,4.0113,4.0113,4.0113,4.0113,4.0113,4.0113,4.0113,4.0113,4.0113,4.0113,4.0113,4.0113,4.0113,4.0113,4.0113,4.0113,4.0113,4.0113,4.0113,4.0113,4.0113,4.0113,4.0113,4.0113,4.0113,4.0113,4.0113,4.0113,4.0113,3.9952,3.9901,3.9876,3.985,3.9368,3.858,3.8101,3.7293,3.6196,3.5686,3.5489,3.5489,3.5489,3.5489,3.5489,3.5489,3.5489,3.5489,3.5489,3.5489,3.5489,3.5489,5.8321,5.7094,5.7094,5.6346,5.5359,5.5209,5.5269,5.5209,5.5209,5.5119,5.479,5.3713,5.3114,5.2995,5.1768,5.1229,5.1229,5.1229,5.1496,5.2305,5.3785,5.545,5.6547,5.7446,5.7881,5.7881,5.7881,5.7408,5.6765,5.6596,5.5919,5.4871,5.4532,5.416,5.3754,5.3585,5.3518,5.3518,5.3518,5.3518,5.3382,5.2638,5.1961,5.142,5.0473,4.9661,4.9052,4.8376,4.7432,4.6041,4.5838,4.5365,4.479,4.4716,4.4147,4.3511,4.324,4.2963,4.232,4.1576,4.1238,4.1068,4.0561,4.0146,4.0146,4.0113,4.0113,4.0113,4.0113,4.0113,4.0113,4.0113,4.0113,4.0113,4.0113,4.0113,4.0113,4.0113,4.0113,4.0113,4.0113,4.0113,4.0113,4.0113,4.0113,4.0113,4.0113,4.0113,4.0113,4.0113,4.0113,4.0113,4.0113,4.0113,4.0087,4.0087,4.0062,3.9825,3.8799,3.8133,3.7496,3.66,3.5878,3.5489,3.5489,3.5489,3.5489,3.5489,3.5522,3.5489,3.5489,3.5489,3.5489,3.5489,3.5489,5.8321,5.7094,5.7094,5.6346,5.5299,5.5209,5.5209,5.5209,5.5209,5.491,5.4341,5.3533,5.2905,5.2396,5.1618,5.1229,5.1229,5.1339,5.2063,5.3999,5.5174,5.647,5.7335,5.7845,5.7881,5.7881,5.7881,5.7509,5.69,5.6393,5.5852,5.548,5.4532,5.3957,5.4262,5.3754,5.3518,5.3518,5.3518,5.3518,5.3382,5.2773,5.2232,5.186,5.0744,4.9763,4.9154,4.8849,4.8342,4.7398,4.6413,4.5737,4.5365,4.4891,4.4316,4.3741,4.3443,4.3132,4.2455,4.2185,4.1813,4.1305,4.1035,4.0696,4.0146,4.0113,4.0113,4.0113,4.0113,4.0113,4.0113,4.0113,4.0113,4.0113,4.0113,4.0113,4.0113,4.0113,4.0113,4.0113,4.0113,4.0113,4.0113,4.0113,4.0113,4.0113,4.0113,4.0113,4.0113,4.0113,4.0113,4.0113,4.0113,4.0113,4.0113,4.0113,4.0113,3.9952,3.9102,3.8442,3.7819,3.6964,3.6228,3.575,3.5489,3.5489,3.5587,3.5651,3.5716,3.5587,3.5587,3.5621,3.5686,3.5619,3.5489,5.8321,5.7124,5.7094,5.6346,5.5299,5.5209,5.5209,5.5209,5.5209,5.482,5.4162,5.3473,5.2815,5.2157,5.1558,5.1229,5.1339,5.1819,5.29,5.4505,5.5691,5.6778,5.7701,5.7881,5.7881,5.7881,5.7881,5.7611,5.7273,5.69,5.663,5.619,5.504,5.4634,5.4465,5.389,5.3551,5.3518,5.3518,5.3518,5.3416,5.3112,5.2367,5.1758,5.0676,4.9729,4.9086,4.9018,4.8781,4.824,4.7361,4.638,4.5805,4.5331,4.4756,4.4147,4.3944,4.3809,4.3436,4.2997,4.2523,4.1779,4.1441,4.0798,4.0316,4.0113,4.0113,4.0113,4.0113,4.0113,4.0113,4.0113,4.0113,4.0113,4.0113,4.0113,4.0113,4.0113,4.0113,4.0113,4.0113,4.0113,4.0113,4.0113,4.0113,4.0113,4.0113,4.0113,4.0113,4.0113,4.0113,4.0113,4.0113,4.0113,4.0113,4.0113,4.0113,3.985,3.9315,3.8881,3.8497,3.7557,3.6569,3.6228,3.5879,3.5686,3.5718,3.5782,3.5975,3.6102,3.6134,3.6039,3.5911,3.5814,3.5621,5.8171,5.6944,5.6944,5.6256,5.5299,5.5209,5.5209,5.5179,5.5089,5.4581,5.3982,5.3324,5.2576,5.2007,5.1468,5.1276,5.1773,5.2678,5.3913,5.5043,5.6165,5.7039,5.7772,5.7881,5.7881,5.7881,5.7881,5.7814,5.7814,5.7746,5.7205,5.6799,5.5852,5.5175,5.4668,5.3923,5.3518,5.3518,5.3518,5.3518,5.3518,5.3382,5.2706,5.142,5.0777,4.9898,4.9221,4.9018,4.8984,4.8984,4.8379,4.7394,4.6413,4.5703,4.5466,4.4784,4.4649,4.4412,4.4248,4.3876,4.3267,4.2523,4.1813,4.1068,4.0493,4.0214,4.0113,4.0113,4.0113,4.0113,4.0113,4.0113,4.0113,4.0113,4.0113,4.0113,4.0113,4.0113,4.0113,4.0113,4.0113,4.0113,4.0113,4.0113,4.0113,4.0113,4.0113,4.0113,4.0113,4.0113,4.0113,4.0113,4.0113,4.0113,4.0113,4.0113,4.0113,3.9952,3.9473,3.9342,3.9156,3.869,3.7847,3.6752,3.6353,3.6165,3.6101,3.6165,3.6353,3.66,3.6722,3.6692,3.6446,3.607,3.5846,5.7513,5.6368,5.6316,5.5897,5.5239,5.5209,5.5149,5.5089,5.4581,5.3982,5.3324,5.2665,5.2067,5.1498,5.1319,5.1681,5.253,5.3636,5.4782,5.5889,5.6925,5.7701,5.7808,5.7881,5.7848,5.7881,5.7814,5.778,5.7712,5.734,5.7273,5.7171,5.575,5.4938,5.4938,5.4296,5.3518,5.3518,5.3518,5.3518,5.3518,5.3416,5.2773,5.1388,5.098,5.0236,4.9289,4.9018,4.9018,4.8984,4.8883,4.8342,4.7462,4.6413,4.5737,4.5365,4.4857,4.4581,4.4547,4.4479,4.3944,4.3301,4.2523,4.1779,4.1068,4.0485,4.0248,4.0113,4.0113,4.0113,4.0113,4.0113,4.0113,4.0113,4.0113,4.0113,4.0113,4.0113,4.0113,4.0113,4.0113,4.0113,4.0113,4.0113,4.0113,4.0113,4.0113,4.0113,4.0113,4.0113,4.0113,4.0113,4.0113,4.0113,4.0113,4.0113,4.0113,4.0113,3.9876,3.9876,3.9773,3.9876,3.9209,3.7815,3.7024,3.6752,3.6722,3.6691,3.7024,3.7469,3.744,3.7381,3.7054,3.6692,3.6071,5.7034,5.6248,5.6218,5.5598,5.485,5.5059,5.476,5.4221,5.4162,5.3623,5.2815,5.2306,5.1828,5.1349,5.1229,5.1865,5.3015,5.4264,5.5292,5.6299,5.7335,5.7881,5.7848,5.7848,5.7611,5.7408,5.7306,5.7543,5.778,5.7171,5.7036,5.6799,5.5446,5.4803,5.4837,5.4059,5.3585,5.3518,5.3518,5.3518,5.3518,5.3518,5.2672,5.1657,5.115,5.0439,4.9323,4.9018,4.9018,4.9018,4.9018,4.8815,4.8173,4.7158,4.6075,4.5703,4.5026,4.4581,4.4581,4.4581,4.4181,4.3477,4.3031,4.232,4.1508,4.0865,4.0426,4.018,4.0113,4.0113,4.0113,4.0113,4.0113,4.0113,4.0113,4.0113,4.0113,4.0113,4.0113,4.0113,4.0113,4.0113,4.0113,4.0113,4.0113,4.0113,4.0113,4.0113,4.0113,4.0113,4.0113,4.0113,4.0113,4.0113,4.0113,4.0113,4.0113,4.0113,4.0113,4.0113,4.0113,4.0062,3.948,3.8442,3.7844,3.7584,3.7528,3.7616,3.7962,3.8246,3.8274,3.8189,3.7758,3.7291,3.6661,5.6466,5.5777,5.5777,5.5089,5.4192,5.4551,5.4192,5.3414,5.3593,5.3174,5.2306,5.2037,5.1678,5.1366,5.1618,5.2215,5.329,5.4615,5.5611,5.6644,5.7245,5.7645,5.7645,5.7577,5.7273,5.663,5.6596,5.6867,5.707,5.6765,5.6596,5.6258,5.5209,5.46,5.4465,5.389,5.3619,5.3518,5.3518,5.3518,5.3518,5.345,5.2875,5.1555,5.1252,5.0574,4.9458,4.9086,4.9018,4.9018,4.9018,4.8984,4.8748,4.7597,4.6549,4.5906,4.5094,4.4682,4.4581,4.4581,4.4316,4.3809,4.3511,4.2692,4.1745,4.1102,4.0654,4.0248,4.0113,4.0113,4.0113,4.0113,4.0113,4.0113,4.0113,4.0113,4.0113,4.0113,4.0113,4.0113,4.0113,4.0113,4.0113,4.0113,4.0113,4.0113,4.0113,4.0113,4.0113,4.0113,4.0113,4.0113,4.0113,4.0113,4.0113,4.0113,4.0113,4.0113,4.0113,4.0113,4.0113,4.0113,3.948,3.9022,3.9076,3.8827,3.8635,3.8442,3.8663,3.8881,3.9076,3.8881,3.8381,3.77,3.6994,5.5538,5.4461,5.4461,5.3982,5.3384,5.3443,5.3384,5.3114,5.2695,5.2396,5.2067,5.1618,5.1319,5.1466,5.232,5.3309,5.425,5.5038,5.6112,5.7312,5.7299,5.7171,5.7002,5.6934,5.663,5.6055,5.5886,5.5817,5.5953,5.5852,5.5886,5.5683,5.5074,5.4566,5.4363,5.3822,5.3518,5.3518,5.3518,5.3518,5.3518,5.3518,5.2976,5.2232,5.1455,5.0811,4.9864,4.9357,4.9018,4.9018,4.9018,4.9018,4.8781,4.7597,4.6921,4.6278,4.5529,4.4581,4.4581,4.4581,4.4581,4.4181,4.3876,4.3064,4.2083,4.0933,4.0316,4.018,4.0113,4.0113,4.0113,4.0113,4.0113,4.0113,4.0113,4.0113,4.0113,4.0113,4.0113,4.0113,4.0113,4.0113,4.0113,4.0113,4.0113,4.0113,4.0113,4.0113,4.0113,4.0113,4.0113,4.0113,4.0113,4.0113,4.0113,4.0113,4.0113,4.0113,4.0113,4.0113,4.0113,4.0113,4.0113,3.9799,3.9825,3.9636,3.9209,3.9102,3.9315,3.948,3.9584,3.9315,3.8935,3.8185,3.7499,5.473,5.4192,5.3803,5.3234,5.2725,5.3025,5.2725,5.2187,5.2157,5.1977,5.1648,5.1379,5.1345,5.1621,5.2734,5.3815,5.4847,5.5658,5.6664,5.7603,5.7509,5.7374,5.734,5.6968,5.6427,5.5683,5.5243,5.4735,5.4735,5.4972,5.5209,5.548,5.46,5.3957,5.4059,5.3687,5.3551,5.3518,5.3518,5.3518,5.3518,5.345,5.3112,5.2334,5.1589,5.0845,5.0101,4.939,4.9052,4.9018,4.9018,4.8781,4.8308,4.7394,4.665,4.6075,4.5196,4.4649,4.4581,4.4581,4.4581,4.4547,4.4175,4.3572,4.2388,4.1027,4.0113,4.0113,4.0113,4.0113,4.0113,4.0113,4.0113,4.0113,4.0113,4.0113,4.0113,4.0113,4.0113,4.0113,4.0113,4.0113,4.0113,4.0113,4.0113,4.0113,4.0113,4.0113,4.0113,4.0113,4.0113,4.0113,4.0113,4.0113,4.0113,4.0113,4.0113,4.0113,4.0113,4.0113,4.0113,4.0113,4.0113,4.0113,4.0003,3.9799,3.9558,3.961,3.9714,3.9901,4.0087,3.974,3.9368,3.8881,3.8157,5.3713,5.3653,5.3144,5.2546,5.2007,5.2486,5.2127,5.1379,5.1738,5.1558,5.1003,5.075,5.0865,5.1449,5.2482,5.3657,5.4724,5.595,5.6995,5.7543,5.7509,5.7239,5.6867,5.6494,5.5784,5.5175,5.4566,5.4262,5.4194,5.4194,5.46,5.5108,5.4093,5.3619,5.3551,5.3518,5.3518,5.3518,5.3518,5.3518,5.3518,5.3518,5.3044,5.2334,5.1589,5.0845,5.0101,4.939,4.9018,4.9018,4.9018,4.8714,4.8003,4.7259,4.6481,4.5838,4.5021,4.4615,4.4581,4.4581,4.4581,4.4479,4.4005,4.3166,4.2083,4.0823,4.0113,4.0113,4.0113,4.0113,4.0113,4.0113,4.0113,4.0113,4.0113,4.0113,4.0113,4.0113,4.0113,4.0113,4.0113,4.0113,4.0113,4.0113,4.0113,4.0113,4.0113,4.0113,4.0079,4.0079,4.0079,4.0079,4.0079,4.0079,4.0113,4.0113,4.0113,4.0113,4.0113,4.0113,4.0113,4.0113,4.0113,4.0113,4.0113,4.0003,3.9825,3.9952,4.0113,4.0113,4.0113,4.0113,3.9825,3.9342,3.8745,5.2336,5.2336,5.2306,5.1917,5.1319,5.1319,5.1319,5.1229,5.1259,5.0883,5.0226,4.9763,4.9659,5.0087,5.1633,5.2997,5.3834,5.5159,5.6549,5.7034,5.6664,5.6292,5.6021,5.548,5.46,5.4025,5.3822,5.4059,5.4194,5.3788,5.3754,5.3585,5.3619,5.3551,5.3518,5.3518,5.3518,5.3518,5.3518,5.3518,5.3518,5.345,5.3112,5.2334,5.1589,5.0845,5.0101,4.939,4.9018,4.9018,4.9018,4.8511,4.7767,4.7158,4.6447,4.5737,4.5162,4.479,4.4784,4.4682,4.4581,4.4209,4.3504,4.2557,4.1745,4.0756,4.0214,4.0146,4.0113,4.0113,4.0113,4.0113,4.0113,4.0113,4.0113,4.0113,4.0113,4.0113,4.0113,4.0113,4.0113,4.0113,4.0113,4.0113,4.0113,4.0113,4.0113,4.0113,4.0011,4.0011,4.0045,4.0045,4.0011,4.0045,4.0079,4.0113,4.0113,4.0113,4.0113,4.0113,4.0113,4.0113,4.0113,4.0113,4.0113,4.0113,4.0113,4.0113,4.0113,4.0113,4.0113,4.0113,3.9978,3.961,3.8968,5.1977,5.1618,5.1588,5.1439,5.1229,5.1229,5.1229,5.1139,5.0734,5.0242,4.9613,4.9389,4.9386,4.9929,5.0827,5.2452,5.3877,5.4901,5.6355,5.7164,5.6934,5.6461,5.6021,5.5209,5.4465,5.4059,5.3788,5.3585,5.3788,5.3619,5.3551,5.3518,5.3518,5.3518,5.3518,5.3518,5.3518,5.3518,5.3518,5.3518,5.3518,5.3484,5.3112,5.2334,5.1589,5.0879,5.0135,4.939,4.912,4.9018,4.9018,4.8342,4.7496,4.6955,4.6413,4.5771,4.5263,4.5162,4.5026,4.4852,4.4615,4.4412,4.3606,4.2625,4.1779,4.1136,4.0527,4.0316,4.0113,4.0113,4.0113,4.0113,4.0113,4.0113,4.0113,4.0113,4.0113,4.0113,4.0113,4.0113,4.0113,4.0113,4.0113,4.0113,4.0113,4.0113,4.0113,4.0079,4.0011,3.9943,3.9977,3.9977,3.9943,3.9977,4.0045,4.0079,4.0113,4.0113,4.0113,4.0113,4.0113,4.0113,4.0113,4.0113,4.0113,4.0113,4.0113,4.0113,4.0113,4.0113,4.0113,4.0113,3.9952,3.9799,3.9401,5.1648,5.1229,5.1229,5.1229,5.1199,5.102,5.0883,5.081,5.0242,4.9583,4.9,4.882,4.8813,4.9243,4.9956,5.1363,5.2935,5.4227,5.5799,5.6477,5.6562,5.6393,5.5886,5.5141,5.4126,5.4126,5.3856,5.3551,5.3585,5.3518,5.3518,5.3518,5.3518,5.3518,5.3518,5.3518,5.3518,5.3518,5.3518,5.3518,5.3518,5.3484,5.2875,5.2097,5.142,5.0642,4.9898,4.9221,4.9052,4.9018,4.8849,4.8206,4.7361,4.665,4.6244,4.5737,4.5365,4.5399,4.5229,4.4959,4.4479,4.4079,4.3741,4.2861,4.2117,4.1474,4.0832,4.0214,4.0113,4.0113,4.0113,4.0113,4.0113,4.0113,4.0113,4.0113,4.0113,4.0113,4.0113,4.0113,4.0113,4.0113,4.0113,4.0113,4.0113,4.0113,4.0113,4.0113,4.0045,3.9977,3.9876,3.9876,3.9842,3.991,3.9977,4.0045,4.0113,4.0113,4.0113,4.0113,4.0113,4.0113,4.0113,4.0113,4.0113,4.0113,4.0113,4.0113,4.0113,4.0113,4.0113,4.0113,4.0087,3.9952,3.9978,5.1229,5.1229,5.1229,5.1152,5.1079,5.0495,5.0226,5.0136,4.9553,4.8925,4.8267,4.7758,4.7519,4.7787,4.863,5.0106,5.1784,5.2828,5.4446,5.6044,5.5683,5.5344,5.504,5.4465,5.3754,5.3585,5.3518,5.3518,5.3518,5.3518,5.3518,5.3518,5.3518,5.3518,5.3518,5.3518,5.3518,5.3518,5.3518,5.3518,5.3518,5.3484,5.2739,5.1894,5.1352,5.0608,4.9695,4.9187,4.9018,4.9018,4.9018,4.8308,4.7192,4.6853,4.621,4.5162,4.4891,4.4756,4.4682,4.4649,4.4344,4.391,4.3741,4.3031,4.1813,4.1204,4.0933,4.0282,4.0113,4.0113,4.0113,4.0113,4.0113,4.0113,4.0113,4.0113,4.0113,4.0113,4.0113,4.0113,4.0113,4.0113,4.0113,4.0113,4.0113,4.0113,4.0113,4.0079,4.0079,3.9842,3.9673,3.9808,3.9774,3.9842,3.9943,4.0045,4.0113,4.0113,4.0113,4.0113,4.0113,4.0113,4.0113,4.0113,4.0113,4.0113,4.0113,4.0113,4.0113,4.0113,4.0113,4.0113,4.0113,4.0113,4.0113,5.0524,5.0554,5.1003,5.096,5.0524,5.0315,4.9956,4.9523,4.8895,4.8237,4.7698,4.7369,4.7309,4.7452,4.7825,4.914,5.1254,5.1765,5.341,5.5678,5.4972,5.4837,5.46,5.4126,5.3518,5.3518,5.3518,5.3518,5.3518,5.3518,5.3518,5.3518,5.3518,5.3518,5.3518,5.3518,5.3518,5.3518,5.3518,5.3518,5.3518,5.345,5.2976,5.1928,5.1488,5.071,4.9695,4.9289,4.9018,4.9018,4.9018,4.8477,4.753,4.7192,4.6549,4.5872,4.5669,4.5331,4.5162,4.5021,4.4547,4.4215,4.4012,4.3403,4.2185,4.1948,4.1271,4.0417,4.0146,4.0113,4.0113,4.0113,4.0113,4.0113,4.0113,4.0113,4.0113,4.0113,4.0113,4.0113,4.0113,4.0113,4.0113,4.0113,4.0113,4.0113,4.0113,4.0113,4.0079,3.9639,3.9368,3.9639,3.974,3.9808,3.9876,4.0045,4.0113,4.0113,4.0113,4.0113,4.0113,4.0113,4.0113,4.0113,4.0113,4.0113,4.0113,4.0113,4.0113,4.0113,4.0113,4.0113,4.0113,4.0113,4.0113,4.9912,4.9942,5.0361,5.0152,4.9643,4.9793,4.9434,4.8626,4.8117,4.7698,4.7369,4.7309,4.7309,4.7309,4.7512,4.8613,5.0991,5.1186,5.2642,5.4898,5.4566,5.4465,5.4296,5.389,5.3585,5.3518,5.3518,5.3518,5.3518,5.3518,5.3518,5.3518,5.3518,5.3518,5.3518,5.3518,5.3518,5.3518,5.3518,5.3518,5.3518,5.3416,5.3112,5.23,5.1589,5.0845,5.0101,4.9492,4.9018,4.9018,4.8917,4.8646,4.797,4.7496,4.6921,4.6447,4.5771,4.5331,4.506,4.4925,4.4581,4.4513,4.4581,4.3836,4.2692,4.2252,4.1399,4.062,4.0214,4.0113,4.0113,4.0113,4.0113,4.0113,4.0113,4.0113,4.0113,4.0113,4.0113,4.0113,4.0113,4.0113,4.0113,4.0113,4.0113,4.0113,4.0113,4.0113,4.0113,3.974,3.9402,3.9639,3.9842,3.991,3.9977,4.0045,4.0113,4.0113,4.0113,4.0113,4.0113,4.0113,4.0113,4.0113,4.0113,4.0113,4.0113,4.0113,4.0113,4.0113,4.0113,4.0113,4.0113,4.0113,4.0113,4.9269,4.9299,4.9299,4.9,4.8506,4.897,4.8476,4.7399,4.7339,4.7339,4.7309,4.7309,4.7309,4.7309,4.7309,4.8438,5.0065,5.0377,5.2122,5.3641,5.3787,5.4059,5.4093,5.3822,5.3585,5.3518,5.3518,5.3518,5.3518,5.3518,5.3518,5.3518,5.3518,5.3518,5.3518,5.3518,5.3518,5.3518,5.3518,5.3518,5.3518,5.3484,5.3145,5.2503,5.1826,5.1082,5.0338,4.9661,4.9221,4.9052,4.8984,4.8578,4.8176,4.7906,4.6959,4.6075,4.5196,4.4959,4.4857,4.479,4.4615,4.4581,4.4581,4.3701,4.2963,4.2489,4.1779,4.0925,4.0383,4.0214,4.0113,4.0113,4.0113,4.0113,4.0113,4.0113,4.0113,4.0113,4.0113,4.0113,4.0113,4.0113,4.0113,4.0113,4.0113,4.0113,4.0113,4.0113,4.0113,4.0113,3.9842,3.9876,4.0011,4.0045,4.0113,4.0113,4.0113,4.0113,4.0113,4.0113,4.0113,4.0113,4.0113,4.0113,4.0113,4.0113,4.0113,4.0113,4.0113,4.0113,4.0113,4.0113,4.0113,4.0113,4.0113,4.861,4.867,4.912,4.894,4.8297,4.7997,4.7608,4.7339,4.7309,4.7309,4.7309,4.7309,4.7309,4.7309,4.7309,4.8157,4.9166,5.0126,5.1215,5.2338,5.3415,5.3619,5.3687,5.3619,5.3518,5.3518,5.3518,5.3518,5.3518,5.3518,5.3518,5.3518,5.3518,5.3518,5.3518,5.3518,5.3518,5.3518,5.3518,5.3518,5.3518,5.3518,5.3247,5.2942,5.23,5.1555,5.0811,5.0101,4.9593,4.9086,4.9018,4.8815,4.8781,4.8206,4.7361,4.6583,4.5872,4.5399,4.5297,4.4857,4.4581,4.4581,4.4581,4.4079,4.3403,4.2895,4.2354,4.1339,4.0696,4.0587,4.0248,4.0113,4.0113,4.0113,4.0113,4.0113,4.0113,4.0113,4.0113,4.0113,4.0113,4.0113,4.0113,4.0113,4.0113,4.0113,4.0113,4.0113,4.0113,4.0113,4.0113,4.0113,4.0113,4.0113,4.0113,4.0113,4.0113,4.0113,4.0113,4.0113,4.0113,4.0113,4.0113,4.0113,4.0113,4.0113,4.0113,4.0113,4.0113,4.0113,4.0113,4.0113,4.0113,4.0113,4.0113,4.7878,4.7938,4.8327,4.8267,4.7878,4.7489,4.7309,4.7309,4.7309,4.7309,4.7309,4.7309,4.7309,4.7309,4.7396,4.8115,4.9536,5.0165,5.1257,5.2729,5.311,5.3416,5.3518,5.3518,5.3518,5.3518,5.3518,5.3518,5.3518,5.3518,5.3518,5.3518,5.3518,5.3518,5.3518,5.3518,5.3518,5.3518,5.3518,5.3518,5.3518,5.3518,5.3518,5.3348,5.2706,5.1995,5.1251,5.0473,4.9763,4.9154,4.9018,4.9018,4.8883,4.8308,4.7838,4.7056,4.6177,4.5771,4.55,4.4987,4.4716,4.4581,4.4581,4.4316,4.3944,4.347,4.2489,4.1474,4.1238,4.0933,4.0485,4.0113,4.0113,4.0113,4.0113,4.0113,4.0113,4.0113,4.0113,4.0113,4.0113,4.0113,4.0113,4.0113,4.0113,4.0113,4.0113,4.0113,4.0113,4.0113,4.0113,4.0113,4.0113,4.0113,4.0113,4.0113,4.0113,4.0113,4.0113,4.0113,4.0113,4.0113,4.0113,4.0113,4.0113,4.0113,4.0113,4.0113,4.0113,4.0113,4.0113,4.0113,4.0113,4.0113,4.0113,4.7309,4.7339,4.7309,4.7399,4.7309,4.7309,4.7309,4.7309,4.7309,4.7309,4.7309,4.7309,4.7309,4.7309,4.7352,4.8324,4.9367,5.0009,5.108,5.328,5.3076,5.3179,5.3484,5.3518,5.3518,5.3518,5.3518,5.3518,5.3518,5.3518,5.3518,5.3518,5.3518,5.3518,5.3518,5.3518,5.3518,5.3518,5.3518,5.3518,5.3518,5.3518,5.3484,5.3348,5.2739,5.1961,5.1217,5.0507,4.9763,4.9289,4.9018,4.9018,4.8781,4.8511,4.8139,4.7669,4.6853,4.6244,4.5838,4.5297,4.4852,4.4682,4.4581,4.4547,4.4215,4.3978,4.3064,4.1948,4.1576,4.0967,4.0485,4.018,4.0113,4.0113,4.0113,4.0113,4.0113,4.0113,4.0113,4.0113,4.0113,4.0113,4.0113,4.0113,4.0113,4.0113,4.0113,4.0113,4.0113,4.0113,4.0113,4.0113,4.0113,4.0113,4.0113,4.0113,4.0113,4.0113,4.0113,4.0113,4.0113,4.0113,4.0113,4.0113,4.0113,4.0113,4.0113,4.0113,4.0113,4.0113,4.0113,4.0113,4.0113,4.0113,4.0113,4.7309,4.7309,4.7309,4.7309,4.7309,4.7309,4.7309,4.7309,4.7309,4.7309,4.7309,4.7309,4.7309,4.7309,4.7309,4.8115,4.9004,4.9536,5.055,5.1776,5.2348,5.2835,5.3348,5.3416,5.3484,5.3518,5.3518,5.3518,5.3518,5.3518,5.3518,5.3518,5.3518,5.3518,5.3518,5.3518,5.3518,5.3518,5.3518,5.3518,5.3518,5.3518,5.3484,5.3247,5.2706,5.1928,5.1183,5.0473,4.9763,4.9154,4.9052,4.9018,4.8984,4.8815,4.8748,4.8578,4.7767,4.7022,4.6346,4.5737,4.5162,4.475,4.4581,4.4581,4.4513,4.4412,4.3802,4.2658,4.1745,4.1102,4.0595,4.0383,4.018,4.018,4.0113,4.0113,4.0113,4.0113,4.0113,4.0113,4.0113,4.0113,4.0113,4.0113,4.0113,4.0113,4.0113,4.0113,4.0113,4.0113,4.0113,4.0113,4.0113,4.0113,4.0113,4.0113,4.0113,4.0113,4.0113,4.0113,4.0113,4.0113,4.0113,4.0113,4.0113,4.0113,4.0113,4.0113,4.0113,4.0113,4.0113,4.0113,4.0113,4.0113,4.0113,4.7309,4.7309,4.7309,4.7309,4.7309,4.7309,4.7309,4.7309,4.7309,4.7309,4.7309,4.7309,4.7309,4.7309,4.7309,4.7849,4.8677,4.88,4.9852,5.0892,5.1776,5.2241,5.2731,5.3314,5.3484,5.3518,5.3518,5.3518,5.3518,5.3518,5.3518,5.3518,5.3518,5.3518,5.3518,5.3518,5.3518,5.3518,5.3484,5.3484,5.3416,5.3281,5.3281,5.3044,5.2469,5.1725,5.1183,5.0473,4.9763,4.9221,4.9018,4.9018,4.9018,4.8951,4.8984,4.8781,4.824,4.7597,4.6819,4.6109,4.5365,4.4886,4.4581,4.4581,4.4581,4.4445,4.4079,4.3031,4.2286,4.1644,4.1373,4.1136,4.0832,4.0696,4.035,4.0113,4.0113,4.0113,4.0113,4.0113,4.0113,4.0113,4.0113,4.0113,4.0113,4.0113,4.0113,4.0113,4.0113,4.0113,4.0113,4.0113,4.0113,4.0113,4.0113,4.0113,4.0113,4.0113,4.0113,4.0113,4.0113,4.0113,4.0113,4.0113,4.0113,4.0113,4.0113,4.0113,4.0113,4.0113,4.0113,4.0113,4.0113,4.0113,4.0113,4.716,4.7189,4.7279,4.7309,4.7309,4.7309,4.7309,4.7309,4.7309,4.7309,4.7309,4.7309,4.7309,4.7309,4.7352,4.803,4.846,4.8377,4.9287,5.0665,5.134,5.2062,5.2627,5.3076,5.3348,5.3518,5.3518,5.3518,5.3518,5.3518,5.3518,5.3518,5.3518,5.3518,5.3518,5.3518,5.3518,5.3416,5.3382,5.3382,5.3145,5.2841,5.2976,5.2706,5.2063,5.1219,5.0913,5.0338,4.9593,4.9323,4.9018,4.9018,4.9018,4.8984,4.8815,4.8646,4.8274,4.7462,4.6684,4.6007,4.5331,4.4852,4.4682,4.4581,4.4581,4.4316,4.3978,4.3639,4.2895,4.2354,4.2083,4.1677,4.1373,4.1035,4.0527,4.0113,4.0113,4.0113,4.0113,4.0113,4.0113,4.0113,4.0113,4.0113,4.0113,4.0113,4.0113,4.0113,4.0113,4.0113,4.0113,4.0113,4.0113,4.0113,4.0113,4.0113,4.0113,4.0113,4.0113,4.0113,4.0113,4.0113,4.0113,4.0113,4.0113,4.0113,4.0113,4.0113,4.0113,4.0113,4.0113,4.0113,4.0113,4.0113,4.0113,4.6459,4.6518,4.707,4.7309,4.7309,4.7309,4.7309,4.7309,4.7309,4.7309,4.7309,4.7309,4.7309,4.7309,4.7309,4.7764,4.8335,4.8168,4.9655,5.1377,5.1155,5.1918,5.2731,5.3144,5.3416,5.3518,5.3518,5.3518,5.3518,5.3518,5.3518,5.3518,5.3518,5.3518,5.3518,5.3518,5.3484,5.3382,5.301,5.2841,5.3315,5.3112,5.2909,5.2435,5.1691,5.098,5.0338,4.9593,4.9221,4.9052,4.9018,4.9018,4.9018,4.8951,4.8748,4.8376,4.7973,4.7225,4.6447,4.594,4.5297,4.4716,4.4581,4.4581,4.4445,4.4079,4.3978,4.4276,4.3633,4.2963,4.2557,4.188,4.1441,4.1068,4.0629,4.0316,4.0146,4.0113,4.0113,4.0113,4.0113,4.0113,4.0113,4.0113,4.0113,4.0113,4.0113,4.0113,4.0113,4.0113,4.0113,4.0113,4.0113,4.0113,4.0113,4.0113,4.0113,4.0113,4.0113,4.0113,4.0113,4.0113,4.0113,4.0113,4.0113,4.0113,4.0113,4.0113,4.0113,4.0113,4.0113,4.0113,4.0113,4.0113,4.0113]}]]